[[{"header":{"parameterUnit":"m.s-1","parameterCategory":1,"la1":30.6,"la2":29.2853,"lo1":-89.7004,"lo2":-87.6739,"dy":0.0162,"dx":0.0183,"nx":112,"ny":82,"refTime":"2023-08-26T00:00:00:Z","depth":0,"parameterNumber":2,"parameterNumberName":"U-component_of_WINDS"},"data":[0.0,0.0,0.0,0.0,0.0,0.0,0.0,0.0,0.0,0.0,0.0,0.0,0.0,0.0,0.0,0.0,0.0,0.0,0.0,0.0,0.0,0.0,0.0,0.0,0.0,0.0,0.0,0.0,0.0,0.0,0.0,0.0,0.0,0.0,0.0,0.0,0.0,0.0,0.0,0.0,0.0,0.0,0.0,0.0,0.0,0.0,0.0,0.0,0.0,0.0,0.0,0.0,0.0,0.0,0.0,0.0,0.0,0.0,0.0,0.0,0.0,0.0,0.0,0.0,0.0,0.0,0.0,0.0,0.0,0.0,0.0,0.0,0.0,0.0,0.0,0.0,0.0,0.0,0.0,0.0,0.0,0.0,0.0,0.0,0.0,0.0,0.0,0.0,0.0,0.0,0.0,-0.0935,-0.4463,-1.02,-1.98,-2.5628,-2.8174,-2.6526,0.0,0.0,0.0,0.0,0.0,0.0,0.0,0.0,0.0,0.0,0.0,0.0,0.0,0.0,0.0,0.0,0.0,0.0,0.0,0.0,0.0,0.0,0.0,0.0,0.0,0.0,0.0,0.0,0.0,0.0,0.0,0.0,0.0,0.0,0.0,0.0,0.0,0.0,0.0,0.0,0.0,0.0,0.0,0.0,0.0,0.0,0.0,0.0,0.0,0.0,0.0,0.0,0.0,0.0,0.0,0.0,0.0,0.0,0.0,0.0,0.0,0.0,0.0,0.0,0.0,0.0,0.0,0.0,0.0,0.0,0.0,0.0,0.0,0.0,0.0,0.0,0.0,0.0,0.0,0.0,0.0,0.0,0.0,0.0,0.0,0.0,0.0,0.0,0.0,0.0,0.0,0.0,0.0,0.0,0.0,0.0,0.0,0.0,0.0,0.0,0.0,0.0,0.0,0.0,0.0834,-1.1895,-1.2808,-1.572,-2.3461,-2.517,-2.6519,-2.81,0.0,0.0,0.0,0.0,0.0,0.0,0.0,0.0,0.0,0.0,0.0,0.0,0.0,0.0,0.0,0.0,0.0,0.0,0.0,0.0,0.0,0.0,0.0,0.0,0.0,0.0,0.0,0.0,0.0,0.0,0.0,0.0,0.0,0.0,0.0,0.0,0.0,0.0,0.0,0.0,0.0,0.0,0.0,0.0,0.0,0.0,0.0,0.0,0.0,0.0,0.0,0.0,0.0,0.0,0.0,0.0,0.0,0.0,0.0,0.0,0.0,0.0,0.0,0.0,0.0,0.0,0.0,0.0,0.0,0.0,0.0,0.0,0.0,0.0,0.0,0.0,0.0,0.0,0.0,0.0,0.0,0.0,0.0,0.0,0.0,0.0,0.0,0.0,0.0,0.0,0.0,0.0,0.0,0.0,0.0,0.0,0.0,0.0,0.0,0.0,0.0,0.0,0.0,-0.0073,-0.3054,-1.2547,-1.4818,-1.8203,-2.4337,-2.6828,-2.8747,-3.0384,-3.0375,0.0,0.0,0.0,0.0,0.0,0.0,0.0,0.0,0.0,0.0,0.0,0.0,0.0,0.0,0.0,0.0,0.0,0.0,0.0,0.0,0.0,0.0,0.0,0.0,0.0,0.0,0.0,0.0,0.0,0.0,0.0,0.0,0.0,0.0,0.0,0.0,0.0,0.0,0.0,0.0,0.0,0.0,0.0,0.0,0.0,0.0,0.0,0.0,0.0,0.0,0.0,0.0,0.0,0.0,0.0,0.0,0.0,0.0,0.0,0.0,0.0,0.0,0.0,0.0,0.0,0.0,0.0,0.0,0.0,0.0,0.0,0.0,0.0,0.0,0.0,0.0,0.0,0.0,0.0,0.0,0.0,0.0,0.0,0.0,0.0,0.0,0.0,0.0,0.0,0.0,0.0,0.0,0.0,0.0,0.0,0.0,0.0,0.0,0.0,0.0,0.0,0.0,-0.5287,-0.7081,-1.2141,-1.5721,-1.9966,-2.5286,-2.8685,-3.1047,-3.2367,-3.1602,0.0,0.0,0.0,0.0,0.0,0.0,0.0,0.0,0.0,0.0,0.0,0.0,0.0,0.0,0.0,0.0,0.0,0.0,0.0,0.0,0.0,0.0,0.0,0.0,0.0,0.0,0.0,0.0,0.0,0.0,0.0,0.0,0.0,0.0,0.0,0.0,0.0,0.0,0.0,0.0,0.0,0.0,0.0,0.0,0.0,0.0,0.0,0.0,0.0,0.0,0.0,0.0,0.0,0.0,0.0,0.0,0.0,0.0,0.0,0.0,0.0,0.0,0.0,0.0,0.0,0.0,0.0,0.0,0.0,0.0,0.0,0.0,0.0,0.0,0.0,0.0,0.0,0.0,0.0,0.0,0.0,0.0,0.0,0.0,0.0,0.0,0.0,0.0,0.0,0.0,0.0,0.0,0.0,0.0,0.0,0.0,0.0,0.0,0.0,0.0,0.0,0.0,-0.709,-1.13,-1.5405,-1.8083,-2.1905,-2.7677,-2.9744,-3.1504,-3.328,-3.1831,0.0,0.0,0.0,0.0,0.0,0.0,0.0,0.0,0.0,0.0,0.0,0.0,0.0,0.0,0.0,0.0,0.0,0.0,0.0,0.0,0.0,0.0,0.0,0.0,0.0,0.0,0.0,0.0,0.0,0.0,0.0,0.0,0.0,0.0,0.0,0.0,0.0,0.0,0.0,0.0,0.0,0.0,0.0,0.0,0.0,0.0,0.0,0.0,0.0,0.0,0.0,0.0,0.0,0.0,0.0,0.0,0.0,0.0,0.0,0.0,0.0,0.0,0.0,0.0,0.0,0.0,0.0,0.0,0.0,0.0,0.0,0.0,0.0,0.0,0.0,0.0,0.0,0.0,0.0,0.0,0.0,0.0,0.0,0.0,0.0,0.0,0.0,0.0,0.0,0.0,0.0,0.0,0.0,0.0,0.0,0.0,0.0,0.0,0.0,0.0,0.0,0.0,-0.8393,-1.3006,0.0,-1.9115,-2.3479,-2.8094,-2.9381,-3.0903,-3.306,0.0,0.0,0.0,0.0,0.0,0.0,0.0,0.0,0.0,0.0,0.0,0.0,0.0,0.0,0.0,0.0,0.0,0.0,0.0,0.0,0.0,0.0,0.0,0.0,0.0,0.0,0.0,0.0,0.0,0.0,0.0,0.0,0.0,0.0,0.0,0.0,0.0,0.0,0.0,0.0,0.0,0.0,0.0,0.0,0.0,0.0,0.0,0.0,0.0,0.0,0.0,0.0,0.0,0.0,0.0,0.0,0.0,0.0,0.0,0.0,0.0,0.0,0.0,0.0,0.0,0.0,0.0,0.0,0.0,0.0,0.0,0.0,0.0,0.0,0.0,0.0,0.0,0.0,0.0,0.0,0.0,0.0,0.0,0.0,0.0,0.0,0.0,0.0,0.0,0.0,0.0,0.0,0.0,0.0,0.0,0.0,0.0,0.0,0.0,0.0,0.0,0.0,-0.2398,-0.9079,-1.3982,0.0,-2.003,-2.4518,-2.8623,-2.8828,-2.9959,-3.2824,0.0,0.0,0.0,0.0,0.0,0.0,0.0,0.0,0.0,0.0,0.0,0.0,0.0,0.0,0.0,0.0,0.0,0.0,0.0,0.0,0.0,0.0,0.0,0.0,0.0,0.0,0.0,0.0,0.0,0.0,0.0,0.0,0.0,0.0,0.0,0.0,0.0,0.0,0.0,0.0,0.0,0.0,0.0,0.0,0.0,0.0,0.0,0.0,0.0,0.0,0.0,0.0,0.0,0.0,0.0,0.0,0.0,0.0,0.0,0.0,0.0,0.0,0.0,0.0,0.0,0.0,0.0,0.0,0.0,0.0,0.0,0.0,0.0,0.0,0.0,0.0,0.0,0.0,0.0,0.0,0.0,0.0,0.0,0.0,0.0,0.0,0.0,0.0,0.0,0.0,0.0,0.0,0.0,0.0,0.0,0.0,0.0,0.0,0.0,0.0,0.0,0.0,-0.2441,-0.8904,-1.449,-1.7578,-2.1083,-2.5026,-2.959,-2.8188,-2.8773,0.0,0.0,0.0,0.0,0.0,0.0,0.0,0.0,0.0,0.0,0.0,0.0,0.0,0.0,0.0,0.0,0.0,0.0,0.0,0.0,0.0,0.0,0.0,0.0,0.0,0.0,0.0,0.0,0.0,0.0,0.0,0.0,0.0,0.0,0.0,0.0,0.0,0.0,0.0,0.0,0.0,0.0,0.0,0.0,0.0,0.0,0.0,0.0,0.0,0.0,0.0,0.0,0.0,0.0,0.0,0.0,0.0,0.0,0.0,0.0,0.0,0.0,0.0,0.0,0.0,0.0,0.0,0.0,0.0,0.0,0.0,0.0,0.0,0.0,0.0,0.0,0.0,0.0,0.0,0.0,0.0,0.0,0.0,0.0,0.0,0.0,0.0,0.0,0.0,0.0,0.0,0.0,0.0,0.0,0.0,0.0,0.0,0.0,0.0,0.0,0.0,0.0,0.0,-0.5916,-1.1326,-1.5643,-1.7687,-2.1782,-2.5475,-2.836,-2.7327,-2.7667,-3.0386,0.0,0.0,0.0,0.0,0.0,0.0,0.0,0.0,0.0,0.0,0.0,0.0,0.0,0.0,0.0,0.0,0.0,0.0,0.0,0.0,0.0,0.0,0.0,0.0,0.0,0.0,0.0,0.0,0.0,0.0,0.0,0.0,0.0,0.0,0.0,0.0,0.0,0.0,0.0,0.0,0.0,0.0,0.0,0.0,0.0,0.0,0.0,0.0,0.0,0.0,0.0,0.0,0.0,0.0,0.0,0.0,0.0,0.0,0.0,0.0,0.0,0.0,0.0,0.0,0.0,0.0,0.0,0.0,0.0,0.0,0.0,0.0,0.0,0.0,0.0,0.0,0.0,0.0,0.0,0.0,0.0,0.0,0.0,0.0,0.0,0.0,0.0,0.0,0.0,0.0,0.0,0.0,0.0,0.0,0.0,0.0,0.0,0.0,0.0,0.0,0.0,0.0,-0.9346,-1.2928,-1.6168,-1.901,-2.2308,-2.5192,-2.7386,-2.6464,-2.6635,-2.8545,0.0,0.0,0.0,0.0,0.0,0.0,0.0,0.0,0.0,0.0,0.0,0.0,0.0,0.0,0.0,0.0,0.0,0.0,0.0,0.0,0.0,0.0,0.0,0.0,0.0,0.0,0.0,0.0,0.0,0.0,0.0,0.0,0.0,0.0,0.0,0.0,0.0,0.0,0.0,0.0,0.0,0.0,0.0,0.0,0.0,0.0,0.0,0.0,0.0,0.0,0.0,0.0,0.0,0.0,0.0,0.0,0.0,0.0,0.0,0.0,0.0,0.0,0.0,0.0,0.0,0.0,0.0,0.0,0.0,0.0,0.0,0.0,0.0,0.0,0.0,0.0,0.0,0.0,0.0,0.0,0.0,0.0,0.0,0.0,0.0,0.0,0.0,0.0,0.0,0.0,0.0,0.0,0.0,0.0,0.0,0.0,0.0,0.0,0.0,0.0,0.0,0.0,-1.2255,-1.3663,-1.6182,-2.0854,-2.26,-2.4296,-2.6555,-2.5593,-2.5562,-2.7069,0.0,0.0,0.0,0.0,0.0,0.0,0.0,0.0,0.0,0.0,0.0,0.0,0.0,0.0,0.0,0.0,0.0,0.0,0.0,0.0,0.0,0.0,0.0,0.0,0.0,0.0,0.0,0.0,0.0,0.0,0.0,0.0,0.0,0.0,0.0,0.0,0.0,0.0,0.0,0.0,0.0,0.0,0.0,0.0,0.0,0.0,0.0,0.0,0.0,0.0,0.0,0.0,0.0,0.0,0.0,0.0,0.0,0.0,0.0,0.0,-2.5158,0.0,0.0,0.0,0.0,0.0,0.0,0.0,0.0,0.0,0.0,0.0,0.0,0.0,0.0,0.0,0.0,0.0,0.0,0.0,0.0,0.0,0.0,0.0,0.0,0.0,0.0,0.0,0.0,0.0,0.0,0.0,0.0,0.0,0.0,0.0,0.0,0.0,0.0,0.0,0.0,0.0,-1.185,-1.3654,-1.616,-1.9933,-2.152,-2.3147,-2.5315,-2.4741,-2.4538,-2.5064,0.0,0.0,0.0,0.0,0.0,0.0,0.0,0.0,0.0,0.0,0.0,0.0,0.0,0.0,0.0,0.0,0.0,0.0,0.0,0.0,0.0,0.0,0.0,0.0,0.0,0.0,0.0,0.0,0.0,0.0,0.0,0.0,0.0,0.0,0.0,0.0,0.0,0.0,0.0,0.0,0.0,0.0,0.0,0.0,0.0,0.0,0.0,0.0,0.0,0.0,0.0,0.0,0.0,0.0,0.0,0.0,0.0,0.0,0.0,0.0,0.0,-2.6789,0.0,0.0,0.0,0.0,0.0,0.0,0.0,0.0,0.0,0.0,0.0,0.0,0.0,0.0,0.0,0.0,0.0,0.0,0.0,0.0,0.0,0.0,0.0,0.0,0.0,0.0,0.0,0.0,0.0,0.0,0.0,0.0,0.0,0.0,0.0,0.0,0.0,0.0,0.0,0.0,-1.2727,-1.4445,-1.6677,-2.0038,-2.1377,-2.2509,-2.3829,-2.4051,-2.4059,-2.3919,-2.3017,0.0,0.0,0.0,0.0,0.0,0.0,0.0,0.0,0.0,0.0,0.0,0.0,0.0,0.0,0.0,0.0,0.0,0.0,0.0,0.0,0.0,0.0,0.0,0.0,0.0,0.0,0.0,0.0,0.0,0.0,0.0,0.0,0.0,0.0,0.0,0.0,0.0,0.0,0.0,0.0,0.0,0.0,0.0,0.0,0.0,0.0,0.0,0.0,0.0,0.0,0.0,0.0,0.0,0.0,-2.8996,-3.101,-3.1845,-3.2212,-3.217,-2.9974,-2.924,-2.9478,0.0,0.0,0.0,0.0,0.0,0.0,0.0,0.0,0.0,0.0,0.0,0.0,0.0,0.0,0.0,0.0,0.0,0.0,0.0,0.0,0.0,0.0,0.0,0.0,0.0,-1.3599,-1.3139,0.0,0.0,0.0,0.0,0.0,0.0,0.0,0.0,0.0,0.0,0.0,0.0,-1.3971,-1.5446,-1.7437,-2.0216,-2.1149,-2.1778,-2.2403,-2.3059,-2.3275,-2.2828,-2.1693,-2.0949,0.0,0.0,0.0,0.0,0.0,0.0,0.0,0.0,0.0,0.0,0.0,0.0,0.0,0.0,0.0,0.0,0.0,0.0,0.0,0.0,0.0,0.0,0.0,0.0,0.0,0.0,0.0,0.0,0.0,0.0,0.0,0.0,-1.5952,-1.437,0.0,0.0,0.0,0.0,0.0,0.0,0.0,0.0,0.0,0.0,0.0,0.0,0.0,0.0,-2.0163,-2.276,-2.5239,-2.7457,-3.1489,-3.3227,-3.2927,-3.4919,-3.551,-3.5012,-3.3747,0.0,-2.9748,-2.9416,0.0,0.0,0.0,0.0,0.0,0.0,0.0,0.0,0.0,0.0,0.0,0.0,0.0,0.0,0.0,0.0,0.0,0.0,0.0,0.0,0.0,0.0,-1.3814,-1.3674,-1.3841,-1.3717,0.0,-1.1275,-0.9766,-0.8206,0.0,0.0,0.0,0.0,0.0,0.0,0.0,0.0,-1.4473,-1.6136,-1.7815,-1.9375,-1.9578,-2.0115,-2.1284,-2.1213,-2.098,-2.0785,-2.0234,-1.9594,-1.8869,-1.8246,0.0,0.0,0.0,0.0,0.0,0.0,0.0,0.0,0.0,0.0,0.0,0.0,0.0,0.0,0.0,0.0,0.0,0.0,0.0,0.0,0.0,0.0,0.0,0.0,0.0,0.0,0.0,0.0,0.0,-0.9263,-0.919,-0.8799,-1.1126,-1.2453,0.0,0.0,0.0,0.0,0.0,0.0,0.0,0.0,0.0,-2.0215,-2.048,-2.1408,-2.3225,-2.5969,-2.8761,-3.1505,-3.4071,-3.5459,-3.5733,-3.6691,-3.6466,-3.5336,-3.4857,-3.3115,-3.0616,-3.1079,-3.0201,-2.8069,0.0,0.0,0.0,0.0,0.0,-2.0702,-2.168,0.0,0.0,0.0,0.0,0.0,0.0,0.0,0.0,0.0,0.0,0.0,0.0,0.0,0.0,-1.4583,-1.485,-1.474,-1.3572,-1.2616,-1.1431,0.0,-0.9056,-0.8897,-0.8933,0.0,0.0,0.0,0.0,0.0,-1.478,-1.5869,-1.7092,-1.8419,-1.9219,-1.9766,-2.0108,-2.0896,-2.1085,-2.0575,-1.9857,-1.919,-1.8553,-1.793,-1.7461,0.0,0.0,0.0,0.0,0.0,0.0,0.0,0.0,0.0,0.0,0.0,0.0,0.0,0.0,0.0,0.0,0.0,0.0,0.0,0.0,0.0,0.0,0.0,0.0,0.0,0.0,0.0,0.0,-0.0723,-0.3162,-0.425,-0.8279,-1.0942,0.0,0.0,0.0,0.0,0.0,0.0,-2.3108,-2.2799,-2.2708,-2.3012,-2.3268,-2.4594,-2.7296,-2.951,-3.2186,-3.526,-3.6345,-3.7203,-3.7778,-3.7552,-3.6577,-3.5148,-3.4572,-3.3058,-3.1039,-3.215,-3.1965,-3.0511,-2.5182,-2.3079,-2.2987,-2.1698,-2.1264,-2.1322,-2.1996,-2.2568,-2.2542,-1.9361,0.0,-1.8911,-1.6805,0.0,0.0,0.0,0.0,-1.3447,-1.4041,0.0,-1.4856,-1.5291,-1.5618,-1.5481,-1.4503,-1.4056,-1.3302,0.0,-1.0621,-1.0579,-1.0632,0.0,0.0,0.0,0.0,-1.3477,-1.5026,-1.5713,-1.6536,-1.7823,-1.8942,-1.9461,-1.9351,-2.0355,-2.0812,-2.03,-1.9473,-1.8823,-1.8482,-1.774,-1.7227,-1.6904,0.0,0.0,0.0,0.0,0.0,0.0,0.0,0.0,0.0,0.0,0.0,0.0,0.0,0.0,0.0,0.0,0.0,0.0,0.0,0.0,0.0,0.0,0.0,0.0,0.0,0.0,0.0,0.0,0.0,-0.1875,-0.7521,0.0,0.0,0.0,0.0,-1.86,-2.1788,-2.4489,-2.6085,-2.6894,-2.7561,-2.7974,-2.7805,-2.9067,-3.1818,-3.3021,-3.4944,-3.7638,-3.8679,-3.8945,-3.8357,-3.7273,-3.6144,-3.4905,-3.3009,-3.1486,-3.0489,-3.1971,-3.1563,-2.942,-2.4859,-2.3095,-2.2847,-2.0513,-2.1006,-2.2669,-2.0472,-2.1142,-2.2556,-1.9326,-1.7675,-1.69,-1.676,-1.5676,0.0,0.0,-1.4422,-1.4796,-1.4563,-1.4923,-1.5357,-1.5391,-1.5618,-1.5825,-1.5717,-1.5485,-1.4539,0.0,-1.1416,-1.167,-1.1987,0.0,-1.2311,-1.2699,-1.3276,-1.406,-1.5092,-1.5991,-1.6934,-1.792,-1.8416,-1.8844,-1.9281,-1.8958,-1.8916,-1.9374,-1.8584,-1.8066,-1.8046,-1.7598,-1.7373,-1.7353,-1.8454,0.0,0.0,0.0,0.0,0.0,0.0,0.0,0.0,0.0,0.0,0.0,0.0,0.0,0.0,0.0,0.0,0.0,0.0,0.0,0.0,0.0,0.0,0.0,0.0,0.0,0.0,0.0,0.0,-0.1329,-0.8397,0.0,0.0,-1.7409,-1.9869,-2.1328,-2.4971,-2.742,-2.8248,-2.9398,-3.0027,-3.0115,-3.0127,-3.1271,-3.3619,-3.4741,-3.6508,-3.8855,-3.9192,-3.8676,-3.7375,-3.6996,-3.561,-3.3485,-3.2032,-3.0773,-2.983,-2.9579,-2.7842,-2.5349,-2.3706,-2.2464,-2.1516,-2.086,-2.0721,-2.0748,-2.0416,-1.9418,-1.821,-1.6779,-1.6019,-1.5616,-1.5413,-1.4809,-1.4262,-1.4342,-1.4382,-1.4509,-1.4963,-1.5237,-1.5444,-1.5631,-1.5752,-1.5832,-1.5832,-1.5605,-1.52,-1.4328,-1.3698,-1.3349,-1.3632,-1.3061,-1.2692,-1.2999,-1.2914,-1.3375,-1.5021,-1.5466,-1.6296,-1.7862,-1.8358,-1.8585,-1.8483,-1.8524,-1.8477,-1.8096,-1.7783,-1.748,-1.7197,-1.7041,-1.6826,-1.6543,-1.7095,-1.7589,0.0,0.0,0.0,0.0,0.0,0.0,0.0,0.0,0.0,0.0,0.0,0.0,0.0,0.0,0.0,0.0,0.0,0.0,0.0,0.0,0.0,0.0,0.0,0.0,0.0,0.0,0.323,-0.2819,-1.0632,-1.594,-1.7179,-1.9589,-2.2051,-2.4218,-2.7672,-3.0088,-3.0789,-3.1928,-3.2592,-3.241,-3.2228,-3.3081,-3.5009,-3.5826,-3.7252,-3.9424,-3.9017,-3.8238,-3.7092,-3.64,-3.4794,-3.2497,-3.1335,-2.9928,-2.8525,-2.7778,-2.6015,-2.3673,-2.3262,-2.2422,-2.1507,-2.1185,-2.0454,-1.947,-1.9109,-1.7629,-1.5729,-1.5456,-1.5297,-1.5217,-1.5023,-1.4823,-1.4716,-1.4903,-1.4823,-1.481,-1.5391,-1.5538,-1.5591,-1.5785,-1.5832,-1.5832,-1.5832,-1.5678,-1.5598,-1.5792,-1.5044,-1.4442,-1.4636,-1.3854,-1.3419,-1.3936,-1.3432,-1.3653,-1.5808,-1.5811,-1.6298,-1.7794,-1.8389,-1.8511,-1.8195,-1.845,-1.8311,-1.7641,-1.7475,-1.7187,-1.6748,-1.6875,-1.6738,-1.6299,-1.6361,-1.7094,-1.8586,0.0,0.0,0.0,0.0,0.0,0.0,0.0,0.0,0.0,0.0,0.0,0.0,0.0,0.0,0.0,0.0,0.0,0.0,0.0,0.0,0.0,0.0,0.0,0.4858,0.3077,-0.0941,-0.6972,-1.4256,-1.8768,-1.8569,-2.1501,-2.4338,-2.6914,-2.9942,-3.2248,-3.3421,-3.4772,-3.5199,-3.4738,-3.4186,-3.4593,-3.6132,-3.6119,-3.7238,-3.9265,-3.8234,-3.7753,-3.7601,-3.5615,-3.3706,-3.193,-3.0759,-2.8946,-2.6722,-2.697,-2.6198,-2.4842,-2.3624,-2.3124,-2.2904,-2.1391,-2.0236,-1.9125,-1.6642,-1.5803,-1.5832,-1.5832,-1.5832,-1.5832,-1.5832,-1.5825,-1.5818,-1.5825,-1.5818,-1.5818,-1.5825,-1.5832,-1.5832,-1.5832,-1.5832,-1.5825,-1.5818,-1.5805,-1.5805,-1.5805,-1.5351,-1.4963,-1.4963,-1.4562,-1.4489,-1.5523,-1.4874,0.0,-1.7415,-1.7072,-1.701,-1.7891,-1.8389,-1.8586,-1.8614,-1.8577,-1.838,-1.7991,-1.7595,-1.7139,-1.6728,-1.7119,-1.7148,-1.6719,-1.6524,-1.7179,-1.8655,0.0,0.0,0.0,0.0,0.0,0.0,0.0,0.0,0.0,0.0,0.0,0.0,0.0,0.0,0.0,0.0,0.0,0.0,0.0,0.0,0.0,0.0,-0.8625,-0.4657,-0.6847,-1.1574,-1.8833,-2.0251,-2.1638,-2.4141,-2.5473,-2.6918,-2.87,-3.0315,-3.1756,-3.3084,-3.3691,-3.4222,-3.4648,-3.4186,-3.4276,-3.5129,-3.5129,-3.5748,-3.7084,-3.6774,-3.6225,-3.5534,-3.3965,-3.2609,-3.1312,-2.9274,-2.7939,-2.7285,-2.6411,-2.5862,-2.5381,-2.4389,-2.3648,-2.3032,-2.257,-2.0843,-1.8378,-1.6465,-1.5825,-1.5832,-1.5832,-1.6386,-1.7225,-1.7225,-1.705,-1.6904,-1.7152,-1.6413,-1.5565,-1.5772,-1.5832,-1.5832,-1.5832,-1.5832,-1.5772,-1.5565,-1.5351,-1.5204,-1.5204,-1.507,-1.4963,-1.4963,-1.514,-1.5299,-1.5382,0.0,0.0,-1.726,-1.7153,-1.7374,-1.8317,-1.8494,-1.8603,-1.8586,-1.8095,-1.7556,0.0,-1.637,-1.6035,-1.624,-1.6357,-1.6367,-1.625,-1.6824,-1.7493,0.0,0.0,0.0,0.0,0.0,0.0,0.0,0.0,0.0,0.0,0.0,0.0,0.0,0.0,0.0,0.0,0.0,0.0,0.0,0.0,0.0,0.0,-1.522,-1.6892,-1.5769,-1.6276,-1.8354,-2.3063,-2.2925,-2.3809,-2.7558,-2.8052,-2.884,-3.0671,-3.1485,-3.1949,-3.2147,-3.3243,-3.3971,-3.42,-3.4242,-3.4461,-3.5033,-3.4782,-3.5331,-3.6598,-3.5857,-3.5127,-3.4172,-3.2796,-3.1228,0.0,-2.8226,-2.7315,-2.6744,-2.5988,-2.5729,0.0,0.0,0.0,0.0,0.0,-2.1275,-1.8511,-1.6465,-1.6171,-1.6574,-1.6574,-1.7397,-1.8411,-1.8411,-1.8355,-1.8138,-1.781,-1.7094,-1.6258,-1.588,-1.5832,-1.5832,-1.5832,-1.5732,-1.5605,-1.5431,-1.5264,-1.511,-1.499,0.0,0.0,-1.5395,-1.577,-1.6278,-1.6774,-1.7195,-1.7661,0.0,-1.7947,-1.792,-1.8319,-1.8379,-1.8379,-1.8379,-1.793,0.0,0.0,0.0,-1.5882,-1.5741,-1.5911,0.0,0.0,0.0,-1.7143,0.0,0.0,0.0,0.0,-1.7748,-1.7129,0.0,0.0,0.0,0.0,0.0,0.0,0.0,0.0,0.0,0.0,0.0,0.0,0.0,0.0,0.0,0.0,-2.097,-2.2842,-2.5833,-2.4152,-2.2724,-2.3117,-2.396,-2.5931,-2.9649,-2.9868,-3.052,-3.2359,-3.2977,-3.2679,-3.1529,0.0,0.0,0.0,0.0,-3.487,-3.5385,-3.4892,-3.5339,-3.673,-3.5259,-3.4121,-3.3271,-3.1733,-2.9761,-2.7589,-2.7494,-2.6723,-2.5664,-2.5713,-2.5619,-2.5492,-2.4376,-2.3543,-2.3063,-2.3125,-2.148,0.0,0.0,0.0,0.0,-1.787,-1.868,-1.967,-1.967,-1.9645,-1.9439,-1.818,-1.7717,-1.7345,-1.6014,-1.5758,-1.5778,-1.5778,-1.5558,-1.5344,-1.5344,-1.5317,-1.5211,-1.4923,-1.5061,-1.5327,-1.6104,-1.6455,-1.7219,-1.8736,-1.8737,0.0,-1.9273,-1.8955,-1.8545,-1.8125,0.0,0.0,-1.8076,-1.8037,-1.7666,-1.6855,-1.6807,-1.6332,-1.5393,-1.5716,-1.5829,-1.5762,-1.5717,-1.6263,-1.7419,-1.6309,-1.599,-1.6503,-1.7166,-1.6904,0.0,0.0,0.0,0.0,0.0,0.0,0.0,0.0,0.0,0.0,0.0,0.0,0.0,0.0,0.0,-1.9178,-2.1105,-2.2866,-2.5126,-2.6216,-2.7093,-2.8146,-2.8753,-2.9951,-3.2086,-3.2572,-3.2951,-3.3296,-3.3198,-3.3401,-3.4217,-3.3218,0.0,-3.5065,-3.425,-3.4132,-3.4819,-3.4337,-3.4196,-3.4546,0.0,0.0,-3.1596,-3.0339,-2.8958,-2.7494,-2.6476,-2.572,-2.5225,-2.5586,-2.5474,-2.4953,-2.3702,-2.3154,-2.3115,-2.3067,-2.1141,-1.868,-1.9454,-1.8827,-1.787,-1.8864,-1.9943,-2.0935,-2.0935,-2.0722,0.0,-1.9156,-1.799,-1.685,-1.554,-1.5304,-1.5478,-1.5478,-1.5257,-1.505,-1.505,-1.4856,-1.4603,-1.4315,-1.5105,-1.6182,-1.6924,-1.7089,-1.7581,-1.8816,-1.969,-1.9927,-1.9385,-1.9219,-1.8994,-1.8564,-1.8446,-1.8446,-1.8446,-1.8203,-1.7793,-1.7285,-1.7256,-1.6834,-1.5855,-1.586,-1.556,-1.4823,-1.4463,-1.4555,-1.5169,-1.4917,-1.4237,-1.3336,-1.4421,-1.4785,0.0,0.0,0.0,0.0,0.0,0.0,0.0,0.0,0.0,0.0,0.0,-0.3498,0.0,0.0,-1.5326,-1.9605,-2.0909,-2.2466,-2.5436,-2.7225,-2.8678,-2.9818,-3.0788,-3.2013,-3.3945,-3.4312,-3.4475,-3.4728,-3.4279,-3.4104,-3.4003,-3.3277,-3.3344,-3.4466,-3.3942,-3.404,-3.4713,-3.4173,-3.4035,-3.4299,-3.3759,-3.2832,-3.1615,-3.0703,-2.9545,-2.8045,-2.7418,-2.6641,-2.5886,-2.5486,-2.5066,-2.4534,-2.3516,-2.3135,-2.3135,-2.3135,-2.2069,-2.0602,-2.0223,-1.9808,-1.9579,-2.0215,-2.1212,-2.2217,-2.2217,-2.1926,-2.1262,-1.9579,-1.8378,-1.7239,-1.5438,-1.507,-1.5177,-1.5177,-1.4957,-1.4743,-1.4743,-1.4623,-1.4436,-1.4142,-1.5142,-1.6331,-1.7155,-1.7747,-1.855,-1.9599,-2.0062,-2.0078,-1.9658,-1.9414,-1.9121,-1.8682,-1.8562,-1.8555,-1.834,-1.7939,-1.7607,-1.7393,-1.7383,-1.6959,-1.5963,-1.5676,-1.5299,-1.4891,-1.4164,-1.4164,-1.4821,-1.4514,-1.3653,-1.2418,-1.283,-1.2745,0.0,0.0,0.0,0.0,0.0,0.0,0.0,0.0,0.6175,0.4036,0.2807,0.0191,-0.6207,-1.0993,-1.5378,-1.9925,-2.1262,-2.304,-2.6578,-2.8649,-3.0178,-3.1224,-3.2387,-3.3843,-3.5953,-3.61,-3.6199,-3.6254,-3.5989,-3.5143,-3.3752,-3.3684,-3.378,-3.3875,-3.382,-3.4093,-3.4713,-3.4173,-3.4123,-3.4562,-3.401,-3.3091,-3.1955,-3.1425,-3.0275,-2.8723,-2.8466,-2.7724,-2.6649,-2.5199,-2.4485,-2.4227,-2.3428,-2.3135,-2.3135,-2.3135,-2.2988,-2.2542,-2.0784,-2.0678,-2.1382,-2.1569,-2.2306,-2.3135,-2.3135,-2.2783,-2.1949,-1.9905,-1.8849,-1.7784,-1.5665,-1.5007,-1.4877,-1.4877,-1.4649,-1.4449,-1.4509,-1.4476,-1.4448,-1.4375,-1.5423,-1.6591,-1.7465,-1.855,-1.9599,-2.0489,-2.0264,-2.001,-1.9922,-1.9619,-1.9209,-1.8691,-1.8562,-1.8496,-1.8154,-1.7822,-1.7627,-1.7627,-1.7549,-1.7073,-1.608,-1.5487,-1.5092,-1.4879,-1.3954,-1.381,-1.4665,-1.4081,-1.3195,-1.1895,-1.1572,-1.0985,0.0944,0.0469,0.0475,0.0071,-0.0,0.0075,0.0,0.0,0.5764,0.6438,0.3221,-0.0832,-0.4529,-0.9742,-1.4862,-1.9622,-2.3133,-2.6177,-2.8994,-3.2255,-3.4616,-3.5149,-3.5433,-3.6692,-3.9149,-3.9353,-3.8935,-3.7913,-3.7769,-3.7294,-3.604,-3.4945,-3.4571,-3.5264,-3.4144,-3.389,-3.4726,-3.4173,-3.3935,-3.3985,-3.3432,-3.2524,-3.1306,-3.1247,-3.0551,-2.9284,-2.803,-2.7269,-2.6689,-2.4246,-2.3565,-2.3988,-2.333,-2.3135,-2.3135,-2.3135,-2.2413,-2.1596,-2.2375,-2.2101,-2.148,-2.258,-2.296,-2.3135,-2.3135,-2.2588,-2.1684,-2.0446,-1.8981,-1.7535,-1.5966,-1.512,-1.4569,-1.4569,-1.4349,-1.4208,-1.4469,-1.4315,-1.4453,-1.5304,-1.6386,-1.7546,-1.8638,-1.9678,-2.0479,-2.0566,-2.0527,-2.0352,-1.9961,-1.9873,-1.9531,-1.8721,-1.8562,-1.8553,-1.8574,-1.8525,-1.8496,-1.8496,-1.8144,-1.7503,-1.6564,-1.5703,-1.4807,-1.3882,-1.2952,-1.2519,-1.2586,-1.2553,-1.1682,-0.9983,-0.9958,-1.0013,0.0861,-0.0,0.0,0.0,-0.0,-0.0,-0.0,0.1151,0.2399,0.2885,-0.1134,-0.4607,-0.4625,-0.9152,-1.4395,0.0,-2.2383,-2.5557,-2.8653,-3.2521,-3.5281,-3.567,-3.7117,-3.8419,-3.9207,-3.9702,-3.9702,-3.9207,-3.9149,-3.8917,-3.8482,-3.7558,-3.7256,-3.7515,-3.6678,-3.6547,-3.723,-3.699,-3.687,-3.6857,-3.6284,-3.5201,-3.3728,-3.3424,-3.2413,-3.0787,-2.927,-2.7876,-2.6507,-2.4442,-2.3536,-2.3408,-2.3213,-2.3135,-2.3135,-2.3135,-2.2775,-2.2403,-2.295,-2.2775,-2.2403,-2.295,-2.3135,-2.3135,-2.3135,-2.2549,-2.1617,-2.055,-1.8924,-1.7203,-1.5982,-1.4993,-1.4269,-1.4269,-1.4175,-1.4122,-1.4242,-1.4663,-1.5137,-1.5621,-1.7082,-1.847,-1.8957,-1.9923,-2.0566,-2.0566,-2.0352,-2.0215,-2.0283,-2.0078,-1.9775,-1.9424,-1.8936,-1.874,-1.8994,-1.8555,-1.8379,-1.8623,-1.8242,-1.7794,-1.7432,-1.6018,-1.5021,-1.4593,-1.3091,-1.2305,-1.2305,-1.2478,-1.1827,-1.0469,-1.069,-1.0486,0.2323,0.0,0.0,-0.0,-0.0,-0.0,-0.0,-0.0,-0.0,-0.0,-0.425,-0.7434,-0.5835,-1.017,-1.5352,-1.9638,-2.2799,-2.6258,-3.0289,-3.4217,-3.6629,-3.6497,-3.8606,-3.9888,-3.9379,-3.9956,-4.0209,-3.9829,-3.9831,-3.9645,-3.9388,-3.8946,-3.8711,-3.8697,-3.8367,-3.8353,-3.8782,-3.8782,-3.8782,-3.8782,-3.809,-3.7153,-3.6042,-3.508,-3.3848,-3.2209,-3.1015,-2.9304,-2.7186,-2.4774,-2.3467,-2.3135,-2.3135,-2.3135,-2.3135,-2.3135,-2.3135,-2.3135,-2.3135,-2.3135,-2.3135,-2.3135,-2.3135,-2.3135,-2.3135,-2.2637,-2.1874,-2.1072,-1.9296,-1.7383,-1.6635,-1.5403,-1.4309,-1.4222,-1.4208,-1.4182,-1.4108,-1.4734,-1.5462,-1.6026,-1.7415,-1.8718,-1.9362,-2.0089,-2.0566,-2.0566,-2.0303,-2.0215,-2.0527,-2.0078,-1.9785,-1.9902,-1.9258,-1.8994,-1.9424,-1.8789,-1.8545,-1.8965,-1.8369,-1.8057,-1.8174,-1.6491,-1.5446,-1.5234,-1.352,-1.2592,-1.2305,-1.2518,-1.212,-1.1022,-1.1213,-1.0776,0.5487,0.2843,-0.0,-0.0,-0.0,-0.0,-0.0,-0.0,-0.0,-0.0,-0.4311,-0.802,-0.796,-1.3059,-1.8469,-2.2233,-2.5711,-2.997,-3.5787,-3.8945,-4.0023,-3.8498,-4.011,-4.11,0.0,-4.098,-4.0849,-3.9664,-3.9599,-3.9102,-3.802,-3.7923,-3.7993,-3.7993,-3.809,-3.8173,-3.8242,-3.8242,-3.8242,-3.8242,-3.755,-3.7164,-3.7137,-3.5492,-3.4095,-3.3043,-3.3043,-3.1736,-2.9317,-2.4902,-2.3163,-2.3135,-2.3135,-2.3135,-2.3135,-2.3135,-2.3135,-2.3135,-2.3135,-2.3135,-2.3135,-2.3135,-2.3135,-2.3135,-2.3135,-2.2832,-2.249,-2.2405,-2.0503,-1.8382,-1.8296,-1.6668,-1.4863,-1.4576,-1.4502,-1.4429,-1.4148,-1.4173,-1.4741,-1.6854,-1.7342,-1.806,-2.0157,-2.0566,-2.0566,-2.0566,-2.0557,-2.0547,-2.0566,-1.9824,-1.9463,-1.9873,-1.9531,-1.9443,-1.9853,-1.9502,-1.9424,-1.9853,-1.8701,-1.8193,-1.8603,-1.7274,-1.6149,-1.5234,-1.4171,-1.3237,-1.2305,-1.2311,-1.1853,-1.1022,-1.1028,-1.0532,0.5987,0.4971,0.3705,0.2661,0.1174,-0.0,-0.0,-0.0,-0.0,-0.0,-0.1435,-0.3612,-0.6551,-1.1184,-1.6366,-2.1781,-2.594,-3.0812,-3.7888,-4.092,-4.1636,-3.9295,-4.0426,0.0,0.0,0.0,0.0,-4.0795,-4.0808,-4.0812,-4.0908,-4.0923,-4.0923,-4.0923,-4.0938,-4.0733,-4.0295,-4.0798,-4.0798,-4.0295,-3.891,-3.7662,-3.6502,-3.4875,-3.3731,-3.3043,-3.2571,-3.0977,-2.8464,-2.6239,-2.444,-2.3137,-2.3137,-2.3113,-2.3135,-2.3135,-2.3135,-2.3135,-2.3135,-2.3135,-2.3135,-2.3135,-2.3135,-2.3135,-2.3135,-2.2842,-2.251,-2.251,-2.1137,-1.9434,-1.8587,-1.7117,-1.5648,-1.471,-1.4369,-1.4208,-1.4108,-1.5228,-1.6445,-1.718,-1.847,-1.9756,-2.0479,-2.0566,-2.0566,-2.0566,-2.0566,-2.0566,-2.0566,-2.0312,-2.0185,-2.0332,-1.9707,-1.958,-2.0283,-1.9434,-1.916,-1.9863,-1.9248,-1.8789,-1.8643,-1.7552,-1.6705,-1.6149,-1.4522,-1.3528,-1.3237,-1.2592,-1.2129,-1.184,-1.184,-1.1734,0.6198,0.6084,0.5822,0.4826,0.3455,0.216,0.1432,0.1179,0.0913,0.0184,-0.0179,-0.1315,-0.4632,-0.8304,-1.3127,-2.0081,-2.4259,-3.0003,-3.973,-4.1565,-4.162,-4.0895,-4.0755,0.0,0.0,0.0,0.0,-4.0694,-4.0695,-4.0965,-4.1624,-4.1444,-4.1534,-4.1998,-4.1788,-4.1564,-4.1384,-4.1803,-4.1683,-4.1025,-3.9946,-3.8265,-3.6184,-3.4963,-3.3695,-3.2446,-3.2384,-3.0964,-2.8656,-2.7952,-2.6196,-2.3849,-2.3358,-2.309,-2.3135,-2.3135,-2.3135,-2.3135,-2.3135,-2.3135,-2.3135,-2.3135,-2.3135,-2.3135,-2.3135,-2.2949,-2.2734,-2.2734,-2.1721,-2.0277,-1.9154,-1.7739,-1.6329,-1.4953,-1.4456,-1.4294,-1.4594,-1.5794,-1.6927,-1.7738,-1.9036,-2.0157,-2.0557,-2.0566,-2.0566,-2.0566,-2.0566,-2.0566,-2.0566,-2.043,-2.0391,-2.0547,-1.9795,-1.9639,-2.0488,-1.9521,-1.9228,-2.0098,-1.9609,-1.9228,-1.9092,-1.8209,-1.742,-1.6863,-1.5158,-1.4027,-1.3673,-1.2732,-1.2305,-1.2305,-1.2305,-1.2305,0.6261,0.6235,0.639,0.6388,0.6542,0.6173,0.4214,0.3482,0.2691,0.0687,-0.0338,-0.1245,0.0,0.0,-0.9334,-1.7459,-2.124,-2.7777,-4.121,-4.123,-4.0708,0.0,0.0,0.0,0.0,0.0,0.0,-3.9499,0.0,-3.9768,-4.0457,-3.9903,-4.0127,-4.1339,-4.0771,-4.0711,-4.1265,-4.128,-4.0995,-4.0397,-4.0337,-3.8833,-3.6129,-3.5626,-3.3913,-3.1447,-3.2529,-3.1782,-2.9861,-2.9825,-2.8126,-2.5444,-2.3808,-2.3166,-2.3115,-2.3135,-2.3135,-2.3135,-2.3135,-2.3135,-2.3135,-2.3135,-2.3135,-2.3135,-2.3135,-2.3135,-2.3135,-2.3135,-2.2217,-2.1025,-1.9852,-1.8395,-1.6794,-1.5376,-1.4825,-1.4774,-1.5529,-1.5794,-1.6535,-1.8638,-1.9036,-1.9441,-2.0401,-2.0566,-2.0566,-2.0566,-2.0566,-2.0566,-2.0566,-2.0205,-2.0107,-2.0518,-1.9814,-1.9658,-2.0498,-1.9795,-1.9678,-2.0518,-1.9805,-1.9521,-1.9902,-1.9141,-1.8256,-1.736,-1.5951,-1.4768,-1.384,-1.2813,-1.2372,-1.2372,-1.2372,-1.2372,0.788,0.7598,0.7752,0.7696,0.706,0.6286,0.577,0.5516,0.5317,0.4781,0.2102,-0.0754,0.0,0.0,0.0,-1.5965,-2.0524,0.0,-3.8735,-4.3936,0.0,-4.0863,0.0,-4.1953,-4.114,-4.1204,0.0,0.0,-4.0157,-4.0651,-4.1803,-4.1698,-4.1534,-4.1384,-4.122,-4.0741,-3.9933,-3.9918,-4.0083,-4.0382,-3.9379,-3.7725,-3.5612,-3.518,-3.3725,-3.1392,-3.0867,-3.0599,-3.0561,-3.0019,-2.9395,-2.8443,-2.5788,-2.4095,-2.3127,-2.3134,-2.3135,-2.3135,-2.3135,-2.3135,-2.3135,-2.3135,-2.3135,-2.3135,-2.3135,-2.3135,-2.3135,-2.3135,-2.2217,-2.1025,-1.9852,-1.8213,-1.661,-1.5328,-1.5413,-1.5845,-1.5688,-1.7203,-1.8722,-1.8931,-1.9678,-2.0245,-2.0557,-2.0566,-2.0566,-2.0566,-2.0566,-2.0566,-2.0566,-2.0469,-2.0439,-2.0557,-2.0078,-1.9971,-2.0518,-2.0068,-1.998,-2.0527,-2.0361,-2.0146,-1.9922,-1.9707,-1.9296,-1.8759,-1.6701,-1.5486,-1.5267,-1.4003,-1.331,-1.331,-1.331,-1.331,0.784,0.7422,0.7658,0.8458,0.7489,0.6291,0.6304,0.6155,0.619,0.66,0.4579,0.0,-0.1835,0.0,0.0,0.0,0.0,0.0,-4.0642,-4.4789,-4.5386,0.0,-4.1538,0.0,-4.077,-4.113,-4.125,0.0,-4.0561,-4.098,-4.2374,-4.2087,-4.1758,-4.1384,-4.11,-4.0457,-3.9424,-3.9125,-3.9155,-3.9499,-3.8452,-3.6895,-3.4989,-3.4492,-3.3211,-3.114,0.0,-2.9993,-3.0372,-2.9942,-2.9386,-2.8643,-2.627,-2.4849,-2.4016,-2.3337,-2.3135,-2.3135,-2.3135,-2.3135,-2.3135,-2.3135,-2.3135,-2.3135,-2.3135,-2.3135,-2.3135,-2.3135,-2.2589,-2.1667,-1.9943,-1.8628,-1.7513,-1.6289,-1.6213,-1.6768,-1.7503,-1.8789,-1.9843,-1.9953,-2.0301,-2.0566,-2.0566,-2.0566,-2.0566,-2.0566,-2.0566,-2.0566,-2.0566,-2.0566,-2.0566,-2.0566,-2.0176,-2.0088,-2.0527,-2.0166,-2.0098,-2.0537,-2.0566,-2.0449,-2.0215,-2.0019,-1.9805,-1.957,-1.746,-1.6439,-1.6439,-1.5049,-1.4378,-1.4386,-1.3882,-1.3673,0.7309,0.6988,0.7431,0.8894,0.7806,0.619,0.5667,0.5497,0.5577,0.6033,0.0,0.3806,-0.1742,-1.2834,-1.9443,-1.4057,0.0,-4.0623,-4.4125,-4.459,-4.3889,-4.2055,-4.1535,-4.1195,-4.0756,-4.074,-4.0829,-4.1235,-4.0726,-4.098,-4.2374,-4.1818,-4.1429,-4.125,-4.0606,-3.9948,-3.929,-3.8691,-3.8347,-3.8257,-3.7599,-3.6225,-3.4264,-3.3615,-3.2386,-3.0741,0.0,0.0,-2.9792,-2.9792,-2.9057,-2.777,-2.6285,-2.5583,-2.5232,-2.3927,-2.3319,-2.3135,-2.3135,-2.3135,-2.3135,-2.3135,-2.3135,-2.3135,-2.3135,-2.3135,-2.3135,-2.3135,-2.2862,-2.2227,-2.0215,-1.9314,-1.8596,-1.7694,-1.7382,-1.785,-1.9782,-2.0243,-2.0541,-2.1057,-2.0869,-2.0566,-2.0566,-2.0566,-2.0566,-2.0566,-2.0566,-2.0566,-2.0566,-2.0566,-2.0566,-2.0566,-2.0225,-2.0156,-2.0537,-2.0215,-2.0166,-2.0537,-2.0566,-2.0566,-2.0566,-2.0205,-2.0,-2.0,-1.8193,-1.7261,-1.7261,-1.6014,-1.5376,-1.5376,-1.4378,-1.389,0.8827,0.9859,1.0965,0.9654,0.7819,0.5474,0.2282,0.2608,0.0,0.0,0.1331,-0.0062,-0.4882,-0.8737,-1.1854,-1.3735,0.0,0.0,0.0,0.0,-4.4437,0.0,0.0,0.0,0.0,0.0,0.0,0.0,0.0,0.0,-4.2374,-4.2252,-4.1698,-4.0606,-3.9933,-3.926,-3.8571,-3.8452,-3.8123,-3.7569,-3.6941,-3.5667,-3.3702,-3.2557,-3.1262,-2.9955,0.0,0.0,-2.9792,-2.9792,-2.9611,-2.9328,-2.8128,-2.6723,-2.5341,-2.5094,-2.4217,-2.3135,-2.3135,-2.3135,-2.3135,-2.3135,-2.3135,-2.3135,-2.3135,-2.3135,-2.3135,-2.3135,-2.1676,-2.0223,-2.0845,-1.9297,-1.7694,-1.8596,-1.9519,-2.0164,-2.0183,-2.0641,-2.1067,-2.117,-2.0869,-2.0566,-2.0566,-2.0566,-2.0566,-2.0566,-2.0566,-2.0566,-2.0566,-2.0566,-2.0566,-2.0566,-2.0498,-2.0478,-2.0557,-2.0498,-2.0478,-2.0557,-2.0566,-2.0566,-2.0566,-2.0498,-2.0449,-2.0449,-1.8695,-1.775,-1.775,-1.6857,-1.6349,-1.6349,-1.5367,-1.495,0.8078,0.8422,0.8389,0.5229,0.3756,0.2161,-0.1271,0.0,0.0,0.0,-0.2236,-0.3104,-0.6321,-0.9917,0.0,-1.3237,-2.3573,0.0,0.0,0.0,0.0,0.0,0.0,0.0,0.0,0.0,0.0,0.0,0.0,0.0,-4.1803,-4.1534,-4.1055,-4.0427,-3.9768,-3.9095,-3.8407,-3.8048,-3.7554,-3.6926,-3.6282,-3.4942,-3.3093,-3.283,-3.1649,-2.9792,0.0,0.0,-2.9792,-2.9792,-2.9792,-2.9624,-2.7947,-2.6964,-2.6329,-2.4786,-2.3764,-2.3135,-2.3135,-2.3135,-2.3135,-2.3135,-2.3135,-2.3135,-2.3135,-2.3135,-2.295,-2.2073,-2.098,-2.0,-1.9579,-1.8902,-1.8592,-1.9151,-2.0669,-2.1957,-2.1759,-2.1669,-2.1572,-2.1572,-2.1025,-2.0566,-2.0566,-2.0566,-2.0566,-2.0566,-2.0566,-2.0566,-2.0566,-2.0566,-2.0566,-2.0566,-2.0566,-2.0566,-2.0566,-2.0566,-2.0566,-2.0566,-2.0566,-2.0566,-2.0566,-2.0079,-1.9766,-1.9766,-1.8696,-1.8082,-1.8082,-1.7784,-1.7385,-1.6892,-1.5876,-1.5154,0.715,0.6518,0.5056,-0.0073,-0.1824,-0.2632,-0.4132,-0.4513,0.0,-0.4532,-0.4707,-0.5388,-0.7255,-1.1597,-1.4489,0.0,-2.0941,-2.8719,0.0,0.0,0.0,0.0,0.0,0.0,0.0,0.0,0.0,0.0,0.0,0.0,0.0,-4.0681,-4.0337,-4.0187,-3.9544,-3.8871,-3.8182,-3.7539,-3.6896,-3.6267,-3.5532,-3.4259,-3.2607,-3.2982,-3.1964,-2.9792,0.0,0.0,0.0,-2.9792,-2.9624,-2.9287,-2.7545,-2.6914,-2.6729,-2.4399,-2.3406,-2.3135,-2.3135,-2.3135,-2.3135,-2.3135,-2.3135,-2.3057,-2.3115,-2.3125,-2.2851,-2.1544,-2.0881,-2.0133,-1.8664,-1.8832,-1.9439,-2.0022,-2.1557,-2.2978,-2.2891,-2.2275,-2.1777,-2.1865,-2.1172,-2.0596,-2.0693,-2.0625,-2.0566,-2.0566,-2.0566,-2.0566,-2.0566,-2.0566,-2.0566,-2.0566,-2.0566,-2.0566,-2.0566,-2.0401,-2.0245,-2.0245,-2.0245,-2.0245,-2.0245,-1.9441,-1.9,-1.891,-1.8202,-1.7799,-1.7787,-1.7833,-1.7481,-1.6759,-1.5657,-1.4785,0.7206,0.6514,0.4375,-0.372,-0.7683,-0.8709,-0.5254,0.0,-0.4541,-0.4717,-0.5308,-0.6342,-0.8218,-1.0368,-1.2761,-1.54,-2.0604,-2.6413,0.0,0.0,0.0,0.0,0.0,0.0,0.0,0.0,0.0,0.0,0.0,0.0,0.0,-4.0427,-4.0127,-3.9529,-3.8841,-3.8167,-3.7509,-3.6881,-3.6237,-3.5594,-3.4572,-3.3602,-3.2607,-3.2077,-3.1153,-2.9792,0.0,0.0,0.0,-2.9792,-2.9197,-2.8255,-2.8004,-2.6789,-2.5084,-2.5179,-2.4303,-2.3135,-2.3135,-2.3135,-2.3135,-2.3135,-2.3135,-2.3086,-2.3123,-2.3102,-2.3051,-2.2919,-2.134,-1.9736,-2.0271,-1.943,-1.9069,-2.1643,-2.2388,-2.2471,-2.209,-2.1631,-2.1416,-2.1807,-2.1172,-2.0693,-2.1103,-2.083,-2.0566,-2.0566,-2.0566,-2.0566,-2.0566,-2.0566,-2.0566,-2.0566,-2.0566,-2.0566,-2.0566,-1.9687,-1.9125,-1.9125,-1.9125,-1.9125,-1.9125,-1.9036,-1.8873,-1.8579,-1.7157,-1.6271,-1.6012,-1.569,-1.5497,-1.5355,-1.4361,-1.3863,0.3128,0.2443,0.0857,-0.6957,-0.9198,-0.9063,-0.7465,0.0,-0.6379,-0.6629,-0.7616,-0.8953,-1.0379,-1.224,-1.432,-1.6631,-2.0474,-2.4385,-2.7827,0.0,0.0,0.0,0.0,0.0,0.0,0.0,0.0,0.0,0.0,0.0,0.0,-3.9813,-3.9499,-3.8826,-3.8542,-3.7898,-3.6866,-3.6611,-3.6148,-3.5504,-3.4449,-3.3503,-3.2612,-3.1973,-3.1014,-2.9792,0.0,0.0,0.0,-2.9792,-2.9106,-2.8016,-2.736,-2.6202,-2.4713,-2.4176,-2.359,-2.3135,-2.3135,-2.3135,-2.3135,-2.3135,-2.3135,-2.3067,-2.3076,-2.1042,-1.8702,-1.8747,-1.8026,-1.7559,-1.8924,-1.9479,-2.0219,-2.2083,-2.2327,-2.2136,-2.2266,-2.1924,-2.1758,-2.2178,-2.1792,-2.1399,-2.1621,-2.1484,-2.1357,-2.1357,-2.1357,-2.126,-2.1006,-2.0967,-2.0869,-2.0596,-2.0566,-2.0566,-2.0566,-1.9599,-1.9036,-1.9036,-1.839,-1.7989,-1.7989,-1.7334,-1.6831,-1.6561,-1.5937,-1.5545,-1.5192,-1.5438,-1.5267,-1.4691,-1.4266,-1.3673,0.0067,-0.1707,-0.3639,-0.9239,-0.9681,-0.8841,0.0,0.0,-0.8226,-0.8595,-0.9778,-1.1115,-1.2315,-1.4346,-1.6227,-1.7556,-2.0848,-2.3688,-2.4848,-2.9281,0.0,0.0,0.0,0.0,0.0,0.0,0.0,0.0,0.0,0.0,0.0,-3.871,-3.8691,-3.8407,-3.8018,-3.7389,-3.6492,-3.6297,-3.5968,-3.5489,-3.4222,-3.3254,-3.2569,-3.1559,-3.0651,0.0,0.0,0.0,0.0,-2.9792,-2.8949,-2.7522,-2.6801,-2.5641,-2.4211,-2.3387,-2.3135,-2.3135,-2.3135,-2.3135,-2.3135,-2.3135,-2.3135,-2.3135,-2.3135,-2.0722,-1.7632,-1.6189,-1.6835,-1.8214,-1.9396,-2.0569,-2.1584,-2.2359,-2.2308,-2.2126,-2.2324,-2.2124,-2.2016,-2.2422,-2.2165,-2.1916,-2.209,-2.1963,-2.1885,-2.1885,-2.1885,-2.1728,-2.1289,-2.123,-2.1064,-2.0615,-2.0351,-2.0261,-2.0261,-1.9188,-1.8442,-1.8134,-1.731,-1.6846,-1.6846,-1.6108,-1.571,-1.5769,-1.5351,-1.5035,-1.4794,-1.5024,-1.4719,-1.3938,-1.3693,-1.3283,-0.0702,-0.5122,-0.9034,-1.0265,-0.9688,-0.8934,0.0,-0.9659,-0.9715,-1.028,-1.1261,-1.2462,-1.3727,-1.617,-1.8073,-1.8336,-2.1931,-2.4748,-2.4966,0.0,0.0,0.0,0.0,0.0,0.0,0.0,0.0,0.0,0.0,0.0,0.0,0.0,-3.7719,-3.8362,-3.7165,-3.6492,-3.6492,-3.5833,-3.5519,-3.5504,-3.3507,-3.2624,-3.2581,-3.07,0.0,0.0,0.0,0.0,0.0,-2.9792,-2.8462,-2.6483,-2.6483,-2.5147,-2.3135,-2.3135,-2.3135,-2.3135,-2.3135,-2.3135,-2.3135,-2.3135,-2.3135,-2.3135,-2.3135,-2.3026,-2.2039,-1.7137,-1.929,-2.3032,-2.3041,-2.3046,-2.294,-2.2607,-2.251,-2.2402,-2.1982,-2.1873,-2.1984,-2.2383,-2.2165,-2.2003,-2.2471,-2.2158,-2.1885,-2.1885,-2.1885,-2.1728,-2.1289,-2.123,-2.1064,-2.0615,-1.9873,-1.9452,-1.9452,-1.8113,-1.699,-1.6152,-1.5875,-1.5696,-1.5696,-1.5703,-1.6102,-1.6851,-1.535,-1.4647,-1.4794,-1.4067,-1.341,-1.2815,-1.2445,-1.2305,-0.3064,-0.5831,-0.8221,-1.0697,-1.1461,-1.1768,-1.2051,-1.2233,-1.2456,-1.2604,-1.3912,-1.5431,-1.6798,-1.8578,-2.0003,-2.0552,-2.3272,-2.5966,0.0,0.0,0.0,0.0,0.0,0.0,0.0,0.0,0.0,0.0,0.0,0.0,0.0,0.0,-3.6402,-3.7075,-3.6701,-3.6267,-3.5818,-3.5609,-3.5165,-3.4454,-3.32,-3.2263,-3.1591,-3.0329,0.0,0.0,0.0,0.0,0.0,-2.9792,-2.8462,-2.6483,-2.6483,-2.5147,-2.3135,-2.3135,-2.3135,-2.3135,-2.3135,-2.3135,-2.3135,-2.3135,-2.3135,-2.3135,-2.3135,-2.3124,-2.2805,-2.1195,-2.1514,-2.2397,-2.294,-2.2464,-2.1953,-2.2402,-2.2058,-2.1762,-2.2242,-2.2288,-2.2436,-2.2794,-2.2794,-2.2775,-2.293,-2.2832,-2.2744,-2.2744,-2.2744,-2.2588,-2.2158,-2.2109,-2.1943,-2.1514,-2.0986,-2.0192,-1.9245,-1.754,-1.6316,-1.586,-1.5027,-1.4573,-1.4573,-1.5296,-1.5703,-1.5769,-1.5116,-1.4689,-1.4539,-1.3297,-1.264,-1.2438,-1.2345,-1.2305,-0.6262,-0.7125,-0.8513,-1.1914,-1.3784,-1.4592,-1.4075,-1.443,-1.4939,-1.5054,-1.6623,-1.8248,-1.9152,-2.0422,-2.161,-2.2311,-2.4356,-2.6758,0.0,0.0,0.0,0.0,0.0,0.0,0.0,0.0,0.0,0.0,0.0,0.0,0.0,0.0,-3.5684,-3.6103,-3.6118,-3.5923,-3.5504,-3.5085,-3.4596,-3.3949,-3.2679,-3.1768,-3.1182,0.0,0.0,0.0,0.0,0.0,0.0,-2.9365,-2.8119,-2.6483,-2.6058,-2.4723,-2.3135,-2.3135,-2.3135,-2.3135,-2.3135,-2.3135,-2.3105,-2.2959,-2.3016,-2.3026,-2.2842,-2.2959,-2.3144,-2.3134,-2.2775,-2.2505,-2.2979,-2.2549,-2.209,-2.2627,-2.232,-2.2071,-2.2588,-2.2765,-2.2804,-2.3038,-2.3135,-2.3135,-2.3135,-2.3135,-2.3135,-2.3135,-2.3135,-2.2988,-2.2568,-2.251,-2.2353,-2.1934,-2.0921,-1.9869,-1.8734,-1.7367,-1.6186,-1.549,-1.462,-1.4088,-1.4088,-1.4734,-1.5151,-1.5305,-1.4889,-1.4764,-1.4758,-1.3307,-1.2585,-1.2472,-1.2472,-1.2532,0.0,-0.9194,-1.0161,-1.4037,-1.6438,-1.7456,-1.5879,-1.6386,0.0,-1.7543,-1.9255,-2.0673,-2.0735,-2.1676,-2.2783,-2.3558,-2.5183,0.0,0.0,0.0,0.0,0.0,0.0,0.0,0.0,0.0,0.0,0.0,0.0,0.0,0.0,0.0,0.0,-3.5504,-3.5504,-3.5489,-3.5379,-3.4484,-3.392,-3.3772,-3.2009,-3.1156,-3.11,0.0,0.0,0.0,0.0,0.0,0.0,-2.8536,-2.7371,-2.6289,-2.5146,-2.4084,-2.3096,-2.3125,-2.3135,-2.3135,-2.3135,-2.3135,-2.3066,-2.2627,-2.2764,-2.2934,-2.2428,-2.2646,-2.3013,-2.3006,-2.3024,-2.2992,-2.3018,-2.3047,-2.3018,-2.3076,-2.2999,-2.2989,-2.3028,-2.3047,-2.3135,-2.3135,-2.3135,-2.3135,-2.3135,-2.3135,-2.3135,-2.3135,-2.3135,-2.2998,-2.2607,-2.2444,-2.2269,-2.188,-2.0033,-1.863,-1.7978,-1.745,-1.6522,-1.5041,-1.4389,-1.4088,-1.4088,-1.4166,-1.4608,-1.5335,-1.4847,-1.4825,-1.518,-1.3805,-1.306,-1.2856,-1.2856,-1.2933,-1.3362,0.0,-1.505,-1.7271,-1.8976,-1.9847,0.0,-1.9156,-1.9747,-1.9825,-2.0722,-2.1568,-2.191,-2.2733,-2.3435,-2.3587,-2.5678,0.0,0.0,0.0,0.0,0.0,0.0,0.0,0.0,0.0,0.0,0.0,0.0,0.0,0.0,0.0,0.0,-3.5489,-3.5504,-3.5165,-3.4395,-3.4155,-3.3249,-3.1842,-3.1414,-3.0781,-3.0163,0.0,0.0,0.0,0.0,0.0,-2.905,-2.8082,-2.6718,-2.5306,-2.463,-2.3625,-2.2705,-2.3018,-2.3135,-2.3135,-2.3135,-2.3135,-2.3047,-2.2958,-2.2574,-2.224,-2.2257,-2.2254,-2.2112,-2.1826,-2.1824,-2.1919,-2.2494,-2.2178,-2.1846,-2.25,-2.2444,-2.2273,-2.2582,-2.2911,-2.3135,-2.3135,-2.3135,-2.3135,-2.3135,-2.3135,-2.3135,-2.3135,-2.3135,-2.3105,-2.2998,-2.1977,-2.1216,-2.1124,-1.9358,-1.792,-1.7156,-1.6162,-1.5221,-1.4394,-1.4162,-1.4088,-1.4088,-1.4894,-1.5426,-1.5584,-1.5262,-1.4634,-1.3698,-1.3398,-1.3173,-1.31,-1.31,-1.314,-1.6349,-1.7349,-1.9262,-2.2034,-2.2946,-2.2946,-2.1979,-2.2016,-2.2226,-2.2226,-2.2642,-2.3054,-2.3406,-2.4075,-2.4373,-2.3712,-2.5839,0.0,0.0,0.0,0.0,0.0,0.0,0.0,0.0,0.0,0.0,0.0,0.0,0.0,0.0,0.0,0.0,0.0,-3.4577,-3.445,-3.4243,-3.3432,-3.2305,-3.0992,-3.0421,-2.9907,-2.9402,0.0,0.0,0.0,0.0,0.0,-2.8474,-2.746,-2.6263,-2.4949,-2.4089,-2.3144,-2.2213,-2.2425,-2.2568,-2.2568,-2.2568,-2.2432,-2.2207,-2.2195,-2.192,-2.158,-2.1568,-2.1569,-2.1512,-2.1467,-2.163,-2.1957,-2.2389,-2.2152,-2.1958,-2.2393,-2.2337,-2.2242,-2.2447,-2.2795,-2.3086,-2.2891,-2.3008,-2.3076,-2.2881,-2.3018,-2.3076,-2.2881,-2.3018,-2.3066,-2.2881,-2.1661,-2.0889,-2.0889,-1.8793,-1.7196,-1.6632,-1.5476,-1.4669,-1.4309,-1.4162,-1.4088,-1.4088,-1.465,-1.4906,-1.4757,-1.4593,-1.4044,-1.3213,-1.3347,-1.3407,-1.3407,-1.3407,-1.3407,-1.8853,-2.044,-2.3362,-2.7221,-2.7198,-2.5994,-2.5017,-2.4808,-2.4726,-2.4583,-2.4589,-2.471,0.0,-2.5383,0.0,0.0,0.0,0.0,0.0,0.0,0.0,0.0,0.0,0.0,0.0,0.0,0.0,0.0,0.0,0.0,0.0,0.0,0.0,0.0,-3.3362,-3.3464,-3.3883,-3.2642,-3.1474,-3.031,-2.9202,-2.8699,-2.88,-2.88,0.0,0.0,0.0,0.0,-2.7911,-2.6803,-2.5738,-2.4626,-2.3414,-2.2473,-2.1781,-2.1841,-2.1885,-2.1885,-2.1885,-2.1602,-2.125,-2.1309,-2.124,-2.1074,-2.0762,-2.0858,-2.1167,-2.1234,-2.1719,-2.2187,-2.2283,-2.2291,-2.2281,-2.2295,-2.2373,-2.2412,-2.2412,-2.2744,-2.2959,-2.2666,-2.2842,-2.2949,-2.2656,-2.2852,-2.292,-2.2568,-2.2812,-2.2804,-2.2196,-2.1247,-2.0425,-2.019,-1.7937,-1.6255,-1.5989,-1.503,-1.4442,-1.4456,-1.4222,-1.4088,-1.4088,-1.4088,-1.3968,-1.3714,-1.3707,-1.3587,-1.3347,-1.3594,-1.3707,-1.3707,-1.3707,-1.3707,-1.9913,-2.3492,-2.8212,-3.1019,-2.9721,-2.7574,-2.6776,-2.7044,-2.7196,-2.6182,-2.5983,-2.581,0.0,-2.6209,-2.7833,0.0,0.0,0.0,0.0,0.0,0.0,0.0,0.0,0.0,0.0,0.0,0.0,0.0,0.0,0.0,0.0,0.0,0.0,0.0,0.0,-3.1946,-3.1035,-3.2522,-3.1516,-2.8106,-2.7896,-2.7963,-2.8235,-2.8235,-2.8235,0.0,0.0,-2.7846,-2.736,-2.617,-2.4946,-2.3549,-2.1756,-2.1109,-2.1345,-2.1758,-2.1885,-2.1885,-2.1885,-2.1602,-2.1299,-2.167,-2.1279,-2.0723,-2.1035,-2.0928,-2.0703,-2.0703,-2.1004,-2.1354,-2.1409,-2.1432,-2.1406,-2.1426,-2.1709,-2.1982,-2.1982,-2.2314,-2.2695,-2.2988,-2.2812,-2.2705,-2.2988,-2.2803,-2.2588,-2.2519,-2.2568,-2.2092,-2.0697,-1.9615,-1.846,-1.7118,-1.5468,-1.4528,-1.4402,-1.4247,-1.4168,-1.4155,-1.4115,-1.4088,-1.4088,-1.4088,-1.4068,-1.4021,-1.4021,-1.4001,-1.3955,-1.4001,-1.4021,-1.4021,-1.4021,-1.4021,-2.1999,-2.4405,-2.815,-3.2581,-3.2211,-3.0663,-3.0126,-2.9972,-2.9713,-2.8887,-2.8185,0.0,0.0,0.0,0.0,0.0,0.0,0.0,0.0,0.0,0.0,0.0,0.0,0.0,0.0,0.0,0.0,0.0,0.0,0.0,0.0,0.0,0.0,0.0,0.0,0.0,-2.8584,-2.8124,-2.751,-2.6775,-2.7208,-2.7373,-2.7231,-2.7519,-2.7657,-2.7645,0.0,-2.7067,-2.6866,-2.6311,-2.5055,-2.339,-2.2126,-2.132,-2.0898,-2.1094,-2.1172,-2.1172,-2.1172,-2.1045,-2.0908,-2.1113,-2.0898,-2.0605,-2.081,-2.0732,-2.0566,-2.0566,-2.086,-2.1174,-2.1174,-2.1224,-2.1174,-2.117,-2.136,-2.1479,-2.1553,-2.208,-2.25,-2.2471,-2.2676,-2.2842,-2.2812,-2.2822,-2.2695,-2.2246,-2.2363,-2.1824,-2.0135,-1.8961,-1.7806,-1.6445,-1.4993,-1.4088,-1.4088,-1.4088,-1.4088,-1.4088,-1.4088,-1.4088,-1.4088,-1.4088,-1.4088,-1.4088,-1.4088,-1.4088,-1.4088,-1.4088,-1.4088,-1.4088,-1.4088,-1.3915,-2.36,-2.4885,-2.7321,-3.1951,-3.2918,-3.2757,-3.2986,-3.2741,-3.2346,-3.1952,-3.0955,0.0,0.0,0.0,0.0,0.0,0.0,0.0,0.0,0.0,0.0,0.0,0.0,0.0,0.0,0.0,0.0,0.0,0.0,0.0,0.0,0.0,0.0,0.0,0.0,0.0,-2.6608,-2.4548,-2.4217,-2.5657,-2.6295,-2.6383,-2.6088,-2.6515,-2.6779,-2.6854,-2.6314,-2.6214,-2.6477,-2.6156,-2.5003,-2.3379,-2.2413,-2.1446,-2.0566,-2.0566,-2.0566,-2.0566,-2.0566,-2.0566,-2.0566,-2.0566,-2.0566,-2.0566,-2.0566,-2.0566,-2.0566,-2.0566,-2.0858,-2.1073,-2.1073,-2.1073,-2.1075,-2.1024,-2.1164,-2.1164,-2.1179,-2.1714,-2.2148,-2.1934,-2.2324,-2.2617,-2.2402,-2.2549,-2.2415,-2.1611,-2.1709,-2.1119,-1.9038,-1.8196,-1.7262,-1.5922,-1.4789,-1.4088,-1.4088,-1.4088,-1.4088,-1.4088,-1.4088,-1.4088,-1.4088,-1.4088,-1.4088,-1.4088,-1.4088,-1.4088,-1.4088,-1.4088,-1.4088,-1.4088,-1.4088,-1.3808,-2.3616,-2.5621,-2.7857,-2.8259,-2.9973,-3.2009,-3.3929,-3.4839,-3.5247,-3.5081,-3.4453,0.0,0.0,0.0,0.0,0.0,0.0,0.0,0.0,0.0,0.0,0.0,0.0,0.0,0.0,0.0,0.0,0.0,0.0,0.0,0.0,0.0,0.0,0.0,0.0,0.0,-2.5342,-2.4898,-2.4553,-2.4337,-2.4384,-2.4573,-2.4946,-2.4983,-2.5259,-2.5686,-2.5172,-2.5523,-2.6383,-2.5133,-2.4195,-2.3305,-2.1461,-2.0644,-2.0566,-2.0566,-2.0566,-2.0566,-2.0566,-2.0566,-2.0566,-2.0566,-2.0566,-2.0566,-2.0566,-2.0566,-2.0566,-2.0566,-2.0644,-2.0654,-2.0654,-2.0654,-2.0664,-2.0615,-2.0918,-2.1201,-2.124,-2.1289,-2.1435,-2.1816,-2.1611,-2.1494,-2.1865,-2.1621,-2.1058,-2.0252,-2.0147,-1.9236,-1.6645,-1.6624,-1.624,-1.4423,-1.4179,-1.4088,-1.4088,-1.4088,-1.4088,-1.4088,-1.4088,-1.4088,-1.4088,-1.4088,-1.4088,-1.4088,-1.4088,-1.4088,-1.4088,-1.4088,-1.4088,-1.4088,-1.4088,-1.3915,-2.5185,-2.8139,-3.0751,-3.0203,-3.1339,-3.3118,-3.5144,-3.6236,-3.659,-3.597,-3.5978,0.0,0.0,0.0,0.0,0.0,0.0,0.0,0.0,0.0,0.0,0.0,0.0,0.0,0.0,0.0,0.0,0.0,0.0,0.0,0.0,0.0,0.0,0.0,0.0,0.0,0.0,-2.4007,-2.3679,-2.3505,-2.4202,-2.4453,-2.4318,-2.4669,-2.4921,-2.5109,-2.4908,-2.5059,-2.5394,-2.516,-2.405,-2.24,-2.0812,-2.0193,-2.0195,-2.0469,-2.0566,-2.0566,-2.0566,-2.0566,-2.0566,-2.0566,-2.0566,-2.0566,-2.0566,-2.0566,-2.0566,-2.0566,-2.0566,-2.0566,-2.0566,-2.0566,-2.0566,-2.0566,-2.0693,-2.082,-2.082,-2.1035,-2.1279,-2.1445,-2.1562,-2.1689,-2.1855,-2.1748,-2.1428,-2.0803,-2.0191,-1.9029,-1.7087,-1.6408,-1.5565,-1.4271,-1.4088,-1.4088,-1.4088,-1.4088,-1.4088,-1.4088,-1.4088,-1.4088,-1.4088,-1.4088,-1.4088,-1.4088,-1.4088,-1.4088,-1.4088,-1.4088,-1.4088,-1.4082,-1.3901,-1.3748,-2.6144,-2.888,-3.1152,-3.0986,-3.2018,-3.365,-3.5805,-3.711,-3.7812,-3.7576,-3.7066,-3.6168,-3.4491,0.0,0.0,0.0,0.0,0.0,0.0,0.0,0.0,0.0,0.0,0.0,0.0,0.0,0.0,0.0,0.0,0.0,0.0,0.0,0.0,0.0,0.0,0.0,0.0,-2.2845,-2.2611,-2.2623,-2.3491,-2.3841,-2.374,-2.4117,-2.428,-2.424,-2.4267,-2.4494,-2.4768,-2.4579,-2.3325,-2.1482,-2.0481,-2.0034,-1.9951,-2.0254,-2.0449,-2.0566,-2.0566,-2.0566,-2.0566,-2.0566,-2.0566,-2.0566,-2.0566,-2.0566,-2.0566,-2.0566,-2.0566,-2.0566,-2.0566,-2.0566,-2.0566,-2.0566,-2.0566,-2.0566,-2.0566,-2.081,-2.1025,-2.1025,-2.1269,-2.1465,-2.1465,-2.1211,-2.0828,-2.017,-1.9206,-1.8029,-1.6633,-1.5777,-1.5,-1.4179,-1.4088,-1.4088,-1.4088,-1.4088,-1.4088,-1.4088,-1.4088,-1.4088,-1.4088,-1.4088,-1.4088,-1.4088,-1.4088,-1.4041,-1.3948,-1.3948,-1.3901,-1.3808,-1.3601,-1.3454,-2.6118,-2.73,-2.8244,-2.9579,-3.1292,-3.3275,-3.5734,-3.7533,-3.9043,-4.0326,-3.7932,-3.5148,-3.3694,0.0,0.0,0.0,0.0,0.0,0.0,0.0,0.0,0.0,0.0,0.0,0.0,0.0,0.0,0.0,0.0,0.0,0.0,0.0,0.0,0.0,0.0,0.0,0.0,-2.1493,-2.1493,-2.1493,-2.1843,-2.2393,-2.3065,-2.3078,-2.3131,-2.3108,-2.3094,-2.3766,-2.468,-2.3123,-2.1722,-2.0592,-2.0592,-2.0307,-1.9902,-1.9912,-2.0195,-2.0566,-2.0566,-2.0566,-2.0566,-2.0566,-2.0566,-2.0566,-2.0566,-2.0566,-2.0566,-2.0566,-2.0566,-2.0566,-2.0566,-2.0566,-2.0566,-2.0566,-2.0566,-2.0566,-2.0566,-2.0566,-2.0566,-2.0566,-2.0566,-2.0566,-2.0566,-1.9678,-1.8682,-1.7913,-1.6861,-1.5676,-1.4596,-1.4516,-1.4402,-1.4122,-1.4088,-1.4088,-1.4088,-1.4088,-1.4088,-1.4088,-1.4088,-1.4088,-1.4082,-1.4082,-1.4082,-1.4082,-1.4082,-1.3941,-1.3559,-1.3559,-1.3494,-1.3213,-1.3206,-1.3046,-2.5404,-2.7981,-3.0517,-3.0951,0.0,0.0,-3.5991,-3.711,-3.8072,0.0,-3.6357,-3.4083,-3.4167,0.0,0.0,0.0,0.0,0.0,0.0,0.0,0.0,0.0,0.0,0.0,0.0,0.0,0.0,0.0,0.0,0.0,0.0,0.0,0.0,0.0,0.0,0.0,0.0,0.0,-2.12,-2.1493,-2.1844,-2.221,-2.2573,-2.2962,-2.2915,-2.2546,-2.2952,-2.3113,-2.2942,-2.1682,-2.0958,-2.0533,-1.9592,-1.9298,-1.9512,-1.9805,-2.0195,-2.0566,-2.0566,-2.0566,-2.0566,-2.0566,-2.0353,-2.0149,-2.0459,-2.0353,-2.0149,-2.0547,-2.0566,-2.0566,-2.0566,-2.0566,-2.0566,-2.0566,-2.0566,-2.0566,-2.0566,-2.0566,-2.0566,-2.0566,-2.0001,-1.9441,-1.9441,-1.855,-1.77,-1.7482,-1.6562,-1.5398,-1.4372,-1.4215,-1.4182,-1.4095,-1.4088,-1.4088,-1.4088,-1.4088,-1.4088,-1.4088,-1.4088,-1.3995,-1.3781,-1.3774,-1.3774,-1.3774,-1.3774,-1.3734,-1.3559,-1.3559,-1.3494,-1.3206,-1.2986,-1.2953,-2.5176,-2.7908,-3.0586,-3.0955,-3.2913,-3.4973,-3.5841,0.0,0.0,0.0,0.0,-3.3795,0.0,0.0,0.0,0.0,0.0,0.0,0.0,0.0,0.0,0.0,0.0,0.0,0.0,0.0,0.0,0.0,0.0,0.0,0.0,0.0,0.0,0.0,0.0,0.0,0.0,0.0,0.0,-2.0828,-2.1041,-2.133,-2.1763,-2.2234,-2.2201,-2.1806,-2.2477,-2.2489,-2.194,-2.1726,-2.1101,-2.0237,-1.9603,-1.9253,-1.9062,-1.9307,-1.9785,-2.0293,-2.0148,-2.0168,-2.0293,-2.0148,-1.986,-1.9744,-2.0164,-2.0091,-2.0033,-2.0459,-2.0566,-2.0566,-2.0566,-2.0566,-2.0566,-2.0566,-2.0566,-2.0566,-2.0566,-2.0566,-2.0566,-2.0566,-1.9756,-1.9036,-1.9036,-1.7738,-1.6683,-1.6683,-1.5764,-1.4866,-1.4166,-1.4088,-1.4088,-1.4088,-1.4088,-1.4041,-1.3921,-1.3908,-1.3861,-1.3748,-1.3741,-1.3661,-1.348,-1.3499,-1.3559,-1.3559,-1.3559,-1.3559,-1.3559,-1.3559,-1.3434,-1.3019,-1.2909,-1.2626,-2.5281,-2.7304,-2.9265,-3.0043,-3.2304,0.0,-3.5303,-3.6756,-3.7576,-3.6429,0.0,0.0,0.0,0.0,0.0,0.0,0.0,0.0,0.0,0.0,0.0,0.0,0.0,0.0,0.0,0.0,0.0,0.0,0.0,0.0,0.0,0.0,0.0,0.0,0.0,0.0,0.0,0.0,-1.9121,0.0,-1.9713,-2.0076,-2.0721,-2.1272,-2.1281,-2.0946,-2.1781,-2.1918,-2.1609,-2.2618,-2.1842,-2.015,-2.0386,-1.9772,-1.8703,-1.8603,-1.9131,-1.9759,-1.9464,-1.9512,-1.9824,-1.9416,-1.9248,-1.9272,-1.9743,-1.9811,-1.9841,-2.0323,-2.0449,-2.0449,-2.0449,-2.0517,-2.0507,-2.0536,-2.0595,-2.0566,-2.0566,-2.0566,-2.0557,-2.0508,-1.9621,-1.8824,-1.8824,-1.6952,-1.5501,-1.553,-1.4699,-1.4048,-1.4082,-1.4088,-1.4088,-1.4088,-1.4088,-1.3968,-1.3667,-1.3559,-1.352,-1.3227,-1.3213,-1.32,-1.3166,-1.342,-1.3574,-1.3519,-1.3574,-1.3561,-1.3561,-1.3398,-1.3101,-1.2629,-1.2546,-1.1866,-2.514,-2.7366,0.0,-2.9765,-3.1859,-3.3965,-3.4389,-3.4781,-3.4822,-3.3942,0.0,0.0,0.0,0.0,0.0,0.0,0.0,0.0,0.0,0.0,0.0,0.0,0.0,0.0,0.0,0.0,0.0,0.0,0.0,0.0,0.0,0.0,0.0,0.0,0.0,0.0,-1.8555,-1.8113,-1.8113,0.0,-1.8828,-1.9119,-1.9447,-2.0853,-2.1281,-2.0909,-2.1129,-2.1441,-2.1895,-2.2167,-2.2274,-2.22,-2.0298,-1.9596,-1.9569,-1.8833,-1.8962,-1.9443,-1.9367,-1.9393,-1.9385,-1.9334,-1.9082,-1.8844,-1.931,-1.9163,-1.8982,-1.9468,-1.9561,-1.9561,-1.9561,-1.959,-1.9677,-1.9999,-2.0365,-2.0566,-2.0566,-2.0566,-2.0469,-2.0117,-1.8625,-1.7282,-1.7212,-1.5476,-1.4131,-1.4371,-1.3987,-1.383,-1.4048,-1.4088,-1.4088,-1.4088,-1.4088,-1.3968,-1.3667,-1.3559,-1.352,-1.3227,-1.3213,-1.31,-1.2859,-1.2906,-1.3053,-1.33,-1.3066,-1.2939,-1.2939,-1.2148,-1.1581,-1.1172,-1.0425,-0.9873,-2.5033,-2.7192,0.0,-3.0986,0.0,-3.3211,-3.3569,-3.3058,-3.2446,0.0,0.0,0.0,0.0,0.0,0.0,0.0,0.0,0.0,0.0,0.0,0.0,0.0,0.0,0.0,0.0,0.0,0.0,0.0,0.0,0.0,0.0,0.0,0.0,0.0,0.0,-1.8109,-1.8204,-1.7713,-1.7713,-1.8204,-1.8374,-1.8599,-1.8879,-2.0139,-2.0573,-2.0403,-2.0665,-2.0848,-2.0974,-2.1704,-2.1557,-2.0746,-2.043,-1.9649,-1.8647,-1.8417,-1.8566,-1.8971,-1.8753,-1.8802,-1.8932,-1.8703,-1.8528,-1.8378,-1.8839,-1.8761,-1.8664,-1.9204,-1.9334,-1.9334,-1.9334,-1.9324,-1.9264,-1.9005,-1.9606,-2.0168,-1.9932,-1.9872,-1.9612,-1.8834,-1.7355,-1.6316,-1.6236,-1.4892,-1.3848,-1.3904,-1.3884,-1.3861,-1.4062,-1.4088,-1.4015,-1.3917,-1.3975,-1.3848,-1.3267,-1.3353,-1.3247,-1.2806,-1.2906,-1.268,-1.2056,-1.2092,-1.2408,-1.2986,-1.2357,-1.2112,-1.2245,-1.1219,-1.0534,-1.0286,-0.9755,-0.9168,-2.4689,-2.6662,-2.9114,-3.176,-3.216,0.0,-3.2312,-3.1355,-3.0487,0.0,0.0,0.0,0.0,0.0,0.0,0.0,0.0,0.0,0.0,0.0,0.0,0.0,0.0,0.0,0.0,0.0,0.0,0.0,0.0,0.0,0.0,0.0,0.0,0.0,-1.7753,-1.7451,-1.7903,-1.7463,-1.7463,-1.7915,-1.8016,-1.8273,-1.8643,-1.9321,-1.9546,-1.9471,-2.0213,-2.0265,-1.9888,-2.1076,-2.0344,-1.8655,-2.02,-1.9446,-1.755,-1.7812,-1.8133,-1.8373,-1.8086,-1.8144,-1.8358,-1.8115,-1.793,-1.7998,-1.8378,-1.8476,-1.8564,-1.8947,-1.9104,-1.9104,-1.9104,-1.9104,-1.8863,-1.8003,-1.8637,-1.9288,-1.8671,-1.8558,-1.825,-1.7229,-1.6171,-1.5368,-1.5205,-1.4496,-1.3768,-1.3581,-1.3761,-1.3981,-1.3988,-1.4041,-1.3871,-1.3634,-1.3801,-1.3641,-1.2848,-1.2805,-1.2596,-1.2109,-1.2149,-1.1821,-1.0893,-1.101,-1.1492,-1.2209,-1.1319,-1.1036,-1.1288,-1.0242,-0.9667,-0.9335,-0.9179,-0.8544,-2.3794,0.0,-2.7804,0.0,-2.964,-2.9498,0.0,0.0,0.0,0.0,0.0,0.0,0.0,0.0,0.0,0.0,0.0,0.0,0.0,0.0,0.0,0.0,0.0,0.0,0.0,0.0,0.0,0.0,0.0,0.0,0.0,0.0,-1.734,-1.6853,-1.6703,-1.6672,-1.6748,-1.6672,-1.6672,-1.6748,-1.725,-1.7752,-1.8302,-1.8857,-1.8647,-1.798,-1.9321,-1.9876,-1.9787,-1.9812,-1.963,-1.9303,-1.8706,-1.8269,-1.7893,-1.758,-1.7512,-1.7579,-1.7872,-1.7836,-1.7581,-1.789,-1.7745,-1.7561,-1.793,-1.8095,-1.8105,-1.8183,-1.8193,-1.8193,-1.8193,-1.8193,-1.8027,-1.7437,-1.7422,-1.7442,-1.6843,-1.6759,-1.6581,-1.6121,-1.5098,-1.4136,-1.3299,-1.3074,-1.3077,-1.322,-1.3259,-1.3398,-1.3669,-1.3688,-1.3685,-1.3633,-1.3418,-1.3167,-1.2853,-1.1982,-1.1361,-1.1037,-1.0223,-0.9721,-0.957,-0.9596,-0.9677,-0.9797,-0.9751,-0.9694,-0.9616,-0.8621,-0.8073,-0.8047,-0.7134,-0.6662,-2.3836,-2.5025,-2.6293,0.0,-2.819,-2.8118,-2.8118,0.0,0.0,0.0,0.0,0.0,0.0,0.0,0.0,0.0,0.0,0.0,0.0,0.0,0.0,0.0,0.0,0.0,0.0,0.0,0.0,0.0,0.0,0.0,0.0,-1.7146,-1.6752,-1.6522,-1.6522,0.0,-1.6522,-1.6522,-1.6522,-1.6522,-1.6773,-1.7024,-1.7275,-1.784,-1.8232,-1.8448,-1.9083,-1.917,-1.8902,-1.9018,-1.8601,-1.7958,-1.7473,-1.7134,-1.697,-1.6957,-1.7042,-1.7006,-1.7187,-1.7154,-1.7069,-1.7211,-1.7145,-1.7079,-1.7556,-1.7674,-1.7705,-1.7939,-1.8008,-1.7862,-1.7354,-1.7217,-1.6872,-1.5551,-1.524,-1.5009,-1.4275,-1.482,-1.528,-1.4461,-1.3993,-1.3488,-1.2925,-1.2886,-1.3053,-1.3186,-1.3333,-1.3552,-1.3814,-1.3697,-1.358,-1.3627,-1.3328,-1.2822,-1.196,-1.1432,-1.0878,-1.0019,-0.9647,-0.9197,-0.847,-0.8788,-0.8573,-0.7638,-0.824,-0.8548,-0.8466,-0.748,-0.6945,-0.6949,-0.649,-0.6338,0.0,0.0,-2.4859,-2.6078,-2.6636,-2.6856,0.0,0.0,0.0,0.0,0.0,0.0,0.0,0.0,0.0,0.0,0.0,0.0,0.0,0.0,0.0,0.0,0.0,0.0,0.0,0.0,0.0,0.0,0.0,0.0,-1.7312,-1.6795,-1.6522,-1.6522,-1.6522,-1.6522,-1.6522,-1.6522,-1.6522,-1.6522,-1.6522,-1.6597,-1.6748,-1.7187,-1.784,-1.8618,-1.8756,-1.8505,-1.7994,-1.8179,-1.7643,-1.6791,-1.6469,-1.6173,-1.5957,-1.6396,-1.6548,-1.6553,-1.6635,-1.6635,-1.6578,-1.6685,-1.6628,-1.6631,-1.7111,-1.7074,-1.7023,-1.7369,-1.7301,-1.7002,-1.6426,-1.6219,-1.5816,-1.4117,-1.3708,-1.3455,-1.2519,-1.3311,-1.3949,-1.3128,-1.2979,-1.2906,-1.2672,-1.2826,-1.2979,-1.2979,-1.3227,-1.3507,-1.3754,-1.358,-1.3424,-1.3413,-1.2929,-1.2207,-1.1169,-1.0636,-0.9948,-0.8946,-0.8841,-0.8389,-0.7484,-0.7862,-0.7508,-0.6339,-0.7049,-0.7403,-0.7403,-0.6641,-0.6338,-0.6338,-0.6338,-0.6338,0.0,-2.2696,0.0,-2.3666,-2.4517,0.0,0.0,0.0,0.0,0.0,0.0,0.0,0.0,0.0,0.0,0.0,0.0,0.0,0.0,0.0,0.0,0.0,0.0,0.0,0.0,0.0,0.0,0.0,0.0,0.0,-1.7312,-1.6795,-1.6522,-1.6522,-1.6522,-1.6522,-1.6522,-1.6522,-1.6522,-1.6522,-1.6522,-1.681,-1.7338,-1.7363,-1.7413,-1.7501,-1.8028,-1.794,-1.741,-1.7062,-1.6841,-1.6727,-1.5796,-1.543,-1.5498,-1.5937,-1.6158,-1.6206,-1.6556,-1.6437,-1.6185,-1.6567,-1.6414,-1.6182,-1.6621,-1.622,-1.5633,-1.5957,-1.5446,-1.4933,-1.5177,-1.5251,-1.5016,-1.3924,-1.3708,-1.3455,-1.2519,-1.2399,-1.2419,-1.2345,-1.2351,-1.2345,-1.2325,-1.2338,-1.2351,-1.2351,-1.2599,-1.2832,-1.2875,-1.2889,-1.2814,-1.2818,-1.1724,-1.0924,-1.0822,-0.9094,-0.7983,-0.7862,-0.7003,-0.6423,-0.6416,-0.6437,-0.6373,-0.629,-0.6356,-0.6416,-0.6416,-0.6338,-0.6338,-0.6338,-0.6338,-0.6338,0.0,0.0,0.0,-2.2875,-2.3578,-2.4184,0.0,0.0,0.0,0.0,0.0,0.0,0.0,0.0,0.0,0.0,0.0,0.0,0.0,0.0,0.0,0.0,0.0,0.0,0.0,0.0,0.0,0.0,0.0,0.0,-1.6795,-1.6909,-1.6993,-1.6993,-1.7353,-1.7544,-1.7544,-1.7544,-1.7353,-1.6993,-1.6993,-1.694,-1.6823,-1.6823,-1.6823,-1.6835,-1.7036,-1.7011,-1.676,-1.6231,-1.5953,-1.5764,-1.5018,-1.4884,-1.5029,-1.5109,-1.538,-1.5673,-1.5812,-1.5753,-1.5683,-1.5822,-1.5762,-1.5732,-1.6172,-1.609,-1.5829,-1.5697,-1.5536,-1.5225,-1.4268,-1.4088,-1.4,-1.3011,-1.2799,-1.2732,-1.2372,-1.2305,-1.2305,-1.2305,-1.2305,-1.2305,-1.2305,-1.2305,-1.2365,-1.2559,-1.2755,-1.2832,-1.2994,-1.2326,-1.1878,-1.206,-1.0761,-0.9643,-0.9194,-0.8304,-0.7529,-0.685,-0.6479,-0.6338,-0.6338,-0.6419,-0.6373,-0.6284,-0.6424,-0.639,-0.6338,-0.6338,-0.6338,-0.6338,-0.6338,-0.6338,-2.041,0.0,0.0,0.0,0.0,-2.3595,0.0,0.0,0.0,0.0,0.0,0.0,0.0,0.0,0.0,0.0,0.0,0.0,0.0,0.0,0.0,0.0,0.0,0.0,0.0,0.0,0.0,0.0,0.0,0.0,-1.6522,-1.6993,-1.7394,-1.7544,-1.7907,-1.8106,-1.8106,-1.8106,-1.7907,-1.7585,-1.7394,-1.7118,-1.6752,-1.6595,-1.6522,-1.6522,-1.6522,-1.6522,-1.6436,-1.5778,-1.5405,-1.5255,-1.4746,-1.4633,-1.4805,-1.4865,-1.5099,-1.541,-1.541,-1.541,-1.541,-1.541,-1.5508,-1.5644,-1.5633,-1.5515,-1.5314,-1.4833,-1.4656,-1.4285,-1.3226,-1.3086,-1.3098,-1.2445,-1.2305,-1.2305,-1.2305,-1.2305,-1.2305,-1.2305,-1.2305,-1.2305,-1.2305,-1.2305,-1.2291,-1.2181,-1.2132,-1.205,-1.193,-1.1134,-1.0617,-1.0846,-0.9606,-0.8566,-0.8099,-0.7626,-0.7061,-0.6338,-0.6338,-0.6338,-0.6338,-0.6419,-0.6419,-0.6338,-0.639,-0.6393,-0.6338,-0.6308,-0.6332,-0.6332,-0.6393,-0.6341,0.0,0.0,0.0,0.0,0.0,0.0,0.0,0.0,0.0,0.0,0.0,0.0,0.0,0.0,0.0,0.0,0.0,0.0,0.0,0.0,0.0,0.0,0.0,0.0,0.0,0.0,0.0,0.0,0.0,-1.6522,-1.6522,-1.7034,-1.7585,-1.8145,-1.8145,-1.8145,-1.8145,-1.8145,-1.8145,-1.8145,-1.7585,-1.7312,-1.7271,-1.6752,-1.6522,-1.6522,-1.6522,-1.6522,-1.6417,-1.5625,-1.5296,-1.5251,-1.4861,-1.4736,-1.4795,-1.5205,-1.5371,-1.5391,-1.5391,-1.54,-1.541,-1.541,-1.5693,-1.5877,-1.4932,-1.4382,-1.3942,-1.3284,-1.253,-1.1969,-1.227,-1.2305,-1.2305,-1.2305,-1.2305,-1.2305,-1.2305,-1.2305,-1.2305,-1.2305,-1.2305,-1.2224,-1.2224,-1.2224,-1.1848,-1.0864,-1.0783,-1.0415,-0.9448,-0.9256,-0.9241,-0.9291,-0.8363,-0.7785,-0.7785,-0.6979,-0.6426,-0.6285,-0.643,-0.6419,-0.6338,-0.6338,-0.6338,-0.6338,-0.6338,-0.6338,-0.6338,-0.6403,-0.6474,-0.6478,-0.6486,-0.6396,-1.9938,0.0,0.0,0.0,0.0,0.0,0.0,0.0,0.0,0.0,0.0,0.0,0.0,0.0,0.0,0.0,0.0,0.0,0.0,0.0,0.0,0.0,0.0,0.0,0.0,0.0,0.0,0.0,-1.7213,-1.7076,-1.7076,-1.7947,-1.8688,-1.9244,-1.9244,-1.9244,-1.9244,-1.9244,-1.9043,-1.865,-1.8145,-1.7666,-1.7271,-1.6752,-1.6522,-1.6522,-1.6522,-1.6522,-1.6436,-1.5302,-1.4853,-1.4793,-1.379,-1.3594,-1.3877,-1.4076,-1.4508,-1.4951,-1.4875,-1.5079,-1.541,-1.541,-1.498,-1.4414,-1.4382,-1.3992,-1.3442,-1.2645,-1.2577,-1.269,-1.2412,-1.2305,-1.2305,-1.2305,-1.2305,-1.2305,-1.2305,-1.2305,-1.2305,-1.2305,-1.1694,-1.1236,-1.1236,-1.0645,-1.0051,-0.9744,-0.9744,-0.9599,-0.9372,-0.868,-0.8206,-0.825,-0.7318,-0.674,-0.674,-0.65,-0.6358,-0.6345,-0.6331,-0.6338,-0.6338,-0.6338,-0.6338,-0.6338,-0.6338,-0.6338,-0.6338,-0.6337,-0.6331,-0.6334,-0.4811,-0.407,-2.0668,-2.0978,-2.1579,0.0,0.0,0.0,0.0,-2.3346,0.0,0.0,0.0,0.0,0.0,0.0,0.0,0.0,0.0,0.0,0.0,0.0,0.0,0.0,0.0,0.0,0.0,0.0,0.0,0.0,-1.7655,-1.7747,-1.7947,-1.8574,-1.9169,-1.969,-1.969,-1.969,-1.969,-1.969,-1.953,-1.9207,-1.8458,-1.7947,-1.7626,-1.6837,-1.6522,-1.6522,-1.6522,-1.638,-1.6051,-1.5107,-1.4698,-1.4593,-1.3537,-1.3291,-1.3535,-1.3782,-1.4082,-1.4357,-1.4619,-1.4859,-1.5051,-1.4963,-1.4621,-1.4143,-1.3571,-1.3284,-1.3051,-1.2282,-1.2431,-1.2721,-1.2385,-1.2305,-1.2305,-1.2305,-1.2305,-1.2305,-1.2305,-1.2305,-1.215,-1.1774,-1.1236,-1.0634,-1.0265,-0.9669,-0.9145,-0.877,-0.8694,-0.8542,-0.8084,-0.7557,-0.7165,-0.721,-0.6626,-0.6338,-0.6338,-0.6338,-0.6324,-0.6322,-0.6368,-0.6342,-0.6338,-0.6338,-0.6338,-0.6338,-0.6338,-0.6268,-0.6274,-0.6284,-0.6431,-0.6629,-0.531,-0.3687,-2.1644,-2.1898,-2.2352,0.0,0.0,0.0,-2.3332,-2.2849,0.0,0.0,0.0,0.0,0.0,0.0,0.0,0.0,0.0,0.0,0.0,0.0,0.0,0.0,0.0,0.0,0.0,0.0,-1.8086,-1.817,-1.8249,-1.8482,-1.9029,-1.9103,-1.9339,-1.9818,-1.9782,-1.9782,-1.9782,-1.9711,-1.969,-1.969,-1.8612,-1.8106,-1.8066,-1.6993,-1.6522,-1.6522,-1.6423,-1.6095,-1.5543,-1.4869,-1.4606,-1.4512,-1.372,-1.3437,-1.3486,-1.3857,-1.3826,-1.3762,-1.4421,-1.4582,-1.4477,-1.4205,-1.4257,-1.4144,-1.2653,-1.2413,-1.2601,-1.1997,-1.2031,-1.2218,-1.2224,-1.2218,-1.2218,-1.2298,-1.2251,-1.2225,-1.2137,-1.2124,-1.1736,-1.0703,-1.0565,-1.034,-0.9296,-0.9069,-0.8694,-0.7783,-0.7629,-0.7326,-0.6416,-0.6338,-0.6338,-0.6338,-0.6338,-0.6338,-0.6338,-0.6419,-0.6419,-0.6338,-0.6423,-0.6423,-0.6342,-0.6106,-0.5951,-0.5951,-0.619,-0.6281,-0.6302,-0.6312,-0.6309,-0.6318,-0.6349,-0.4041,0.0,0.0,0.0,0.0,0.0,0.0,-2.2712,-2.2053,-2.1262,0.0,0.0,0.0,0.0,0.0,0.0,0.0,0.0,0.0,0.0,0.0,0.0,0.0,0.0,0.0,0.0,0.0,-1.7646,-1.817,-1.8885,-1.9513,-1.9989,-2.0366,-2.0649,-2.0731,-2.0398,-2.0193,-2.0193,-1.9874,-1.969,-1.969,-1.8612,-1.8106,-1.8066,-1.6993,-1.6522,-1.6466,-1.6008,-1.572,-1.5543,-1.4411,-1.3956,-1.392,-1.329,-1.2998,-1.3018,-1.3096,-1.333,-1.3581,-1.3685,-1.3825,-1.3958,-1.3793,-1.2677,-1.148,-1.1819,-1.166,-1.1377,-1.1501,-1.1506,-1.1636,-1.189,-1.1803,-1.1717,-1.2211,-1.1937,-1.1506,-1.1144,-1.0918,-1.0323,-0.8727,-0.9064,-0.9291,-0.8237,-0.7403,-0.6795,-0.6641,-0.6567,-0.649,-0.6338,-0.6338,-0.6338,-0.6338,-0.6338,-0.6338,-0.6338,-0.6338,-0.6338,-0.6338,-0.6355,-0.6288,-0.6288,-0.4636,-0.3694,-0.3694,-0.5445,-0.6332,-0.6335,-0.6314,-0.4634,-0.1429,-0.1345,-0.089,0.0,0.0,0.0,-2.2763,0.0,0.0,0.0,-2.1288,0.0,0.0,0.0,0.0,0.0,0.0,0.0,0.0,0.0,0.0,0.0,0.0,0.0,0.0,0.0,0.0,0.0,0.0,-1.8137,-1.9165,-1.9692,-2.0147,-2.0616,-2.0862,-2.0991,-2.0991,-2.055,-2.0345,-2.0441,-1.994,-1.969,-1.969,-1.8612,-1.8106,-1.8066,-1.6993,-1.6522,-1.6466,-1.5864,-1.541,-1.5096,-1.419,-1.3637,-1.3324,-1.3017,-1.2881,-1.2881,-1.2881,-1.3018,-1.3223,-1.3437,-1.3449,-1.3336,-1.3332,-1.233,-1.1203,-1.1212,-1.1132,-1.1028,-1.1145,-1.1325,-1.1462,-1.1624,-1.154,-1.1475,-1.1813,-1.1329,-1.0827,-1.0658,-1.0115,-0.9353,-0.7917,-0.8085,-0.8116,-0.7238,-0.6644,-0.6338,-0.6338,-0.6338,-0.6338,-0.6338,-0.6338,-0.6338,-0.6338,-0.6338,-0.6264,-0.6271,-0.6274,-0.6278,-0.6278,-0.6288,-0.6302,-0.6322,-0.5291,-0.3704,-0.1572,-0.4661,-0.53,-0.3149,-0.3193,-0.2066,-0.0,-0.0,-0.0,0.0,0.0,0.0,0.0,0.0,-2.2105,0.0,0.0,0.0,0.0,0.0,0.0,0.0,0.0,0.0,0.0,0.0,0.0,0.0,0.0,0.0,0.0,0.0,0.0,0.0,0.0,-1.8797,-2.0212,-2.0382,-2.0649,-2.1086,-2.1197,-2.126,-2.126,-2.0715,-2.0545,-2.0754,-2.0041,-1.969,-1.969,-1.8803,-1.8268,-1.7972,-1.698,-1.6522,-1.6466,-1.5864,-1.5276,-1.4652,-1.405,-1.342,-1.2881,-1.2881,-1.2881,-1.2881,-1.2881,-1.2881,-1.293,-1.3271,-1.3019,-1.2595,-1.2632,-1.2123,-1.1388,-1.0787,-1.0768,-1.089,-1.093,-1.1053,-1.1263,-1.1337,-1.1263,-1.1243,-1.1159,-1.0686,-1.0102,-0.9834,-0.9195,-0.8409,-0.7358,-0.7151,-0.699,-0.6339,-0.624,-0.6338,-0.6338,-0.6237,-0.6227,-0.6257,-0.621,-0.6196,-0.6331,-0.6237,-0.6237,-0.6274,-0.5889,-0.5655,-0.5655,-0.6058,-0.6315,-0.6264,-0.5538,-0.3467,-0.0079,-0.3387,-0.3387,-0.0,-0.0,-0.0,-0.0,-0.0,-0.0,0.0,0.0,0.0,0.0,-2.3049,0.0,0.0,0.0,0.0,0.0,0.0,0.0,0.0,0.0,0.0,0.0,0.0,0.0,0.0,0.0,0.0,0.0,0.0,0.0,0.0,0.0,0.0,-2.023,-2.0682,-2.1086,-2.1521,-2.1945,-2.2152,-2.2152,-2.1354,-2.1038,-2.1311,-2.0231,-1.969,-1.969,-1.9604,-1.8838,-1.761,-1.6844,-1.6522,-1.6466,-1.5864,-1.5276,-1.4652,-1.405,-1.342,-1.2881,-1.2881,-1.2881,-1.2881,-1.2881,-1.2881,-1.2891,-1.2939,-1.2337,-1.1486,-1.149,-1.0952,-1.0336,-1.0544,-1.0595,-1.0678,-1.0638,-1.0672,-1.0732,-1.0951,-1.0873,-1.0606,-1.0317,-0.9796,-0.9069,-0.7939,-0.739,-0.6912,-0.6154,-0.5967,-0.6019,-0.603,-0.6169,-0.6338,-0.6338,-0.6142,-0.6105,-0.6244,-0.6023,-0.5959,-0.623,-0.6146,-0.6125,-0.6264,-0.4538,-0.3437,-0.3437,-0.5271,-0.6329,-0.6332,-0.2673,-0.0471,-0.0,-0.0471,-0.0471,-0.0,-0.0,-0.0,-0.0,-0.0,-0.0,0.0,0.0,0.0,0.0,0.0,0.0,0.0,0.0,-1.9722,0.0,0.0,0.0,0.0,0.0,0.0,0.0,0.0,0.0,0.0,0.0,0.0,0.0,0.0,0.0,0.0,0.0,0.0,0.0,0.0,-2.1488,-2.1974,-2.2337,-2.2463,-2.231,-2.1446,-2.0991,-2.0927,-2.0104,-1.969,-1.969,-1.9701,-1.9069,-1.7838,-1.6925,-1.6522,-1.6479,-1.623,-1.5709,-1.4994,-1.4129,-1.342,-1.2881,-1.2881,-1.2881,-1.2881,-1.2881,-1.2881,-1.2822,-1.2403,-1.1831,-1.1185,-1.0587,-1.0226,-1.0099,-1.0253,-1.0478,-1.0624,-1.0624,-1.0624,-1.0504,-1.0104,-0.9951,-0.9695,-0.9062,-0.8368,-0.7745,-0.7155,-0.6587,-0.6084,-0.5737,-0.5677,-0.5698,-0.5762,-0.5969,-0.6095,-0.6006,-0.6013,-0.602,-0.5996,-0.5964,-0.5971,-0.6112,-0.6173,-0.6211,-0.6295,-0.5509,-0.3923,-0.1488,-0.2119,-0.2672,-0.2672,-0.0942,-0.0,-0.0,-0.0,-0.0,-0.0,-0.0,-0.0,-0.0,-0.0,-0.0,-2.2358,0.0,0.0,0.0,0.0,0.0,0.0,0.0,0.0,0.0,0.0,0.0,0.0,0.0,0.0,0.0,0.0,0.0,0.0,0.0,0.0,0.0,0.0,0.0,0.0,0.0,0.0,0.0,-2.0719,0.0,-2.253,-2.2559,-2.264,-2.275,-2.1727,-2.1022,-2.0703,-2.0035,-1.9717,-1.9685,-1.9706,-1.899,-1.7638,-1.6841,-1.6522,-1.6479,-1.6498,-1.5981,-1.5074,-1.4373,-1.36,-1.2881,-1.2881,-1.2881,-1.2881,-1.2881,-1.2774,-1.251,-1.1972,-1.1396,-1.0753,-0.9778,-0.9694,-0.9933,-1.0019,-1.0338,-1.0624,-1.0624,-1.0441,-1.0079,-0.9479,-0.9116,-0.8748,-0.7827,-0.722,-0.6789,-0.6527,-0.5995,-0.5528,-0.5528,-0.5528,-0.5528,-0.5528,-0.5772,-0.5928,-0.582,-0.5864,-0.5884,-0.5888,-0.5816,-0.5643,-0.5265,-0.5728,-0.6108,-0.6312,-0.521,-0.3303,-0.0157,-0.0,-0.0,-0.0,-0.0,-0.0,-0.0,-0.0,-0.0,-0.0,-0.0,-0.0,-0.0,-0.0,-0.0,0.0,0.0,0.0,-2.1681,0.0,0.0,0.0,0.0,-1.9798,0.0,0.0,0.0,0.0,0.0,-1.8424,-1.6726,0.0,0.0,0.0,0.0,0.0,0.0,0.0,0.0,0.0,0.0,0.0,0.0,-2.0016,0.0,-2.318,-2.2671,-2.2811,-2.391,-2.2392,-2.1399,-2.0991,-2.0133,-1.9703,-1.9706,-1.9715,-1.8599,-1.6561,-1.6536,-1.6522,-1.6522,-1.6479,-1.58,-1.4709,-1.4698,-1.3978,-1.2881,-1.2881,-1.2881,-1.2881,-1.2881,-1.2452,-1.1814,-1.1814,-1.0922,-0.9725,-0.9057,-0.9206,-0.9734,-0.9955,-1.0268,-1.0624,-1.0624,-1.0021,-0.9356,-0.9297,-0.8657,-0.7827,-0.6981,-0.6715,-0.6453,-0.5627,-0.5435,-0.5435,-0.5435,-0.5435,-0.5435,-0.5435,-0.5613,-0.5806,-0.58,-0.5688,-0.5727,-0.5946,-0.5641,-0.4861,-0.3369,-0.4525,-0.5693,-0.6224,-0.2515,-0.0157,-0.0,-0.0,-0.0,-0.0,-0.0,-0.0,-0.0,-0.0,-0.0,-0.0,-0.0,-0.0,-0.0,-0.0,-0.0,0.0,0.0,-1.9497,-1.9621,0.0,0.0,0.0,0.0,0.0,0.0,0.0,0.0,0.0,0.0,-1.8958,-1.7267,-1.6471,-1.5699,0.0,0.0,0.0,0.0,0.0,0.0,0.0,0.0,0.0,-1.8474,-1.9491,-2.0761,0.0,-2.2722,-2.3095,-2.3608,-2.2514,-2.1714,-2.1279,-2.023,-1.9683,-1.9669,-1.8246,-1.721,-1.6507,-1.6481,-1.6522,-1.6466,-1.5676,-1.4923,-1.4301,-1.4157,-1.3647,-1.2881,-1.2881,-1.2881,-1.2881,-1.2881,-1.2335,-1.1472,-1.0754,-0.9865,-0.912,-0.8851,-0.9035,-0.9376,-0.944,-0.973,-0.9914,-0.9497,-0.9134,-0.86,-0.7618,-0.7182,-0.67,-0.5708,-0.5656,-0.5716,-0.5294,-0.5287,-0.5428,-0.5428,-0.5428,-0.5428,-0.5428,-0.545,-0.5518,-0.5511,-0.5631,-0.5652,-0.5593,-0.5518,-0.5232,-0.4701,-0.2911,-0.1934,-0.2112,-0.0785,-0.0,-0.0,-0.0,-0.0,-0.0,-0.0,-0.0,-0.0,-0.0,-0.0,-0.0,-0.0,0.1434,0.4179,0.4141,0.4205,-1.8962,-1.8611,0.0,-1.8416,-1.8612,0.0,-1.8391,0.0,0.0,0.0,0.0,0.0,0.0,0.0,-1.8856,-1.6904,-1.6477,-1.6026,0.0,-1.4869,0.0,0.0,0.0,0.0,0.0,0.0,-1.7216,-1.7719,-1.8862,-2.0381,0.0,0.0,-2.3345,-2.4103,-2.3161,-2.2163,-2.1144,-2.0481,-2.0004,-1.9675,-1.7511,-1.6491,-1.6481,-1.6476,-1.6522,-1.6411,-1.523,-1.4541,-1.4312,-1.3924,-1.342,-1.2881,-1.2881,-1.2881,-1.2881,-1.2618,-1.1814,-1.078,-0.9755,-0.9159,-0.8804,-0.8804,-0.9005,-0.9196,-0.9194,-0.9239,-0.9217,-0.888,-0.8298,-0.7537,-0.6657,-0.6113,-0.572,-0.5053,-0.5036,-0.5226,-0.5135,-0.5222,-0.5292,-0.5362,-0.5428,-0.5432,-0.5372,-0.5376,-0.5376,-0.5369,-0.5531,-0.5562,-0.5393,-0.5399,-0.4928,-0.36,-0.1368,-0.0,-0.0,-0.0,0.0628,0.2123,0.2278,0.1883,0.1098,0.1097,0.0787,-0.0,0.071,0.1493,0.2202,0.1488,0.2499,0.516,0.5962,0.6304]},{"header":{"parameterUnit":"m.s-1","parameterCategory":1,"la1":30.6,"la2":29.2853,"lo1":-89.7004,"lo2":-87.6739,"dy":0.0162,"dx":0.0183,"nx":112,"ny":82,"refTime":"2023-08-26T00:00:00:Z","depth":0,"parameterNumber":3,"parameterNumberName":"V-component_of_WINDS"},"data":[0.0,0.0,0.0,0.0,0.0,0.0,0.0,0.0,0.0,0.0,0.0,0.0,0.0,0.0,0.0,0.0,0.0,0.0,0.0,0.0,0.0,0.0,0.0,0.0,0.0,0.0,0.0,0.0,0.0,0.0,0.0,0.0,0.0,0.0,0.0,0.0,0.0,0.0,0.0,0.0,0.0,0.0,0.0,0.0,0.0,0.0,0.0,0.0,0.0,0.0,0.0,0.0,0.0,0.0,0.0,0.0,0.0,0.0,0.0,0.0,0.0,0.0,0.0,0.0,0.0,0.0,0.0,0.0,0.0,0.0,0.0,0.0,0.0,0.0,0.0,0.0,0.0,0.0,0.0,0.0,0.0,0.0,0.0,0.0,0.0,0.0,0.0,0.0,0.0,0.0,0.0,-3.571,-3.9947,-4.2082,-4.0822,-3.6942,-3.1845,-2.5615,0.0,0.0,0.0,0.0,0.0,0.0,0.0,0.0,0.0,0.0,0.0,0.0,0.0,0.0,0.0,0.0,0.0,0.0,0.0,0.0,0.0,0.0,0.0,0.0,0.0,0.0,0.0,0.0,0.0,0.0,0.0,0.0,0.0,0.0,0.0,0.0,0.0,0.0,0.0,0.0,0.0,0.0,0.0,0.0,0.0,0.0,0.0,0.0,0.0,0.0,0.0,0.0,0.0,0.0,0.0,0.0,0.0,0.0,0.0,0.0,0.0,0.0,0.0,0.0,0.0,0.0,0.0,0.0,0.0,0.0,0.0,0.0,0.0,0.0,0.0,0.0,0.0,0.0,0.0,0.0,0.0,0.0,0.0,0.0,0.0,0.0,0.0,0.0,0.0,0.0,0.0,0.0,0.0,0.0,0.0,0.0,0.0,0.0,0.0,0.0,0.0,0.0,0.0,0.0,-3.4756,-3.9212,-4.0012,-3.9654,-3.8285,-3.2951,-2.7581,-2.2653,0.0,0.0,0.0,0.0,0.0,0.0,0.0,0.0,0.0,0.0,0.0,0.0,0.0,0.0,0.0,0.0,0.0,0.0,0.0,0.0,0.0,0.0,0.0,0.0,0.0,0.0,0.0,0.0,0.0,0.0,0.0,0.0,0.0,0.0,0.0,0.0,0.0,0.0,0.0,0.0,0.0,0.0,0.0,0.0,0.0,0.0,0.0,0.0,0.0,0.0,0.0,0.0,0.0,0.0,0.0,0.0,0.0,0.0,0.0,0.0,0.0,0.0,0.0,0.0,0.0,0.0,0.0,0.0,0.0,0.0,0.0,0.0,0.0,0.0,0.0,0.0,0.0,0.0,0.0,0.0,0.0,0.0,0.0,0.0,0.0,0.0,0.0,0.0,0.0,0.0,0.0,0.0,0.0,0.0,0.0,0.0,0.0,0.0,0.0,0.0,0.0,0.0,0.0,-3.3398,-3.5807,-3.8906,-3.8601,-3.7321,-3.5246,-3.0324,-2.5545,-2.1374,-1.8614,0.0,0.0,0.0,0.0,0.0,0.0,0.0,0.0,0.0,0.0,0.0,0.0,0.0,0.0,0.0,0.0,0.0,0.0,0.0,0.0,0.0,0.0,0.0,0.0,0.0,0.0,0.0,0.0,0.0,0.0,0.0,0.0,0.0,0.0,0.0,0.0,0.0,0.0,0.0,0.0,0.0,0.0,0.0,0.0,0.0,0.0,0.0,0.0,0.0,0.0,0.0,0.0,0.0,0.0,0.0,0.0,0.0,0.0,0.0,0.0,0.0,0.0,0.0,0.0,0.0,0.0,0.0,0.0,0.0,0.0,0.0,0.0,0.0,0.0,0.0,0.0,0.0,0.0,0.0,0.0,0.0,0.0,0.0,0.0,0.0,0.0,0.0,0.0,0.0,0.0,0.0,0.0,0.0,0.0,0.0,0.0,0.0,0.0,0.0,0.0,0.0,0.0,-3.4855,-3.601,-3.7928,-3.7036,-3.5111,-3.2219,-2.7822,-2.3609,-1.9737,-1.6276,0.0,0.0,0.0,0.0,0.0,0.0,0.0,0.0,0.0,0.0,0.0,0.0,0.0,0.0,0.0,0.0,0.0,0.0,0.0,0.0,0.0,0.0,0.0,0.0,0.0,0.0,0.0,0.0,0.0,0.0,0.0,0.0,0.0,0.0,0.0,0.0,0.0,0.0,0.0,0.0,0.0,0.0,0.0,0.0,0.0,0.0,0.0,0.0,0.0,0.0,0.0,0.0,0.0,0.0,0.0,0.0,0.0,0.0,0.0,0.0,0.0,0.0,0.0,0.0,0.0,0.0,0.0,0.0,0.0,0.0,0.0,0.0,0.0,0.0,0.0,0.0,0.0,0.0,0.0,0.0,0.0,0.0,0.0,0.0,0.0,0.0,0.0,0.0,0.0,0.0,0.0,0.0,0.0,0.0,0.0,0.0,0.0,0.0,0.0,0.0,0.0,0.0,-3.3716,-3.5039,-3.7654,-3.5876,-3.3095,-2.9551,-2.4958,-2.0557,-1.6593,-1.4172,0.0,0.0,0.0,0.0,0.0,0.0,0.0,0.0,0.0,0.0,0.0,0.0,0.0,0.0,0.0,0.0,0.0,0.0,0.0,0.0,0.0,0.0,0.0,0.0,0.0,0.0,0.0,0.0,0.0,0.0,0.0,0.0,0.0,0.0,0.0,0.0,0.0,0.0,0.0,0.0,0.0,0.0,0.0,0.0,0.0,0.0,0.0,0.0,0.0,0.0,0.0,0.0,0.0,0.0,0.0,0.0,0.0,0.0,0.0,0.0,0.0,0.0,0.0,0.0,0.0,0.0,0.0,0.0,0.0,0.0,0.0,0.0,0.0,0.0,0.0,0.0,0.0,0.0,0.0,0.0,0.0,0.0,0.0,0.0,0.0,0.0,0.0,0.0,0.0,0.0,0.0,0.0,0.0,0.0,0.0,0.0,0.0,0.0,0.0,0.0,0.0,0.0,-3.43,-3.5255,0.0,-3.4133,-3.1876,-2.8965,-2.4873,-2.114,-1.8231,0.0,0.0,0.0,0.0,0.0,0.0,0.0,0.0,0.0,0.0,0.0,0.0,0.0,0.0,0.0,0.0,0.0,0.0,0.0,0.0,0.0,0.0,0.0,0.0,0.0,0.0,0.0,0.0,0.0,0.0,0.0,0.0,0.0,0.0,0.0,0.0,0.0,0.0,0.0,0.0,0.0,0.0,0.0,0.0,0.0,0.0,0.0,0.0,0.0,0.0,0.0,0.0,0.0,0.0,0.0,0.0,0.0,0.0,0.0,0.0,0.0,0.0,0.0,0.0,0.0,0.0,0.0,0.0,0.0,0.0,0.0,0.0,0.0,0.0,0.0,0.0,0.0,0.0,0.0,0.0,0.0,0.0,0.0,0.0,0.0,0.0,0.0,0.0,0.0,0.0,0.0,0.0,0.0,0.0,0.0,0.0,0.0,0.0,0.0,0.0,0.0,0.0,-3.2274,-3.3883,-3.4606,0.0,-3.3172,-3.1382,-2.8498,-2.4949,-2.1866,-1.9431,0.0,0.0,0.0,0.0,0.0,0.0,0.0,0.0,0.0,0.0,0.0,0.0,0.0,0.0,0.0,0.0,0.0,0.0,0.0,0.0,0.0,0.0,0.0,0.0,0.0,0.0,0.0,0.0,0.0,0.0,0.0,0.0,0.0,0.0,0.0,0.0,0.0,0.0,0.0,0.0,0.0,0.0,0.0,0.0,0.0,0.0,0.0,0.0,0.0,0.0,0.0,0.0,0.0,0.0,0.0,0.0,0.0,0.0,0.0,0.0,0.0,0.0,0.0,0.0,0.0,0.0,0.0,0.0,0.0,0.0,0.0,0.0,0.0,0.0,0.0,0.0,0.0,0.0,0.0,0.0,0.0,0.0,0.0,0.0,0.0,0.0,0.0,0.0,0.0,0.0,0.0,0.0,0.0,0.0,0.0,0.0,0.0,0.0,0.0,0.0,0.0,0.0,-3.1017,-3.2108,-3.2737,-3.3059,-3.3093,-3.1603,-2.7835,-2.4939,-2.2178,0.0,0.0,0.0,0.0,0.0,0.0,0.0,0.0,0.0,0.0,0.0,0.0,0.0,0.0,0.0,0.0,0.0,0.0,0.0,0.0,0.0,0.0,0.0,0.0,0.0,0.0,0.0,0.0,0.0,0.0,0.0,0.0,0.0,0.0,0.0,0.0,0.0,0.0,0.0,0.0,0.0,0.0,0.0,0.0,0.0,0.0,0.0,0.0,0.0,0.0,0.0,0.0,0.0,0.0,0.0,0.0,0.0,0.0,0.0,0.0,0.0,0.0,0.0,0.0,0.0,0.0,0.0,0.0,0.0,0.0,0.0,0.0,0.0,0.0,0.0,0.0,0.0,0.0,0.0,0.0,0.0,0.0,0.0,0.0,0.0,0.0,0.0,0.0,0.0,0.0,0.0,0.0,0.0,0.0,0.0,0.0,0.0,0.0,0.0,0.0,0.0,0.0,0.0,-3.1917,-3.2662,-3.2982,-3.3089,-3.2754,-3.1319,-2.8236,-2.5595,-2.3422,-2.1775,0.0,0.0,0.0,0.0,0.0,0.0,0.0,0.0,0.0,0.0,0.0,0.0,0.0,0.0,0.0,0.0,0.0,0.0,0.0,0.0,0.0,0.0,0.0,0.0,0.0,0.0,0.0,0.0,0.0,0.0,0.0,0.0,0.0,0.0,0.0,0.0,0.0,0.0,0.0,0.0,0.0,0.0,0.0,0.0,0.0,0.0,0.0,0.0,0.0,0.0,0.0,0.0,0.0,0.0,0.0,0.0,0.0,0.0,0.0,0.0,0.0,0.0,0.0,0.0,0.0,0.0,0.0,0.0,0.0,0.0,0.0,0.0,0.0,0.0,0.0,0.0,0.0,0.0,0.0,0.0,0.0,0.0,0.0,0.0,0.0,0.0,0.0,0.0,0.0,0.0,0.0,0.0,0.0,0.0,0.0,0.0,0.0,0.0,0.0,0.0,0.0,0.0,-3.2328,-3.2819,-3.2967,-3.3093,-3.2919,-3.1671,-2.8859,-2.6348,-2.43,-2.291,0.0,0.0,0.0,0.0,0.0,0.0,0.0,0.0,0.0,0.0,0.0,0.0,0.0,0.0,0.0,0.0,0.0,0.0,0.0,0.0,0.0,0.0,0.0,0.0,0.0,0.0,0.0,0.0,0.0,0.0,0.0,0.0,0.0,0.0,0.0,0.0,0.0,0.0,0.0,0.0,0.0,0.0,0.0,0.0,0.0,0.0,0.0,0.0,0.0,0.0,0.0,0.0,0.0,0.0,0.0,0.0,0.0,0.0,0.0,0.0,0.0,0.0,0.0,0.0,0.0,0.0,0.0,0.0,0.0,0.0,0.0,0.0,0.0,0.0,0.0,0.0,0.0,0.0,0.0,0.0,0.0,0.0,0.0,0.0,0.0,0.0,0.0,0.0,0.0,0.0,0.0,0.0,0.0,0.0,0.0,0.0,0.0,0.0,0.0,0.0,0.0,0.0,-3.2346,-3.2583,-3.2634,-3.2892,-3.3193,-3.2242,-2.9363,-2.7087,-2.501,-2.3221,0.0,0.0,0.0,0.0,0.0,0.0,0.0,0.0,0.0,0.0,0.0,0.0,0.0,0.0,0.0,0.0,0.0,0.0,0.0,0.0,0.0,0.0,0.0,0.0,0.0,0.0,0.0,0.0,0.0,0.0,0.0,0.0,0.0,0.0,0.0,0.0,0.0,0.0,0.0,0.0,0.0,0.0,0.0,0.0,0.0,0.0,0.0,0.0,0.0,0.0,0.0,0.0,0.0,0.0,0.0,0.0,0.0,0.0,0.0,0.0,-2.6396,0.0,0.0,0.0,0.0,0.0,0.0,0.0,0.0,0.0,0.0,0.0,0.0,0.0,0.0,0.0,0.0,0.0,0.0,0.0,0.0,0.0,0.0,0.0,0.0,0.0,0.0,0.0,0.0,0.0,0.0,0.0,0.0,0.0,0.0,0.0,0.0,0.0,0.0,0.0,0.0,0.0,-3.2122,-3.1781,-3.1376,-3.144,-3.1754,-3.0857,-2.8115,-2.7,-2.5745,-2.4204,0.0,0.0,0.0,0.0,0.0,0.0,0.0,0.0,0.0,0.0,0.0,0.0,0.0,0.0,0.0,0.0,0.0,0.0,0.0,0.0,0.0,0.0,0.0,0.0,0.0,0.0,0.0,0.0,0.0,0.0,0.0,0.0,0.0,0.0,0.0,0.0,0.0,0.0,0.0,0.0,0.0,0.0,0.0,0.0,0.0,0.0,0.0,0.0,0.0,0.0,0.0,0.0,0.0,0.0,0.0,0.0,0.0,0.0,0.0,0.0,0.0,-2.7863,0.0,0.0,0.0,0.0,0.0,0.0,0.0,0.0,0.0,0.0,0.0,0.0,0.0,0.0,0.0,0.0,0.0,0.0,0.0,0.0,0.0,0.0,0.0,0.0,0.0,0.0,0.0,0.0,0.0,0.0,0.0,0.0,0.0,0.0,0.0,0.0,0.0,0.0,0.0,0.0,-3.231,-3.1515,-3.1038,-3.1605,-3.1544,-3.0698,-2.8651,-2.7305,-2.6141,-2.5095,-2.4683,0.0,0.0,0.0,0.0,0.0,0.0,0.0,0.0,0.0,0.0,0.0,0.0,0.0,0.0,0.0,0.0,0.0,0.0,0.0,0.0,0.0,0.0,0.0,0.0,0.0,0.0,0.0,0.0,0.0,0.0,0.0,0.0,0.0,0.0,0.0,0.0,0.0,0.0,0.0,0.0,0.0,0.0,0.0,0.0,0.0,0.0,0.0,0.0,0.0,0.0,0.0,0.0,0.0,0.0,-3.0158,-2.7556,-2.8174,-2.7634,-2.6284,-2.882,-2.8734,-2.6893,0.0,0.0,0.0,0.0,0.0,0.0,0.0,0.0,0.0,0.0,0.0,0.0,0.0,0.0,0.0,0.0,0.0,0.0,0.0,0.0,0.0,0.0,0.0,0.0,0.0,-3.7617,-3.6849,0.0,0.0,0.0,0.0,0.0,0.0,0.0,0.0,0.0,0.0,0.0,0.0,-3.2325,-3.132,-3.0819,-3.1885,-3.1651,-3.0959,-2.973,-2.8097,-2.6893,-2.6376,-2.6083,-2.5986,0.0,0.0,0.0,0.0,0.0,0.0,0.0,0.0,0.0,0.0,0.0,0.0,0.0,0.0,0.0,0.0,0.0,0.0,0.0,0.0,0.0,0.0,0.0,0.0,0.0,0.0,0.0,0.0,0.0,0.0,0.0,0.0,-3.1307,-3.3854,0.0,0.0,0.0,0.0,0.0,0.0,0.0,0.0,0.0,0.0,0.0,0.0,0.0,0.0,-3.6188,-3.6423,-3.5712,-3.4211,-3.3768,-3.2228,-2.9778,-3.0088,-2.9142,-2.7232,-2.9857,0.0,-2.9361,-2.7793,0.0,0.0,0.0,0.0,0.0,0.0,0.0,0.0,0.0,0.0,0.0,0.0,0.0,0.0,0.0,0.0,0.0,0.0,0.0,0.0,0.0,0.0,-3.7955,-3.7569,-3.8028,-3.8467,0.0,-3.7461,-3.6449,-3.4848,0.0,0.0,0.0,0.0,0.0,0.0,0.0,0.0,-3.1395,-3.0507,-2.9945,-3.0267,-3.0879,-3.0975,-3.0256,-2.9467,-2.9009,-2.9005,-2.8367,-2.8244,-2.878,-2.823,0.0,0.0,0.0,0.0,0.0,0.0,0.0,0.0,0.0,0.0,0.0,0.0,0.0,0.0,0.0,0.0,0.0,0.0,0.0,0.0,0.0,0.0,0.0,0.0,0.0,0.0,0.0,0.0,0.0,-2.7485,-3.4601,-3.4965,-3.5832,-3.5165,0.0,0.0,0.0,0.0,0.0,0.0,0.0,0.0,0.0,-3.5013,-3.7329,-3.8423,-3.8086,-3.7608,-3.632,-3.4232,-3.3628,-3.1927,-2.9456,-2.9579,-2.9267,-2.8614,-2.9771,-3.1015,-3.2122,-3.0542,-3.1274,-3.3304,0.0,0.0,0.0,0.0,0.0,-3.5498,-3.6622,0.0,0.0,0.0,0.0,0.0,0.0,0.0,0.0,0.0,0.0,0.0,0.0,0.0,0.0,-4.0065,-4.0799,-4.1337,-4.116,-4.0318,-3.8902,0.0,-3.5987,-3.5685,-3.5172,0.0,0.0,0.0,0.0,0.0,-3.1877,-3.0977,-3.0364,-3.0654,-3.1058,-3.1176,-3.0817,-3.069,-3.0394,-2.9797,-2.9578,-2.941,-2.9263,-2.9259,-2.9496,0.0,0.0,0.0,0.0,0.0,0.0,0.0,0.0,0.0,0.0,0.0,0.0,0.0,0.0,0.0,0.0,0.0,0.0,0.0,0.0,0.0,0.0,0.0,0.0,0.0,0.0,0.0,0.0,-3.3137,-3.7072,-3.659,-3.8535,-3.8474,0.0,0.0,0.0,0.0,0.0,0.0,-3.2697,-3.4774,-3.634,-3.7186,-3.911,-3.9744,-3.8802,-3.7941,-3.638,-3.4199,-3.3304,-3.1775,-2.9782,-3.0004,-3.0152,-3.0152,-3.0722,-3.2345,-3.4472,-3.3003,-3.3101,-3.4185,-3.4187,-3.5034,-3.6257,-3.702,-3.7204,-3.7305,-3.8877,-3.9089,-3.8653,-3.8622,0.0,-3.793,-3.6664,0.0,0.0,0.0,0.0,-3.6945,-3.8579,0.0,-4.0818,-4.2011,-4.291,-4.3416,-4.3032,-4.2316,-4.094,0.0,-3.7976,-3.7826,-3.7385,0.0,0.0,0.0,0.0,-3.175,-3.2409,-3.1515,-3.0936,-3.1184,-3.1524,-3.1757,-3.1733,-3.1797,-3.1593,-3.1111,-3.0714,-3.0269,-2.9722,-2.9967,-2.9837,-2.9279,0.0,0.0,0.0,0.0,0.0,0.0,0.0,0.0,0.0,0.0,0.0,0.0,0.0,0.0,0.0,0.0,0.0,0.0,0.0,0.0,0.0,0.0,0.0,0.0,0.0,0.0,0.0,0.0,0.0,-4.0894,-4.3772,0.0,0.0,0.0,0.0,-3.4616,-3.5554,-3.6136,-3.6068,-3.7531,-3.8639,-3.9399,-3.971,-3.9282,-3.8087,-3.6997,-3.5871,-3.464,-3.3623,-3.2679,-3.2043,-3.3122,-3.2975,-3.1985,-3.3884,-3.5277,-3.6015,-3.3986,-3.4445,-3.6493,-3.6001,-3.6604,-3.7836,-3.8377,-3.8288,-3.8102,-3.9964,-3.9348,-3.8101,-4.0747,-4.0894,-4.0057,-3.9968,-3.9797,0.0,0.0,-3.9625,-4.0653,-4.001,-4.1001,-4.2194,-4.2286,-4.291,-4.3479,-4.3477,-4.2834,-4.1926,0.0,-3.854,-3.7012,-3.7731,0.0,-3.4054,-3.489,-3.392,-3.2924,-3.255,-3.1725,-3.1188,-3.1196,-3.2059,-3.2805,-3.3229,-3.2671,-3.2763,-3.3897,-3.2188,-3.1134,-3.11,-3.048,-3.0091,-3.0057,-2.8281,0.0,0.0,0.0,0.0,0.0,0.0,0.0,0.0,0.0,0.0,0.0,0.0,0.0,0.0,0.0,0.0,0.0,0.0,0.0,0.0,0.0,0.0,0.0,0.0,0.0,0.0,0.0,0.0,-4.3515,-4.6434,0.0,0.0,-4.1771,-4.0963,-4.0112,-3.9577,-3.9526,-3.9971,-3.9912,-4.0028,-4.0329,-4.0344,-3.9489,-3.7667,-3.677,-3.541,-3.3628,-3.3326,-3.3178,-3.3213,-3.3605,-3.4089,-3.4674,-3.5889,-3.7,-3.7839,-3.7689,-3.8146,-3.8848,-3.8685,-3.9105,-3.9834,-4.0071,-4.0231,-4.0502,-4.1173,-4.0941,-4.0424,-4.127,-4.1194,-4.068,-4.0151,-3.9607,-3.9184,-3.9405,-3.9515,-3.9863,-4.1111,-4.1864,-4.2433,-4.2947,-4.3277,-4.3497,-4.3497,-4.2873,-4.2334,-4.2514,-4.0067,-3.8224,-3.9036,-3.6628,-3.4871,-3.5716,-3.454,-3.3314,-3.2583,-3.2244,-3.1811,-3.1252,-3.1958,-3.2683,-3.3345,-3.274,-3.2002,-3.1343,-3.0801,-3.0277,-2.9786,-2.9516,-2.9144,-2.8653,-2.7226,-2.6324,0.0,0.0,0.0,0.0,0.0,0.0,0.0,0.0,0.0,0.0,0.0,0.0,0.0,0.0,0.0,0.0,0.0,0.0,0.0,0.0,0.0,0.0,0.0,0.0,0.0,0.0,-4.4786,-4.4501,-4.7957,-4.9057,-4.5644,-4.5323,-4.4962,-4.4144,-4.3021,-4.2377,-4.2572,-4.1798,-4.1158,-4.0928,-4.0699,-3.9424,-3.7053,-3.6456,-3.5197,-3.3081,-3.3471,-3.383,-3.4138,-3.4846,-3.5717,-3.6731,-3.7676,-3.8828,-3.999,-4.0607,-4.0835,-4.0797,-4.029,-4.0451,-4.0879,-4.0915,-4.1024,-4.1283,-4.1689,-4.2039,-4.2349,-4.2179,-4.2029,-4.1809,-4.1277,-4.0726,-4.0432,-4.0946,-4.0726,-4.0689,-4.2286,-4.269,-4.2837,-4.3369,-4.3497,-4.3497,-4.3497,-4.3075,-4.2855,-4.3387,-4.1332,-3.968,-4.0212,-3.8065,-3.6373,-3.6784,-3.5221,-3.3791,-3.3142,-3.2598,-3.1986,-3.1291,-3.185,-3.2388,-3.2656,-3.2445,-3.1556,-2.9799,-2.9964,-2.977,-2.9008,-2.9228,-2.8991,-2.823,-2.6831,-2.595,-2.5582,0.0,0.0,0.0,0.0,0.0,0.0,0.0,0.0,0.0,0.0,0.0,0.0,0.0,0.0,0.0,0.0,0.0,0.0,0.0,0.0,0.0,0.0,0.0,-3.403,-3.9098,-4.3115,-4.4021,-4.8515,-5.0533,-4.8061,-4.9156,-4.9082,-4.6616,-4.5669,-4.4795,-4.3951,-4.294,-4.2134,-4.1399,-4.0741,-3.9101,-3.629,-3.6277,-3.5183,-3.324,-3.4275,-3.4746,-3.491,-3.688,-3.793,-3.8222,-3.937,-4.0769,-4.2352,-4.2334,-4.2335,-4.2173,-4.0713,-4.0459,-4.0898,-4.0874,-4.0587,-4.0323,-4.1452,-4.2551,-4.3497,-4.3497,-4.3497,-4.3497,-4.3497,-4.3479,-4.3461,-4.3479,-4.3461,-4.3461,-4.3479,-4.3497,-4.3497,-4.3497,-4.3497,-4.3479,-4.3461,-4.3424,-4.3424,-4.3424,-4.2176,-4.1111,-4.1111,-3.974,-3.8496,-3.7943,-3.5909,0.0,-3.4178,-3.2795,-3.1657,-3.1303,-3.185,-3.2029,-3.1288,-3.1854,-3.1516,-2.9794,-2.9871,-2.9685,-2.8975,-2.9651,-2.9702,-2.8958,-2.7097,-2.5589,-2.4533,0.0,0.0,0.0,0.0,0.0,0.0,0.0,0.0,0.0,0.0,0.0,0.0,0.0,0.0,0.0,0.0,0.0,0.0,0.0,0.0,0.0,0.0,-3.8118,-3.8626,-4.2044,-4.5161,-4.6907,-4.981,-5.1286,-5.033,-5.1092,-5.1163,-4.9961,-4.8514,-4.7302,-4.6382,-4.4507,-4.2831,-4.1475,-4.0741,-3.9431,-3.7343,-3.7343,-3.6696,-3.5346,-3.5668,-3.6225,-3.6958,-3.8222,-3.9208,-4.0078,-4.1614,-4.2615,-4.3036,-4.3098,-4.3042,-4.2875,-4.203,-4.1375,-4.0916,-4.0927,-4.1353,-4.2016,-4.2341,-4.2896,-4.3497,-4.3497,-4.325,-4.2902,-4.2902,-4.2467,-4.2104,-4.272,-4.2759,-4.2763,-4.3332,-4.3497,-4.3497,-4.3497,-4.3497,-4.3332,-4.2763,-4.2176,-4.1772,-4.1772,-4.1405,-4.1111,-4.1111,-3.944,-3.7866,-3.7136,0.0,0.0,-3.3512,-3.2951,-3.2504,-3.2049,-3.2195,-3.2222,-3.2029,-3.1185,-3.0256,0.0,-2.8212,-2.7774,-2.8129,-2.8332,-2.8349,-2.8146,-2.7188,-2.6809,0.0,0.0,0.0,0.0,0.0,0.0,0.0,0.0,0.0,0.0,0.0,0.0,0.0,0.0,0.0,0.0,0.0,0.0,0.0,0.0,0.0,0.0,-3.815,-4.0781,-4.2459,-4.4416,-4.6299,-4.7814,-5.0016,-5.135,-5.1021,-5.1398,-5.1498,-5.1045,-4.9184,-4.8042,-4.7886,-4.5545,-4.3676,-4.2423,-4.1355,-3.9994,-3.8232,-3.7958,-3.7394,-3.6598,-3.6808,-3.7505,-3.8795,-3.9433,-4.0514,0.0,-4.2847,-4.3502,-4.3856,-4.39,-4.3463,0.0,0.0,0.0,0.0,0.0,-4.1308,-4.232,-4.2341,-4.2684,-4.3178,-4.3178,-4.279,-4.2342,-4.2342,-4.1962,-4.1715,-4.2472,-4.2575,-4.263,-4.3334,-4.3497,-4.3497,-4.3497,-4.3222,-4.2873,-4.2396,-4.1937,-4.1515,-4.1185,0.0,0.0,-4.0367,-3.9529,-3.8348,-3.6807,-3.605,-3.5039,0.0,-3.2882,-3.2496,-3.189,-3.1833,-3.1833,-3.1833,-3.1055,0.0,0.0,0.0,-2.7929,-2.8545,-2.8853,0.0,0.0,0.0,-2.839,0.0,0.0,0.0,0.0,-2.9393,-3.0275,0.0,0.0,0.0,0.0,0.0,0.0,0.0,0.0,0.0,0.0,0.0,0.0,0.0,0.0,0.0,0.0,-4.1157,-4.2735,-4.566,-4.6395,-4.685,-4.7397,-4.9398,-5.0619,-5.0335,-5.0455,-5.0543,-5.0549,-4.8433,-4.7548,-4.8319,0.0,0.0,0.0,0.0,-4.0827,-3.9127,-3.8413,-3.7896,-3.754,-3.781,-3.8736,-4.0182,-4.0616,-4.1723,-4.3306,-4.3366,-4.3823,-4.4451,-4.4536,-4.371,-4.2217,-4.1382,-4.0985,-4.0764,-4.0256,-4.0827,0.0,0.0,0.0,0.0,-4.2616,-4.2203,-4.1707,-4.1707,-4.1654,-4.1687,-4.2315,-4.251,-4.2663,-4.3118,-4.3296,-4.3351,-4.3351,-4.2745,-4.2158,-4.2158,-4.2084,-4.1791,-4.1001,-4.0826,-4.0455,-3.912,-3.9482,-3.9133,-3.6771,-3.5803,0.0,-3.355,-3.2831,-3.2121,-3.1393,0.0,0.0,-3.1309,-3.1241,-3.0598,-2.9194,-2.911,-2.9312,-2.9728,-3.0352,-3.0734,-3.0768,-3.0681,-2.9952,-2.8565,-3.0038,-3.0716,-3.0554,-3.1127,-3.1625,0.0,0.0,0.0,0.0,0.0,0.0,0.0,0.0,0.0,0.0,0.0,0.0,0.0,0.0,0.0,-4.3328,-4.578,-4.7671,-4.8266,-4.8283,-4.7886,-4.6843,-4.7617,-4.8166,-4.8021,-4.8518,-4.8852,-4.8901,-4.7854,-4.7044,-4.6453,-4.6142,0.0,-4.2727,-4.3059,-4.2528,-4.0948,-4.0203,-3.9862,-3.974,0.0,0.0,-4.0624,-4.1377,-4.2332,-4.3366,-4.4064,-4.4103,-4.369,-4.4316,-4.3681,-4.2152,-4.0848,-4.0307,-4.0239,-4.0155,-4.0828,-4.1711,-4.1248,-4.1795,-4.2616,-4.2121,-4.1578,-4.1087,-4.1087,-4.0669,0.0,-4.0848,-4.1375,-4.1705,-4.1565,-4.2047,-4.2525,-4.2525,-4.1919,-4.135,-4.135,-4.0818,-4.012,-3.9331,-3.9349,-3.9066,-3.779,-3.7715,-3.7488,-3.6533,-3.5891,-3.5043,-3.3575,-3.3288,-3.2899,-3.2154,-3.211,-3.211,-3.211,-3.1529,-3.0818,-2.9939,-2.9888,-3.006,-3.0456,-3.063,-3.087,-3.1253,-3.0667,-3.0515,-3.076,-3.11,-3.2166,-3.3855,-3.3768,-3.3802,0.0,0.0,0.0,0.0,0.0,0.0,0.0,0.0,0.0,0.0,0.0,-3.9984,0.0,0.0,-4.5805,-4.7922,-4.9559,-5.0459,-5.0192,-4.9624,-4.8685,-4.7258,-4.6959,-4.6797,-4.6508,-4.6796,-4.7233,-4.758,-4.6965,-4.6512,-4.6587,-4.5593,-4.445,-4.3136,-4.248,-4.1849,-4.1369,-4.0726,-4.0561,-4.0876,-4.0232,-4.0364,-4.1202,-4.1303,-4.1613,-4.2171,-4.2627,-4.2841,-4.2869,-4.3266,-4.2766,-4.1651,-4.0527,-4.007,-4.007,-4.007,-4.0645,-4.1321,-4.1007,-4.1296,-4.175,-4.1446,-4.0967,-4.0497,-4.0497,-3.9966,-3.9571,-4.0366,-4.0562,-4.0614,-4.1019,-4.1405,-4.1699,-4.1699,-4.1093,-4.0506,-4.0506,-4.0175,-3.9662,-3.8854,-3.8937,-3.8708,-3.7427,-3.6999,-3.6603,-3.6097,-3.546,-3.4776,-3.4049,-3.3626,-3.3119,-3.2357,-3.2313,-3.2138,-3.1765,-3.1072,-3.0497,-3.0125,-3.0108,-3.0282,-3.0664,-3.1271,-3.1718,-3.1933,-3.1813,-3.1813,-3.1966,-3.2599,-3.3581,-3.4825,-3.5735,-3.6242,0.0,0.0,0.0,0.0,0.0,0.0,0.0,0.0,-3.6414,-3.9226,-4.1448,-4.3691,-4.6364,-4.8095,-4.9911,-5.2247,-5.2625,-5.2362,-5.1605,-5.0125,-4.853,-4.6952,-4.6039,-4.5321,-4.4597,-4.458,-4.4901,-4.5782,-4.5244,-4.5387,-4.6455,-4.4903,-4.3824,-4.3553,-4.1952,-4.1174,-4.1369,-4.0726,-4.0666,-4.119,-4.0531,-4.0682,-4.1457,-4.0954,-4.0915,-4.1212,-4.1034,-4.1492,-4.2237,-4.1937,-4.1567,-4.1129,-4.0375,-4.007,-4.007,-4.007,-4.0425,-4.0876,-4.0791,-4.0802,-4.0856,-4.078,-4.0449,-4.007,-4.007,-3.9462,-3.8993,-3.9922,-3.9741,-3.948,-4.0284,-4.0679,-4.0873,-4.0873,-4.0249,-3.9698,-3.9863,-3.9772,-3.9428,-3.8706,-3.8658,-3.8384,-3.7241,-3.6603,-3.6097,-3.5667,-3.5098,-3.4658,-3.4506,-3.3981,-3.3271,-3.2374,-3.2313,-3.2036,-3.1444,-3.0869,-3.0531,-3.0531,-3.0395,-3.0486,-3.0889,-3.193,-3.255,-3.2648,-3.3075,-3.3136,-3.2745,-3.3785,-3.46,-3.5295,-3.6982,-3.7995,-3.0884,-3.0719,-3.111,-3.2598,-3.3086,-3.4199,0.0,0.0,-4.0372,-4.4399,-4.6059,-4.7649,-5.05,-5.2562,-5.4048,-5.4651,-5.4831,-5.427,-5.2306,-4.8963,-4.5937,-4.3991,-4.3561,-4.2583,-4.0717,-4.0574,-4.1029,-4.2107,-4.2131,-4.2526,-4.372,-4.4327,-4.405,-4.2588,-4.3118,-4.2796,-4.1384,-4.0726,-4.0442,-4.0502,-3.9843,-3.9985,-4.0799,-4.0721,-4.11,-4.1821,-4.1168,-4.1395,-4.2096,-4.0755,-4.0611,-4.1133,-4.0409,-4.007,-4.007,-4.007,-4.0434,-4.0832,-4.0366,-4.0494,-4.0827,-4.0319,-4.0171,-4.007,-4.007,-3.9123,-3.8133,-3.8656,-3.8702,-3.8478,-3.831,-3.9134,-4.0029,-4.0029,-3.9423,-3.9038,-3.9753,-3.9331,-3.8656,-3.8117,-3.7685,-3.7203,-3.658,-3.6054,-3.565,-3.5622,-3.5554,-3.525,-3.4573,-3.4421,-3.3829,-3.2425,-3.2313,-3.2297,-3.2171,-3.2087,-3.2036,-3.2036,-3.1427,-3.1253,-3.165,-3.2195,-3.2681,-3.3105,-3.3522,-3.3707,-3.3662,-3.3799,-3.4914,-3.6936,-3.7165,-3.7697,-3.0339,-3.1113,0.0,0.0,-3.418,-3.6367,-3.918,-4.0589,-4.2256,-4.5534,-4.7252,-4.8963,-5.157,-5.3262,-5.4195,0.0,-5.3706,-5.24,-4.9379,-4.623,-4.3181,-4.0495,-3.9629,-3.9438,-3.9897,-3.9875,-3.9875,-3.9897,-4.0363,-4.0831,-4.1267,-4.1348,-4.1016,-4.0406,-4.0379,-4.0235,-3.9924,-3.9667,-3.9539,-3.9524,-3.891,-3.8924,-3.9491,-3.9134,-3.932,-3.9941,-4.0103,-4.0184,-4.0237,-4.0478,-4.0561,-4.0544,-4.0206,-4.007,-4.007,-4.007,-4.0254,-4.0417,-4.0154,-4.0254,-4.0417,-4.0154,-4.007,-4.007,-4.007,-3.9056,-3.8014,-3.8446,-3.8163,-3.7749,-3.788,-3.8554,-3.9203,-3.9203,-3.8946,-3.8799,-3.9129,-3.8702,-3.8183,-3.7946,-3.7268,-3.6643,-3.6416,-3.5941,-3.5622,-3.5622,-3.525,-3.5013,-3.5131,-3.4776,-3.4252,-3.3643,-3.2797,-3.2459,-3.2899,-3.2138,-3.1833,-3.2256,-3.1596,-3.1291,-3.1449,-3.2127,-3.2583,-3.2777,-3.3447,-3.3807,-3.3807,-3.4284,-3.5092,-3.6212,-3.6677,-3.7182,-3.036,0.0,0.0,-3.3223,-3.5469,-3.8125,-3.9863,-4.1367,-4.3144,-4.5762,-4.7388,-4.901,-5.1212,-5.2321,-5.2671,-5.1834,-5.0909,-4.9126,-4.5979,-4.321,-4.0503,-3.7793,-3.6636,-3.655,-3.7863,-3.8249,-3.8324,-3.8128,-3.8632,-3.9129,-3.9388,-3.8946,-3.8711,-3.8697,-3.82,-3.8186,-3.8613,-3.8613,-3.8613,-3.8613,-3.809,-3.7972,-3.8147,-3.7949,-3.8091,-3.8727,-3.9342,-3.9422,-3.9189,-4.023,-4.0442,-4.007,-4.007,-4.007,-4.007,-4.007,-4.007,-4.007,-4.007,-4.007,-4.007,-4.007,-4.007,-4.007,-4.007,-3.9208,-3.8272,-3.8608,-3.8283,-3.7925,-3.8259,-3.8855,-3.9313,-3.9074,-3.9038,-3.8964,-3.8762,-3.8382,-3.8032,-3.7755,-3.7135,-3.6539,-3.6224,-3.5871,-3.5622,-3.5622,-3.5165,-3.5013,-3.5554,-3.4776,-3.4269,-3.4472,-3.3355,-3.2899,-3.3643,-3.2544,-3.2121,-3.2848,-3.1816,-3.1275,-3.1478,-3.2018,-3.2384,-3.2484,-3.3255,-3.368,-3.3807,-3.4394,-3.495,-3.5496,-3.6112,-3.6672,-3.1518,-3.2493,-3.3691,-3.5371,-3.7187,-3.9023,-4.0762,-4.1797,-4.3144,-4.5762,-4.6912,-4.7927,-4.956,-5.0043,-4.9728,-4.8227,-4.6623,-4.4854,-4.2839,-4.0153,-3.798,-3.6693,-3.5486,-3.4335,0.0,-3.4234,-3.5353,-3.6505,-3.6605,-3.7107,-3.8187,-3.8256,-3.8159,-3.8159,-3.809,-3.8007,-3.7909,-3.7909,-3.7909,-3.7909,-3.7386,-3.7164,-3.7137,-3.7565,-3.8368,-3.9379,-3.9379,-3.9542,-3.9801,-3.9852,-3.9919,-4.007,-4.007,-4.007,-4.007,-4.007,-4.007,-4.007,-4.007,-4.007,-4.007,-4.007,-4.007,-4.007,-4.007,-3.9546,-3.8954,-3.9003,-3.9178,-3.9421,-3.9461,-4.0239,-4.0836,-4.0047,-3.9845,-3.9643,-3.8872,-3.8676,-3.8401,-3.7414,-3.719,-3.6825,-3.581,-3.5622,-3.5622,-3.5622,-3.5605,-3.5588,-3.5622,-3.4336,-3.3711,-3.4421,-3.3829,-3.3677,-3.4387,-3.3778,-3.3643,-3.4387,-3.2391,-3.1512,-3.2222,-3.1981,-3.2039,-3.2484,-3.2983,-3.339,-3.3807,-3.3825,-3.4423,-3.5496,-3.5515,-3.6133,-3.2301,-3.3263,-3.4528,-3.6896,-3.8419,-3.9785,-4.1523,-4.2617,-4.3516,-4.4394,-4.3824,-4.3463,-4.4501,-4.4857,-4.4362,-4.2519,-4.2539,-4.183,-3.8893,-3.7332,-3.5876,-3.4461,-3.4527,0.0,0.0,0.0,0.0,-3.4997,-3.5162,-3.5634,-3.6352,-3.6365,-3.6365,-3.6365,-3.6378,-3.6196,-3.5807,-3.6095,-3.6095,-3.5807,-3.5968,-3.6211,-3.6502,-3.6912,-3.7959,-3.9379,-3.8475,-3.8424,-3.8998,-3.8536,-3.8735,-3.9278,-3.9278,-3.9632,-4.007,-4.007,-4.007,-4.007,-4.007,-4.007,-4.007,-4.007,-4.007,-4.007,-4.007,-3.9563,-3.8988,-3.8988,-3.8929,-3.8978,-3.9411,-3.9603,-3.9724,-3.9873,-3.9478,-3.9038,-3.8762,-3.8168,-3.7596,-3.7266,-3.6643,-3.6011,-3.565,-3.5622,-3.5622,-3.5622,-3.5622,-3.5622,-3.5622,-3.5182,-3.4962,-3.5216,-3.4134,-3.3914,-3.5131,-3.366,-3.3186,-3.4404,-3.3339,-3.2544,-3.229,-3.2496,-3.2435,-3.2039,-3.2809,-3.3273,-3.339,-3.368,-3.4015,-3.4386,-3.4386,-3.4567,-3.3037,-3.407,-3.5265,-3.7287,-3.8517,-3.957,-4.101,-4.1565,-4.1865,-4.2207,-4.1074,-4.0174,-4.0655,-4.0366,-3.9517,-3.7966,-3.7715,-3.7051,-3.515,-3.4264,-3.3703,-3.3264,-3.3895,0.0,0.0,0.0,0.0,-3.3845,-3.3997,-3.4374,-3.4926,-3.4776,-3.4851,-3.524,-3.5064,-3.4876,-3.4726,-3.5077,-3.4977,-3.4424,-3.4725,-3.5372,-3.6184,-3.6206,-3.7258,-3.9013,-3.7916,-3.7729,-3.82,-3.7775,-3.8116,-3.8918,-3.8874,-3.9396,-4.007,-4.007,-4.007,-4.007,-4.007,-4.007,-4.007,-4.007,-4.007,-4.007,-4.007,-3.9749,-3.9377,-3.9377,-3.9388,-3.9581,-4.0158,-4.0078,-3.9914,-4.0262,-3.9717,-3.9006,-3.8519,-3.7895,-3.736,-3.6981,-3.6374,-3.581,-3.5605,-3.5622,-3.5622,-3.5622,-3.5622,-3.5622,-3.5622,-3.5385,-3.5318,-3.5588,-3.4286,-3.4015,-3.5487,-3.3812,-3.3305,-3.481,-3.3964,-3.3305,-3.3068,-3.2849,-3.259,-3.2221,-3.2692,-3.3045,-3.3214,-3.3606,-3.3807,-3.3807,-3.3807,-3.3807,-3.378,-3.4916,-3.5782,-3.6694,-3.7579,-3.8433,-3.9267,-3.8828,-3.848,-3.933,-3.8729,-3.8046,0.0,0.0,-3.5452,-3.4638,-3.255,-3.1258,-3.1765,-3.1352,-3.152,0.0,0.0,0.0,0.0,0.0,0.0,-3.3144,0.0,-3.337,-3.3947,-3.3483,-3.3671,-3.4688,-3.4211,-3.4161,-3.4625,-3.4638,-3.4399,-3.3897,-3.3847,-3.466,-3.6129,-3.5471,-3.6368,-3.8318,-3.7585,-3.7377,-3.7541,-3.7495,-3.801,-3.8809,-3.8852,-3.9329,-4.0037,-4.007,-4.007,-4.007,-4.007,-4.007,-4.007,-4.007,-4.007,-4.007,-4.007,-4.007,-4.007,-4.007,-4.0497,-4.1041,-4.1621,-4.156,-4.1306,-4.1126,-4.0455,-3.9516,-3.8194,-3.7895,-3.7578,-3.658,-3.6374,-3.6182,-3.5694,-3.5622,-3.5622,-3.5622,-3.5622,-3.5622,-3.5622,-3.4996,-3.4827,-3.5537,-3.432,-3.4049,-3.5504,-3.4286,-3.4083,-3.5537,-3.4303,-3.3812,-3.4472,-3.3152,-3.2599,-3.2997,-3.2704,-3.2784,-3.3208,-3.3597,-3.3762,-3.3762,-3.3762,-3.3762,-3.5183,-3.5365,-3.5331,-3.7001,-3.7187,-3.7068,-3.7488,-3.7467,-3.724,-3.6938,-3.5641,-3.4562,0.0,0.0,0.0,-3.2197,-3.2845,0.0,-3.1088,-3.2068,0.0,-3.1925,0.0,-3.5203,-3.3612,-3.4118,0.0,0.0,-3.3696,-3.411,-3.5077,-3.4989,-3.4851,-3.4726,-3.4587,-3.4186,-3.3508,-3.3495,-3.3633,-3.3884,-3.3043,-3.3671,-3.5457,-3.4421,-3.5229,-3.7578,-3.6462,-3.6305,-3.6745,-3.6255,-3.6462,-3.7235,-3.7875,-3.856,-3.9261,-3.9868,-4.007,-4.007,-4.007,-4.007,-4.007,-4.007,-4.007,-4.007,-4.007,-4.007,-4.007,-4.007,-4.0497,-4.1041,-4.1621,-4.1149,-4.0601,-4.0998,-4.0151,-3.8972,-3.8108,-3.7749,-3.7347,-3.6561,-3.6054,-3.5783,-3.5605,-3.5622,-3.5622,-3.5622,-3.5622,-3.5622,-3.5622,-3.5453,-3.5402,-3.5605,-3.4776,-3.459,-3.5537,-3.4759,-3.4607,-3.5554,-3.5267,-3.4895,-3.4506,-3.4134,-3.3761,-3.3325,-3.3314,-3.3401,-3.3501,-3.3394,-3.3361,-3.3361,-3.3361,-3.3361,-3.5732,-3.5682,-3.5272,-3.6273,-3.6007,-3.568,-3.6213,-3.5823,-3.5103,-3.4352,-3.3103,0.0,-3.1118,0.0,0.0,0.0,0.0,0.0,-2.9258,-2.9927,-3.0614,0.0,-3.3338,0.0,-3.3908,-3.436,-3.4613,0.0,-3.4035,-3.4387,-3.5399,-3.5316,-3.5039,-3.4726,-3.4487,-3.3947,-3.3081,-3.283,-3.2855,-3.3144,-3.2265,-3.293,-3.4837,-3.3895,-3.4693,-3.6948,0.0,-3.5744,-3.6037,-3.5684,-3.5967,-3.6661,-3.7518,-3.8264,-3.8999,-3.9817,-4.007,-4.007,-4.007,-4.007,-4.007,-4.007,-4.007,-4.007,-4.007,-4.007,-4.007,-4.007,-4.0336,-4.075,-4.1578,-4.1113,-4.0518,-4.1088,-4.0382,-3.9265,-3.8407,-3.8099,-3.7716,-3.6749,-3.6065,-3.5622,-3.5622,-3.5622,-3.5622,-3.5622,-3.5622,-3.5622,-3.5622,-3.5622,-3.5622,-3.5622,-3.4945,-3.4793,-3.5554,-3.4928,-3.481,-3.5571,-3.5622,-3.5419,-3.5013,-3.4675,-3.4303,-3.3897,-3.354,-3.3335,-3.3335,-3.3022,-3.2872,-3.289,-3.3105,-3.3214,-3.5924,-3.5948,-3.534,-3.5021,-3.4499,-3.423,-3.4795,-3.3754,-3.2454,-3.1776,0.0,-2.9915,-2.8482,-2.8,-2.7897,-2.8194,0.0,-2.6129,-2.7572,-2.7191,-2.7692,-3.0136,-3.2015,-3.3359,-3.4198,-3.4489,-3.4717,-3.46,-3.4173,-3.4387,-3.5399,-3.509,-3.4763,-3.4613,-3.4073,-3.352,-3.2968,-3.2466,-3.2177,-3.2102,-3.1549,-3.2332,-3.4264,-3.3615,-3.4427,-3.6313,0.0,0.0,-3.5504,-3.5504,-3.5882,-3.652,-3.7364,-3.8107,-3.8854,-3.9625,-3.9986,-4.007,-4.007,-4.007,-4.007,-4.007,-4.007,-4.007,-4.007,-4.007,-4.007,-4.007,-4.0204,-4.0514,-4.1446,-4.1184,-4.0806,-4.1184,-4.0702,-3.9857,-3.8825,-3.8476,-3.803,-3.7029,-3.6146,-3.5622,-3.5622,-3.5622,-3.5622,-3.5622,-3.5622,-3.5622,-3.5622,-3.5622,-3.5622,-3.5622,-3.503,-3.4912,-3.5571,-3.5013,-3.4928,-3.5571,-3.5622,-3.5622,-3.5622,-3.4996,-3.4641,-3.4641,-3.3682,-3.3159,-3.3159,-3.2652,-3.2417,-3.2417,-3.2872,-3.3124,-3.6768,-3.6161,-3.4777,-3.4231,-3.3534,-3.2709,-3.1637,-3.0573,0.0,0.0,-2.9032,-2.8555,-2.8788,-2.8577,-2.8619,-2.9455,0.0,0.0,0.0,0.0,-2.872,0.0,0.0,0.0,0.0,0.0,0.0,0.0,0.0,0.0,-3.5399,-3.5454,-3.4989,-3.4073,-3.3508,-3.2943,-3.2365,-3.2265,-3.1989,-3.1524,-3.0997,-3.1695,-3.3555,-3.2986,-3.3819,-3.5699,0.0,0.0,-3.5504,-3.5504,-3.5604,-3.5737,-3.6492,-3.7292,-3.8105,-3.8827,-3.9518,-4.007,-4.007,-4.007,-4.007,-4.007,-4.007,-4.007,-4.007,-4.007,-4.007,-4.007,-4.0767,-4.1464,-4.1133,-4.1149,-4.1184,-4.0806,-4.0243,-3.9573,-3.8772,-3.782,-3.7046,-3.6852,-3.6146,-3.5622,-3.5622,-3.5622,-3.5622,-3.5622,-3.5622,-3.5622,-3.5622,-3.5622,-3.5622,-3.5622,-3.5504,-3.547,-3.5605,-3.5504,-3.547,-3.5605,-3.5622,-3.5622,-3.5622,-3.5504,-3.5419,-3.5419,-3.4432,-3.3917,-3.3917,-3.2555,-3.1915,-3.1915,-3.24,-3.2616,-3.6439,-3.6121,-3.4944,-3.3975,-3.297,-3.1899,-3.0638,0.0,0.0,0.0,-2.7644,-2.7246,-2.6844,-2.6881,0.0,-2.7443,-2.6762,0.0,0.0,0.0,0.0,0.0,0.0,0.0,0.0,0.0,0.0,0.0,0.0,0.0,-3.5077,-3.4851,-3.4449,-3.3922,-3.337,-3.2805,-3.2227,-3.1926,-3.1512,-3.0984,-3.0444,-3.1187,-3.2949,-3.2687,-3.3644,-3.5504,0.0,0.0,-3.5504,-3.5504,-3.5504,-3.5619,-3.6753,-3.7456,-3.7953,-3.9094,-3.9746,-4.007,-4.007,-4.007,-4.007,-4.007,-4.007,-4.007,-4.007,-4.007,-4.0154,-4.0443,-4.0954,-4.1464,-4.175,-4.1718,-4.1515,-4.1304,-4.0565,-3.9816,-3.9457,-3.8299,-3.7364,-3.7364,-3.6417,-3.5622,-3.5622,-3.5622,-3.5622,-3.5622,-3.5622,-3.5622,-3.5622,-3.5622,-3.5622,-3.5622,-3.5622,-3.5622,-3.5622,-3.5622,-3.5622,-3.5622,-3.5622,-3.5622,-3.5622,-3.5854,-3.6028,-3.6028,-3.5163,-3.4735,-3.4735,-3.2926,-3.2187,-3.2449,-3.2914,-3.3253,-3.5538,-3.56,-3.487,-3.3476,-3.2116,-3.0864,-2.9872,-2.8492,0.0,-2.7084,-2.6697,-2.619,-2.5512,-2.5301,-2.5351,0.0,-2.4956,-2.4746,0.0,0.0,0.0,0.0,0.0,0.0,0.0,0.0,0.0,0.0,0.0,0.0,0.0,-3.4135,-3.3847,-3.3721,-3.3181,-3.2616,-3.2039,-3.1499,-3.0959,-3.0432,-3.0213,-3.0983,-3.2607,-3.2839,-3.3831,-3.5504,0.0,0.0,0.0,-3.5504,-3.5619,-3.5846,-3.7055,-3.7732,-3.8174,-3.9428,-3.9935,-4.007,-4.007,-4.007,-4.007,-4.007,-4.007,-4.0138,-4.0239,-4.0256,-4.039,-4.0948,-4.1202,-4.1508,-4.2167,-4.205,-4.1687,-4.1279,-4.0543,-3.98,-3.9648,-3.8582,-3.7719,-3.7872,-3.6671,-3.5673,-3.5842,-3.5723,-3.5622,-3.5622,-3.5622,-3.5622,-3.5622,-3.5622,-3.5622,-3.5622,-3.5622,-3.5622,-3.5622,-3.5694,-3.5783,-3.5783,-3.5783,-3.5783,-3.5783,-3.6182,-3.6305,-3.6132,-3.5531,-3.5122,-3.4909,-3.3188,-3.2534,-3.2891,-3.3386,-3.3802,-3.427,-3.4309,-3.38,-3.2031,-3.0251,-2.8708,-2.8007,0.0,-2.5755,-2.7449,-2.6385,-2.5674,-2.7306,-2.566,-2.4778,-2.6945,-2.5787,-2.5507,0.0,0.0,0.0,0.0,0.0,0.0,0.0,0.0,0.0,0.0,0.0,0.0,0.0,-3.3922,-3.3671,-3.3169,-3.2591,-3.2026,-3.1474,-3.0947,-3.0407,-2.9867,-3.0722,-3.1609,-3.2607,-3.3508,-3.4448,-3.5504,0.0,0.0,0.0,-3.5504,-3.5894,-3.6492,-3.6661,-3.7557,-3.881,-3.8958,-3.9465,-4.007,-4.007,-4.007,-4.007,-4.007,-4.007,-4.0189,-4.0662,-4.0832,-4.095,-4.156,-4.2108,-4.2324,-4.1332,-4.1432,-4.1363,-3.9654,-3.9171,-3.892,-3.8261,-3.7466,-3.7094,-3.777,-3.6671,-3.5842,-3.6552,-3.6079,-3.5622,-3.5622,-3.5622,-3.5622,-3.5622,-3.5622,-3.5622,-3.5622,-3.5622,-3.5622,-3.5622,-3.6071,-3.635,-3.635,-3.635,-3.635,-3.635,-3.6374,-3.6063,-3.5313,-3.4984,-3.45,-3.3758,-3.2895,-3.2489,-3.2557,-3.3028,-3.3262,-3.2486,-3.2878,-3.2723,-3.0746,-2.9395,-2.8311,-2.738,0.0,-2.5825,-2.6588,-2.6343,-2.6002,-2.6182,-2.5235,-2.4433,-2.4426,-2.3867,-2.3755,-2.4728,0.0,0.0,0.0,0.0,0.0,0.0,0.0,0.0,0.0,0.0,0.0,0.0,-3.3407,-3.3144,-3.2579,-3.234,-3.18,-3.0934,-3.0721,-3.0331,-2.9792,-3.0211,-3.097,-3.2047,-3.2821,-3.3994,-3.5504,0.0,0.0,0.0,-3.5504,-3.5943,-3.6676,-3.7144,-3.7946,-3.8978,-3.9451,-3.9849,-4.007,-4.007,-4.007,-4.007,-4.007,-4.007,-4.0155,-4.0375,-4.0637,-4.1037,-4.1617,-4.1956,-4.2132,-4.2009,-4.1301,-4.0333,-3.9231,-3.8868,-3.873,-3.8565,-3.7973,-3.7686,-3.8413,-3.7936,-3.7441,-3.7449,-3.7212,-3.6992,-3.6992,-3.6992,-3.6823,-3.6383,-3.6315,-3.6146,-3.5673,-3.5622,-3.5622,-3.5622,-3.6097,-3.6374,-3.6374,-3.6684,-3.6882,-3.6882,-3.7173,-3.6932,-3.6131,-3.6006,-3.5538,-3.4733,-3.3681,-3.3308,-3.3588,-3.3813,-3.4057,-3.0762,-3.1262,-3.1332,-2.9526,-2.8519,-2.7829,0.0,0.0,-2.5893,-2.6451,-2.6329,-2.6027,-2.5676,-2.4847,-2.3945,-2.3087,-2.2752,-2.2677,-2.307,-2.3396,0.0,0.0,0.0,0.0,0.0,0.0,0.0,0.0,0.0,0.0,0.0,-3.2626,-3.2466,-3.2227,-3.1901,-3.1373,-3.062,-3.0457,-3.0181,-2.9779,-3.0144,-3.101,-3.2286,-3.3111,-3.4191,0.0,0.0,0.0,0.0,-3.5504,-3.607,-3.7024,-3.7573,-3.8374,-3.9315,-3.9901,-4.007,-4.007,-4.007,-4.007,-4.007,-4.007,-4.007,-4.007,-4.007,-4.045,-4.104,-4.1631,-4.1669,-4.164,-4.2072,-4.1031,-3.9753,-3.912,-3.8834,-3.8713,-3.8667,-3.8128,-3.7942,-3.8836,-3.8781,-3.854,-3.8261,-3.8041,-3.7905,-3.7905,-3.7905,-3.7635,-3.6874,-3.6772,-3.6485,-3.5707,-3.597,-3.6178,-3.6178,-3.6471,-3.6788,-3.718,-3.7334,-3.7396,-3.7396,-3.772,-3.7464,-3.6484,-3.6386,-3.6074,-3.5497,-3.4145,-3.3852,-3.4498,-3.4322,-3.4379,-2.9249,-2.9421,-2.9548,-2.8397,-2.7359,-2.6895,0.0,-2.6539,-2.5643,-2.7496,-2.6368,-2.5409,-2.6653,-2.4664,-2.3132,-2.4113,-2.3212,-2.2977,-2.4641,0.0,0.0,0.0,0.0,0.0,0.0,0.0,0.0,0.0,0.0,0.0,0.0,0.0,-3.165,-3.219,-3.1185,-3.062,-3.062,-3.0068,-2.9804,-2.9792,-3.111,-3.2341,-3.3592,-3.4852,0.0,0.0,0.0,0.0,0.0,-3.5504,-3.643,-3.7822,-3.7822,-3.8723,-4.007,-4.007,-4.007,-4.007,-4.007,-4.007,-4.007,-4.007,-4.007,-4.007,-4.007,-4.0493,-4.1016,-4.163,-4.1368,-4.0916,-4.0933,-4.0527,-3.9935,-3.9157,-3.8988,-3.8802,-3.8075,-3.7506,-3.7509,-3.8768,-3.8781,-3.8693,-3.892,-3.8379,-3.7905,-3.7905,-3.7905,-3.7635,-3.6874,-3.6772,-3.6485,-3.5707,-3.6792,-3.7567,-3.7567,-3.7343,-3.7717,-3.8994,-3.8326,-3.7893,-3.7893,-3.7911,-3.7255,-3.5932,-3.5729,-3.558,-3.5497,-3.396,-3.3826,-3.4972,-3.4192,-3.3807,-2.6896,-2.7434,-2.7977,-2.6644,-2.6516,-2.6744,-2.7067,-2.6384,-2.5825,-2.6425,-2.6027,-2.543,-2.5021,-2.4321,-2.3524,-2.2626,-2.277,-2.3176,0.0,0.0,0.0,0.0,0.0,0.0,0.0,0.0,0.0,0.0,0.0,0.0,0.0,0.0,-3.0545,-3.111,-3.0796,-3.0432,-3.0055,-2.988,-2.977,-2.9819,-3.1095,-3.2122,-3.3,-3.4736,0.0,0.0,0.0,0.0,0.0,-3.5504,-3.643,-3.7822,-3.7822,-3.8723,-4.007,-4.007,-4.007,-4.007,-4.007,-4.007,-4.007,-4.007,-4.007,-4.007,-4.007,-4.0459,-4.0931,-4.1152,-4.0676,-4.0197,-4.034,-3.9105,-3.8024,-3.8802,-3.8594,-3.8269,-3.8331,-3.88,-3.9255,-3.9681,-3.9681,-3.9647,-3.9715,-3.9546,-3.9394,-3.9394,-3.9394,-3.9123,-3.8379,-3.8294,-3.8007,-3.7263,-3.7092,-3.6997,-3.6772,-3.7831,-3.8438,-3.829,-3.8394,-3.8465,-3.8465,-3.8099,-3.7446,-3.6484,-3.5828,-3.5245,-3.4673,-3.3975,-3.3808,-3.4174,-3.3917,-3.3807,-2.5351,-2.5913,-2.6396,-2.5261,-2.5519,-2.619,-2.6471,-2.5766,-2.5111,-2.5429,-2.4997,-2.4326,-2.3546,-2.3083,-2.2574,-2.2021,-2.222,-2.2652,0.0,0.0,0.0,0.0,0.0,0.0,0.0,0.0,0.0,0.0,0.0,0.0,0.0,0.0,-2.9942,-3.0294,-3.0306,-3.0143,-2.9792,-2.9834,-3.0074,-3.0568,-3.1558,-3.2611,-3.3733,0.0,0.0,0.0,0.0,0.0,0.0,-3.5782,-3.6646,-3.7822,-3.8092,-3.8995,-4.007,-4.007,-4.007,-4.007,-4.007,-4.007,-4.002,-3.9766,-3.9665,-3.9682,-3.9563,-3.9766,-4.0087,-4.0476,-4.0051,-3.9576,-4.0002,-3.9056,-3.8261,-3.9191,-3.9052,-3.8812,-3.9123,-3.963,-4.0102,-4.0104,-4.007,-4.007,-4.007,-4.007,-4.007,-4.007,-4.007,-3.9817,-3.9089,-3.8988,-3.8717,-3.799,-3.8134,-3.7966,-3.7167,-3.7889,-3.8599,-3.9073,-3.8844,-3.8707,-3.8707,-3.8382,-3.7736,-3.6723,-3.5945,-3.5425,-3.5195,-3.4892,-3.4578,-3.4266,-3.4266,-3.4431,0.0,-2.4754,-2.4838,-2.4191,-2.4486,-2.5163,-2.5912,-2.4756,0.0,-2.4481,-2.3462,-2.2462,-2.2431,-2.1301,-2.0785,-2.2161,-2.1699,0.0,0.0,0.0,0.0,0.0,0.0,0.0,0.0,0.0,0.0,0.0,0.0,0.0,0.0,0.0,0.0,-2.9792,-2.9792,-2.9779,-2.9819,-2.9845,-3.0542,-3.177,-3.243,-3.3704,-3.5463,0.0,0.0,0.0,0.0,0.0,0.0,-3.6198,-3.699,-3.7719,-3.8537,-3.9301,-4.0003,-4.0054,-4.007,-4.007,-4.007,-4.007,-3.9952,-3.9191,-3.884,-3.874,-3.8652,-3.8638,-3.8875,-3.9648,-3.948,-3.9227,-3.9868,-3.9918,-3.9868,-3.9969,-4.0036,-4.0019,-4.0087,-4.0121,-4.007,-4.007,-4.007,-4.007,-4.007,-4.007,-4.007,-4.007,-4.007,-3.9834,-3.9157,-3.9071,-3.8766,-3.8089,-3.953,-3.9952,-3.8553,-3.7851,-3.8456,-4.0771,-3.9533,-3.8707,-3.8707,-3.8658,-3.8054,-3.6795,-3.6067,-3.6013,-3.6648,-3.6437,-3.5881,-3.5082,-3.5082,-3.5532,-2.2572,0.0,-2.3852,-2.3447,-2.3538,-2.3758,0.0,-2.3341,-2.2817,-2.3008,-2.2417,-2.1852,-2.1815,-2.1385,-2.1287,-2.2188,-2.2321,0.0,0.0,0.0,0.0,0.0,0.0,0.0,0.0,0.0,0.0,0.0,0.0,0.0,0.0,0.0,0.0,-2.9779,-2.9792,-2.977,-2.9768,-3.0485,-3.1414,-3.2403,-3.3249,-3.4336,-3.5472,0.0,0.0,0.0,0.0,0.0,-3.4775,-3.5462,-3.5943,-3.6309,-3.7567,-3.8552,-3.9326,-3.9868,-4.007,-4.007,-4.007,-4.007,-3.9918,-3.8589,-3.7385,-3.6651,-3.8164,-3.9134,-3.9484,-3.8187,-3.8772,-3.9747,-3.9357,-3.8413,-3.7838,-3.8971,-3.9071,-3.9168,-3.9914,-4.0086,-4.007,-4.007,-4.007,-4.007,-4.007,-4.007,-4.007,-4.007,-4.007,-4.002,-3.9834,-3.9648,-3.9485,-3.9313,-3.9038,-3.9096,-3.9693,-4.0003,-3.9911,-3.9282,-3.8909,-3.8707,-3.8707,-3.83,-3.7941,-3.7623,-3.6847,-3.6449,-3.6394,-3.6318,-3.6193,-3.5991,-3.5991,-3.6101,-2.1306,-2.1713,-2.2256,-2.1939,-2.187,-2.187,-2.1883,-2.126,-2.0726,-2.0726,-2.0476,-2.0396,-2.0617,-2.0381,-2.0542,-2.1824,-2.1681,0.0,0.0,0.0,0.0,0.0,0.0,0.0,0.0,0.0,0.0,0.0,0.0,0.0,0.0,0.0,0.0,0.0,-2.9013,-2.9164,-2.9376,-3.0904,-3.1746,-3.1814,-3.3345,-3.4404,-3.504,0.0,0.0,0.0,0.0,0.0,-3.4085,-3.4833,-3.5331,-3.5796,-3.6918,-3.7953,-3.8865,-3.9037,-3.9089,-3.9089,-3.9089,-3.8853,-3.8464,-3.7679,-3.6844,-3.6273,-3.6983,-3.7929,-3.8611,-3.7942,-3.8231,-3.8809,-3.9372,-3.8563,-3.7841,-3.8785,-3.8885,-3.8916,-3.9474,-3.9883,-3.9986,-3.9648,-3.9851,-3.9969,-3.9631,-3.9868,-3.9969,-3.9631,-3.9868,-3.9952,-3.9631,-3.9688,-3.9703,-3.9703,-3.94,-3.9314,-3.9662,-4.0315,-4.0304,-3.9313,-3.8909,-3.8707,-3.8707,-3.8415,-3.8085,-3.7703,-3.7285,-3.6827,-3.6303,-3.667,-3.6835,-3.6835,-3.6835,-3.6835,-2.0395,-2.044,-2.0578,-2.0051,-1.9851,-1.9767,-1.9721,-1.9036,-1.8464,-1.8525,-1.8614,-1.8875,0.0,-1.9215,0.0,0.0,0.0,0.0,0.0,0.0,0.0,0.0,0.0,0.0,0.0,0.0,0.0,0.0,0.0,0.0,0.0,0.0,0.0,0.0,-2.8243,-2.8455,-2.8684,-3.0976,-3.175,-3.1114,-3.3152,-3.4203,-3.4322,-3.4322,0.0,0.0,0.0,0.0,-3.3411,-3.4306,-3.4942,-3.5498,-3.6401,-3.7401,-3.8303,-3.8021,-3.7905,-3.7905,-3.7905,-3.7415,-3.6806,-3.6907,-3.6789,-3.6502,-3.596,-3.631,-3.7034,-3.7916,-3.7618,-3.748,-3.9185,-3.9001,-3.8398,-3.8616,-3.8751,-3.8819,-3.8819,-3.9394,-3.9766,-3.9259,-3.9563,-3.9749,-3.9242,-3.958,-3.9698,-3.9089,-3.9512,-3.9697,-3.9033,-3.9336,-3.9658,-3.9625,-3.9818,-3.9733,-3.9082,-3.967,-3.995,-3.9717,-3.9074,-3.8707,-3.8707,-3.8707,-3.8377,-3.7679,-3.7661,-3.7331,-3.667,-3.7349,-3.7661,-3.7661,-3.7661,-3.7661,-2.0,-1.9799,-1.9571,-1.8454,-1.8035,-1.7821,-1.7472,-1.7562,-1.783,-1.8248,-1.8363,-1.8838,0.0,-1.9218,-1.8951,0.0,0.0,0.0,0.0,0.0,0.0,0.0,0.0,0.0,0.0,0.0,0.0,0.0,0.0,0.0,0.0,0.0,0.0,0.0,0.0,-2.8765,-2.7821,-2.9932,-3.1516,-3.2476,-3.3245,-3.3622,-3.3649,-3.3649,-3.3649,0.0,0.0,-3.3185,-3.2751,-3.4105,-3.4336,-3.4105,-3.6031,-3.6932,-3.7157,-3.7686,-3.7905,-3.7905,-3.7905,-3.7415,-3.6891,-3.7533,-3.6857,-3.5893,-3.6434,-3.6248,-3.5859,-3.6039,-3.6564,-3.7174,-3.7458,-3.731,-3.7077,-3.711,-3.7601,-3.8075,-3.8075,-3.865,-3.9309,-3.9817,-3.9512,-3.9326,-3.9817,-3.9495,-3.9123,-3.9005,-3.9089,-3.9047,-3.8722,-3.9128,-3.9363,-3.9135,-3.9018,-3.8857,-3.8779,-3.8878,-3.8927,-3.8891,-3.8781,-3.8707,-3.8707,-3.8707,-3.8652,-3.8524,-3.8524,-3.8469,-3.834,-3.8469,-3.8524,-3.8524,-3.8524,-3.8524,-1.8872,-1.8727,-1.8369,-1.6244,-1.6501,-1.6997,-1.6103,-1.5853,-1.5965,-1.6762,-1.7103,0.0,0.0,0.0,0.0,0.0,0.0,0.0,0.0,0.0,0.0,0.0,0.0,0.0,0.0,0.0,0.0,0.0,0.0,0.0,0.0,0.0,0.0,0.0,0.0,0.0,-2.7363,-2.8745,-2.976,-3.0397,-3.2139,-3.2766,-3.2452,-3.2796,-3.2961,-3.2946,0.0,-3.2258,-3.2018,-3.3077,-3.3552,-3.3716,-3.5068,-3.5836,-3.6197,-3.6535,-3.6671,-3.6671,-3.6671,-3.6451,-3.6214,-3.6569,-3.6197,-3.569,-3.6045,-3.591,-3.5622,-3.5622,-3.5949,-3.6308,-3.6308,-3.6211,-3.6308,-3.6852,-3.681,-3.6831,-3.733,-3.8244,-3.8971,-3.892,-3.9276,-3.9563,-3.9512,-3.9529,-3.9309,-3.8531,-3.8734,-3.8772,-3.8069,-3.845,-3.8848,-3.8978,-3.8806,-3.8707,-3.8707,-3.8707,-3.8707,-3.8707,-3.8707,-3.8707,-3.8707,-3.8707,-3.8707,-3.8707,-3.8707,-3.8707,-3.8707,-3.8707,-3.8707,-3.8707,-3.8707,-3.823,-1.7946,-1.775,-1.7238,-1.4477,-1.5088,-1.6154,-1.5033,-1.4577,-1.4741,-1.6018,-1.6459,0.0,0.0,0.0,0.0,0.0,0.0,0.0,0.0,0.0,0.0,0.0,0.0,0.0,0.0,0.0,0.0,0.0,0.0,0.0,0.0,0.0,0.0,0.0,0.0,0.0,-2.7195,-2.8115,-2.8606,-2.8621,-3.0787,-3.1582,-3.1091,-3.1599,-3.1913,-3.2003,-3.136,-3.124,-3.1554,-3.23,-3.303,-3.37,-3.4513,-3.5168,-3.5622,-3.5622,-3.5622,-3.5622,-3.5622,-3.5622,-3.5622,-3.5622,-3.5622,-3.5622,-3.5622,-3.5622,-3.5622,-3.5622,-3.5588,-3.5597,-3.5597,-3.5597,-3.5778,-3.6598,-3.6291,-3.611,-3.6869,-3.7801,-3.8362,-3.799,-3.8667,-3.9174,-3.8802,-3.9056,-3.902,-3.8197,-3.8567,-3.8694,-3.7976,-3.8364,-3.8772,-3.892,-3.878,-3.8707,-3.8707,-3.8707,-3.8707,-3.8707,-3.8707,-3.8707,-3.8707,-3.8707,-3.8707,-3.8707,-3.8707,-3.8707,-3.8707,-3.8707,-3.8707,-3.8707,-3.8707,-3.7936,-1.7796,-1.72,-1.6164,-1.4013,-1.4056,-1.4587,-1.4141,-1.4342,-1.5234,-1.7491,-1.765,0.0,0.0,0.0,0.0,0.0,0.0,0.0,0.0,0.0,0.0,0.0,0.0,0.0,0.0,0.0,0.0,0.0,0.0,0.0,0.0,0.0,0.0,0.0,0.0,0.0,-2.7295,-2.8769,-2.9522,-2.9524,-2.9713,-2.981,-2.9729,-2.9774,-3.0103,-3.0612,-2.9998,-3.0417,-3.1582,-3.2314,-3.2998,-3.3751,-3.5021,-3.5577,-3.5622,-3.5622,-3.5622,-3.5622,-3.5622,-3.5622,-3.5622,-3.5622,-3.5622,-3.5622,-3.5622,-3.5622,-3.5622,-3.5622,-3.5577,-3.5594,-3.5594,-3.5594,-3.5611,-3.5707,-3.6231,-3.6721,-3.6789,-3.6874,-3.7127,-3.7787,-3.7432,-3.7229,-3.7872,-3.7449,-3.741,-3.8493,-3.8703,-3.8793,-3.8977,-3.9644,-3.9697,-3.8834,-3.8695,-3.8707,-3.8707,-3.8707,-3.8707,-3.8707,-3.8707,-3.8707,-3.8707,-3.8707,-3.8707,-3.8707,-3.8707,-3.8707,-3.8707,-3.8707,-3.8707,-3.8707,-3.8707,-3.823,-1.7799,-1.6991,-1.5923,-1.4164,-1.3789,-1.3803,-1.3578,-1.3729,-1.4598,-1.6678,-1.7257,0.0,0.0,0.0,0.0,0.0,0.0,0.0,0.0,0.0,0.0,0.0,0.0,0.0,0.0,0.0,0.0,0.0,0.0,0.0,0.0,0.0,0.0,0.0,0.0,0.0,0.0,-2.7861,-2.8344,-2.8387,-2.923,-2.9402,-2.8981,-2.94,-2.9699,-2.9924,-2.9684,-2.9864,-3.0398,-3.1071,-3.206,-3.321,-3.4297,-3.48,-3.4979,-3.5453,-3.5622,-3.5622,-3.5622,-3.5622,-3.5622,-3.5622,-3.5622,-3.5622,-3.5622,-3.5622,-3.5622,-3.5622,-3.5622,-3.5622,-3.5622,-3.5622,-3.5622,-3.5622,-3.5842,-3.6062,-3.6062,-3.6434,-3.6857,-3.7144,-3.7347,-3.7567,-3.7855,-3.7669,-3.7492,-3.753,-3.7774,-3.7958,-3.7931,-3.842,-3.8769,-3.8682,-3.8707,-3.8707,-3.8707,-3.8707,-3.8707,-3.8707,-3.8707,-3.8707,-3.8707,-3.8707,-3.8707,-3.8707,-3.8707,-3.8707,-3.8707,-3.8707,-3.8707,-3.8689,-3.8193,-3.7771,-1.7717,-1.6423,-1.4942,-1.3958,-1.3344,-1.3001,-1.3209,-1.3507,-1.442,-1.6828,-1.7878,-1.8628,-1.9514,0.0,0.0,0.0,0.0,0.0,0.0,0.0,0.0,0.0,0.0,0.0,0.0,0.0,0.0,0.0,0.0,0.0,0.0,0.0,0.0,0.0,0.0,0.0,0.0,-2.6748,-2.6946,-2.6961,-2.812,-2.8539,-2.8293,-2.8742,-2.9064,-2.9275,-2.9049,-2.919,-2.9648,-3.0083,-3.1236,-3.2765,-3.3423,-3.4011,-3.4556,-3.5081,-3.5419,-3.5622,-3.5622,-3.5622,-3.5622,-3.5622,-3.5622,-3.5622,-3.5622,-3.5622,-3.5622,-3.5622,-3.5622,-3.5622,-3.5622,-3.5622,-3.5622,-3.5622,-3.5622,-3.5622,-3.5622,-3.6045,-3.6417,-3.6417,-3.684,-3.7178,-3.7178,-3.7301,-3.7382,-3.7342,-3.7694,-3.8011,-3.8025,-3.8325,-3.8573,-3.8695,-3.8707,-3.8707,-3.8707,-3.8707,-3.8707,-3.8707,-3.8707,-3.8707,-3.8707,-3.8707,-3.8707,-3.8707,-3.8707,-3.8579,-3.8322,-3.8322,-3.8193,-3.7936,-3.7367,-3.6964,-1.7617,-1.5367,-1.3096,-1.3324,-1.2643,-1.2111,-1.3006,-1.3661,-1.5085,-1.8378,-1.9851,-2.0293,-1.9453,0.0,0.0,0.0,0.0,0.0,0.0,0.0,0.0,0.0,0.0,0.0,0.0,0.0,0.0,0.0,0.0,0.0,0.0,0.0,0.0,0.0,0.0,0.0,0.0,-2.5615,-2.5615,-2.5615,-2.6264,-2.6924,-2.761,-2.7625,-2.7936,-2.8536,-2.7891,-2.8323,-2.9544,-2.9597,-3.0736,-3.2479,-3.2479,-3.3301,-3.4472,-3.4489,-3.4979,-3.5622,-3.5622,-3.5622,-3.5622,-3.5622,-3.5622,-3.5622,-3.5622,-3.5622,-3.5622,-3.5622,-3.5622,-3.5622,-3.5622,-3.5622,-3.5622,-3.5622,-3.5622,-3.5622,-3.5622,-3.5622,-3.5622,-3.5622,-3.5622,-3.5622,-3.5622,-3.6054,-3.6864,-3.8196,-3.8778,-3.9293,-3.9832,-3.9882,-3.957,-3.8799,-3.8707,-3.8707,-3.8707,-3.8707,-3.8707,-3.8707,-3.8707,-3.8707,-3.8689,-3.8689,-3.8689,-3.8689,-3.8689,-3.8303,-3.7507,-3.7507,-3.7074,-3.6303,-3.6285,-3.5844,-1.7623,-1.567,-1.3667,-1.37,0.0,0.0,-1.31,-1.3507,-1.4615,0.0,-1.9027,-1.9678,-1.9727,0.0,0.0,0.0,0.0,0.0,0.0,0.0,0.0,0.0,0.0,0.0,0.0,0.0,0.0,0.0,0.0,0.0,0.0,0.0,0.0,0.0,0.0,0.0,0.0,0.0,-2.5604,-2.5615,-2.5804,-2.6236,-2.6901,-2.7365,-2.743,-2.7229,-2.7475,-2.7545,-2.7585,-2.8904,-2.9793,-3.0441,-3.1815,-3.2925,-3.3795,-3.4303,-3.4979,-3.5622,-3.5622,-3.5622,-3.5622,-3.5622,-3.561,-3.5613,-3.5616,-3.561,-3.5613,-3.5588,-3.5622,-3.5622,-3.5622,-3.5622,-3.5622,-3.5622,-3.5622,-3.5622,-3.5622,-3.5622,-3.5622,-3.5622,-3.5898,-3.6182,-3.6182,-3.6603,-3.7108,-3.7491,-3.7864,-3.8352,-3.8957,-3.9056,-3.8964,-3.8726,-3.8707,-3.8707,-3.8707,-3.8707,-3.8707,-3.8707,-3.8707,-3.845,-3.7863,-3.7845,-3.7845,-3.7845,-3.7845,-3.7734,-3.7507,-3.7507,-3.7074,-3.6285,-3.5679,-3.5587,-1.771,-1.6194,-1.4589,-1.4026,-1.3633,-1.3425,-1.3669,0.0,0.0,0.0,0.0,-1.9512,0.0,0.0,0.0,0.0,0.0,0.0,0.0,0.0,0.0,0.0,0.0,0.0,0.0,0.0,0.0,0.0,0.0,0.0,0.0,0.0,0.0,0.0,0.0,0.0,0.0,0.0,0.0,-2.4822,-2.5076,-2.542,-2.5821,-2.6497,-2.6576,-2.6219,-2.6905,-2.692,-2.6615,-2.806,-2.9042,-2.9722,-3.0771,-3.1884,-3.3017,-3.344,-3.4269,-3.5148,-3.5074,-3.5108,-3.5148,-3.5074,-3.4924,-3.472,-3.4749,-3.5152,-3.5589,-3.5616,-3.5622,-3.5622,-3.5622,-3.5622,-3.5622,-3.5622,-3.5622,-3.5622,-3.5622,-3.5622,-3.5622,-3.5622,-3.6011,-3.6374,-3.6374,-3.6981,-3.747,-3.747,-3.7823,-3.8227,-3.8658,-3.8707,-3.8707,-3.8707,-3.8707,-3.8579,-3.8248,-3.8212,-3.8083,-3.7771,-3.7753,-3.7533,-3.7037,-3.7342,-3.7507,-3.7507,-3.7507,-3.7507,-3.7507,-3.7507,-3.6909,-3.5771,-3.5229,-3.5165,-1.7867,-1.6896,-1.5725,-1.441,-1.4214,0.0,-1.4804,-1.6461,-1.8124,-1.8461,0.0,0.0,0.0,0.0,0.0,0.0,0.0,0.0,0.0,0.0,0.0,0.0,0.0,0.0,0.0,0.0,0.0,0.0,0.0,0.0,0.0,0.0,0.0,0.0,0.0,0.0,0.0,0.0,-2.2888,0.0,-2.4021,-2.4354,-2.4477,-2.5239,-2.5588,-2.5637,-2.6189,-2.6354,-2.6331,-2.7195,-2.8465,-2.9733,-2.9524,-3.0592,-3.2232,-3.2222,-3.3136,-3.4397,-3.4228,-3.4313,-3.4336,-3.4143,-3.3677,-3.3212,-3.3184,-3.4141,-3.5248,-3.5379,-3.5419,-3.5419,-3.5419,-3.5357,-3.5341,-3.5391,-3.5493,-3.5622,-3.5622,-3.5622,-3.5605,-3.552,-3.5951,-3.6353,-3.6353,-3.7198,-3.7889,-3.7962,-3.8291,-3.8597,-3.8689,-3.8707,-3.8707,-3.8707,-3.8707,-3.8377,-3.7551,-3.7507,-3.7147,-3.634,-3.6303,-3.6266,-3.6174,-3.6872,-3.7294,-3.7397,-3.7294,-3.7257,-3.7257,-3.7316,-3.6489,-3.4936,-3.4945,-3.4707,-1.8265,-1.735,0.0,-1.566,-1.5367,-1.5568,-1.6773,-1.7436,-1.7743,-1.7575,0.0,0.0,0.0,0.0,0.0,0.0,0.0,0.0,0.0,0.0,0.0,0.0,0.0,0.0,0.0,0.0,0.0,0.0,0.0,0.0,0.0,0.0,0.0,0.0,0.0,0.0,-2.2113,-2.1973,-2.1973,0.0,-2.2241,-2.2584,-2.3176,-2.4852,-2.5588,-2.5591,-2.5181,-2.5327,-2.5863,-2.701,-2.7753,-2.8161,-2.9396,-3.0613,-3.1622,-3.1498,-3.2352,-3.3677,-3.4058,-3.3931,-3.3575,-3.3153,-3.2395,-3.1674,-3.1666,-3.1893,-3.2386,-3.355,-3.388,-3.388,-3.388,-3.3592,-3.3405,-3.3782,-3.4745,-3.5622,-3.5622,-3.5622,-3.5453,-3.4844,-3.5399,-3.603,-3.6086,-3.6906,-3.7796,-3.8436,-3.7912,-3.7741,-3.8597,-3.8707,-3.8707,-3.8707,-3.8707,-3.8377,-3.7551,-3.7507,-3.7147,-3.634,-3.6303,-3.5991,-3.533,-3.5459,-3.5862,-3.6541,-3.5899,-3.555,-3.555,-3.5787,-3.5379,-3.4383,-3.4637,-3.4717,-1.8608,-1.8084,0.0,-1.6649,0.0,-1.5752,-1.7104,-1.7117,-1.6981,0.0,0.0,0.0,0.0,0.0,0.0,0.0,0.0,0.0,0.0,0.0,0.0,0.0,0.0,0.0,0.0,0.0,0.0,0.0,0.0,0.0,0.0,0.0,0.0,0.0,0.0,-2.1391,-2.1695,-2.1392,-2.1392,-2.1695,-2.1704,-2.1873,-2.2301,-2.3895,-2.4627,-2.4641,-2.4627,-2.4626,-2.4775,-2.6329,-2.7101,-2.7531,-2.9042,-3.0113,-3.0881,-3.111,-3.1996,-3.3025,-3.2812,-3.2897,-3.2957,-3.2232,-3.1611,-3.12,-3.1199,-3.1223,-3.1372,-3.2119,-3.2337,-3.2337,-3.2337,-3.216,-3.2219,-3.3253,-3.4304,-3.5287,-3.5958,-3.6036,-3.5934,-3.5797,-3.6385,-3.6863,-3.6898,-3.7566,-3.8046,-3.7943,-3.7888,-3.8083,-3.8634,-3.8707,-3.8505,-3.7979,-3.8395,-3.8046,-3.645,-3.6688,-3.6395,-3.5183,-3.5459,-3.5561,-3.5262,-3.5621,-3.5781,-3.5679,-3.5385,-3.5428,-3.5816,-3.613,-3.5848,-3.5004,-3.5176,-3.5132,-1.903,-1.8755,-1.8459,-1.7515,-1.6386,0.0,-1.6731,-1.6497,-1.6381,0.0,0.0,0.0,0.0,0.0,0.0,0.0,0.0,0.0,0.0,0.0,0.0,0.0,0.0,0.0,0.0,0.0,0.0,0.0,0.0,0.0,0.0,0.0,0.0,0.0,-2.0513,-2.0797,-2.1335,-2.0812,-2.0812,-2.135,-2.147,-2.1585,-2.1732,-2.2924,-2.3398,-2.3308,-2.4088,-2.4044,-2.3596,-2.5454,-2.6512,-2.7017,-2.8319,-2.9241,-2.9943,-3.0852,-3.1726,-3.2309,-3.1484,-3.1585,-3.1958,-3.1376,-3.1213,-3.1173,-3.12,-3.1211,-3.1204,-3.1224,-3.1175,-3.1175,-3.1175,-3.1175,-3.1549,-3.2985,-3.3796,-3.4618,-3.6058,-3.6226,-3.6207,-3.6531,-3.697,-3.7332,-3.7398,-3.7763,-3.7826,-3.7063,-3.7808,-3.8414,-3.8432,-3.8579,-3.837,-3.7459,-3.7918,-3.7477,-3.5542,-3.591,-3.557,-3.396,-3.4547,-3.5073,-3.5352,-3.6011,-3.5901,-3.4961,-3.5361,-3.5819,-3.6354,-3.6622,-3.6394,-3.5775,-3.5815,-3.559,-1.9527,0.0,-1.797,0.0,-1.7372,-1.652,0.0,0.0,0.0,0.0,0.0,0.0,0.0,0.0,0.0,0.0,0.0,0.0,0.0,0.0,0.0,0.0,0.0,0.0,0.0,0.0,0.0,0.0,0.0,0.0,0.0,0.0,-1.9342,-1.9819,-1.9818,-1.9869,-1.9959,-1.9869,-1.9869,-1.9959,-2.0557,-2.1156,-2.1715,-2.2473,-2.252,-2.2007,-2.323,-2.3375,-2.2964,-2.4795,-2.5582,-2.5733,-2.6839,-2.7865,-2.8915,-3.0603,-3.127,-3.1389,-3.1269,-3.0432,-2.9698,-3.083,-3.1206,-3.1198,-3.1213,-3.1185,-3.1202,-3.1179,-3.1196,-3.1196,-3.1196,-3.1196,-3.1382,-3.2115,-3.2766,-3.3505,-3.4725,-3.4939,-3.4764,-3.4182,-3.4518,-3.4987,-3.5334,-3.5439,-3.5687,-3.6321,-3.693,-3.7316,-3.7301,-3.8125,-3.8645,-3.8497,-3.7371,-3.6673,-3.6805,-3.6337,-3.5492,-3.4221,-3.4514,-3.476,-3.4802,-3.4896,-3.4894,-3.4739,-3.5461,-3.5558,-3.4971,-3.523,-3.5319,-3.5205,-3.5461,-3.5513,-2.0179,-1.9552,-1.9103,0.0,-1.8307,-1.7913,-1.7913,0.0,0.0,0.0,0.0,0.0,0.0,0.0,0.0,0.0,0.0,0.0,0.0,0.0,0.0,0.0,0.0,0.0,0.0,0.0,0.0,0.0,0.0,0.0,0.0,-1.9043,-1.9442,-1.969,-1.969,0.0,-1.969,-1.969,-1.969,-1.969,-1.9989,-2.0288,-2.0587,-2.1261,-2.1824,-2.228,-2.2843,-2.2745,-2.223,-2.3277,-2.4132,-2.4831,-2.6027,-2.7156,-2.8243,-2.9519,-3.0122,-3.0367,-3.0377,-2.9563,-2.8548,-2.8645,-2.9252,-3.0034,-3.0256,-3.0458,-3.0666,-3.1072,-3.119,-3.1252,-3.147,-3.1545,-3.1731,-3.242,-3.2869,-3.3318,-3.4042,-3.4702,-3.5142,-3.5128,-3.5296,-3.5367,-3.5036,-3.5404,-3.5862,-3.6229,-3.6883,-3.7489,-3.7955,-3.8412,-3.835,-3.7441,-3.5886,-3.499,-3.5232,-3.5715,-3.5581,-3.4655,-3.5084,-3.5245,-3.4945,-3.6255,-3.6407,-3.5176,-3.5341,-3.5268,-3.4926,-3.519,-3.532,-3.5339,-3.5446,-3.5493,0.0,0.0,-1.9951,-1.9297,-1.8825,-1.8544,0.0,0.0,0.0,0.0,0.0,0.0,0.0,0.0,0.0,0.0,0.0,0.0,0.0,0.0,0.0,0.0,0.0,0.0,0.0,0.0,0.0,0.0,0.0,0.0,-1.8893,-1.9406,-1.969,-1.969,-1.969,-1.969,-1.969,-1.969,-1.969,-1.969,-1.969,-1.9779,-1.9959,-2.0483,-2.1261,-2.2188,-2.2353,-2.2054,-2.1539,-2.2449,-2.3413,-2.4317,-2.5727,-2.6785,-2.7638,-2.8399,-2.8808,-2.8963,-2.9253,-2.8668,-2.7727,-2.7228,-2.7811,-2.8805,-2.934,-2.9722,-3.0088,-3.0857,-3.1052,-3.1151,-3.1722,-3.2004,-3.2248,-3.2857,-3.3094,-3.3302,-3.3707,-3.4451,-3.5187,-3.5585,-3.5661,-3.5459,-3.4816,-3.5238,-3.5661,-3.5661,-3.634,-3.711,-3.779,-3.835,-3.7908,-3.5875,-3.5284,-3.4713,-3.387,-3.5063,-3.5569,-3.4907,-3.5457,-3.5627,-3.5209,-3.6986,-3.7319,-3.5949,-3.5438,-3.5207,-3.5207,-3.5398,-3.5493,-3.5493,-3.5493,-3.5493,0.0,-2.0706,0.0,-1.9683,-1.8643,0.0,0.0,0.0,0.0,0.0,0.0,0.0,0.0,0.0,0.0,0.0,0.0,0.0,0.0,0.0,0.0,0.0,0.0,0.0,0.0,0.0,0.0,0.0,0.0,0.0,-1.8893,-1.9406,-1.969,-1.969,-1.969,-1.969,-1.969,-1.969,-1.969,-1.969,-1.969,-2.0034,-2.0662,-2.0692,-2.0752,-2.0857,-2.1485,-2.138,-2.0933,-2.3164,-2.4163,-2.4337,-2.6031,-2.6725,-2.6843,-2.7604,-2.7431,-2.6971,-2.7967,-2.7629,-2.6937,-2.7847,-2.8005,-2.8027,-2.8789,-2.9262,-2.9713,-3.0491,-3.0644,-3.0788,-3.182,-3.2519,-3.295,-3.3003,-3.3094,-3.3302,-3.3707,-3.3835,-3.389,-3.3917,-3.3935,-3.3917,-3.3862,-3.3899,-3.3935,-3.3935,-3.4614,-3.5257,-3.5615,-3.7433,-3.7479,-3.4284,-3.6626,-3.7178,-3.4064,-3.4849,-3.528,-3.4746,-3.5209,-3.5518,-3.5479,-3.5595,-3.6142,-3.7088,-3.6045,-3.5479,-3.5479,-3.5493,-3.5493,-3.5493,-3.5493,-3.5493,0.0,0.0,0.0,-2.0597,-1.9697,-1.898,0.0,0.0,0.0,0.0,0.0,0.0,0.0,0.0,0.0,0.0,0.0,0.0,0.0,0.0,0.0,0.0,0.0,0.0,0.0,0.0,0.0,0.0,0.0,0.0,-1.9406,-1.9281,-1.9207,-1.9207,-1.8855,-1.865,-1.865,-1.865,-1.8855,-1.9207,-1.9207,-1.9487,-2.0049,-2.0049,-2.0049,-2.0064,-2.0303,-2.0273,-2.0152,-2.1248,-2.216,-2.2937,-2.3803,-2.4894,-2.6031,-2.6301,-2.6505,-2.6741,-2.7113,-2.7012,-2.6758,-2.713,-2.7164,-2.7249,-2.801,-2.8439,-2.8853,-2.9679,-3.0992,-3.21,-3.2045,-3.2594,-3.3183,-3.3458,-3.356,-3.3606,-3.3762,-3.3807,-3.3807,-3.3807,-3.3807,-3.3807,-3.3807,-3.3807,-3.3972,-3.4504,-3.4807,-3.5257,-3.5946,-3.6572,-3.6556,-3.5528,-3.5474,-3.5369,-3.4923,-3.5266,-3.542,-3.5239,-3.5388,-3.5493,-3.5493,-3.5498,-3.5685,-3.6098,-3.643,-3.6238,-3.5493,-3.5493,-3.5493,-3.5493,-3.5493,-3.5493,-2.3171,0.0,0.0,0.0,0.0,-1.9798,0.0,0.0,0.0,0.0,0.0,0.0,0.0,0.0,0.0,0.0,0.0,0.0,0.0,0.0,0.0,0.0,0.0,0.0,0.0,0.0,0.0,0.0,0.0,0.0,-1.969,-1.9207,-1.8817,-1.865,-1.8302,-1.8106,-1.8106,-1.8106,-1.8302,-1.8612,-1.8817,-1.9095,-1.9442,-1.9603,-1.969,-1.969,-1.969,-1.969,-1.9762,-2.0562,-2.1399,-2.2197,-2.3258,-2.4475,-2.5642,-2.5878,-2.6284,-2.6691,-2.6691,-2.6691,-2.6691,-2.6691,-2.686,-2.7097,-2.7352,-2.8134,-2.8953,-2.9269,-3.0727,-3.2273,-3.2531,-3.3009,-3.3465,-3.3734,-3.3807,-3.3807,-3.3807,-3.3807,-3.3807,-3.3807,-3.3807,-3.3807,-3.3807,-3.3807,-3.3999,-3.4639,-3.4739,-3.4995,-3.5655,-3.5584,-3.5558,-3.5754,-3.4934,-3.468,-3.5434,-3.5499,-3.5496,-3.5493,-3.5493,-3.5493,-3.5493,-3.5498,-3.5498,-3.5493,-3.6238,-3.6257,-3.5493,-3.5776,-3.5911,-3.5911,-3.6257,-3.6425,0.0,0.0,0.0,0.0,0.0,0.0,0.0,0.0,0.0,0.0,0.0,0.0,0.0,0.0,0.0,0.0,0.0,0.0,0.0,0.0,0.0,0.0,0.0,0.0,0.0,0.0,0.0,0.0,0.0,-1.969,-1.969,-1.9169,-1.8612,-1.8066,-1.8066,-1.8066,-1.8066,-1.8066,-1.8066,-1.8066,-1.8612,-1.8893,-1.893,-1.9442,-1.969,-1.969,-1.969,-1.969,-1.9827,-2.1408,-2.205,-2.2294,-2.4611,-2.5524,-2.5625,-2.6336,-2.6623,-2.6657,-2.6657,-2.6674,-2.6691,-2.6691,-2.7182,-2.7639,-2.6939,-2.838,-3.007,-2.9318,-2.9881,-3.118,-3.3258,-3.3807,-3.3807,-3.3807,-3.3807,-3.3807,-3.3807,-3.3807,-3.3807,-3.3807,-3.3807,-3.3815,-3.3815,-3.3815,-3.3928,-3.4195,-3.42,-3.4334,-3.4653,-3.4543,-3.4486,-3.4675,-3.5172,-3.5484,-3.5484,-3.5492,-3.5537,-3.5641,-3.5556,-3.5498,-3.5493,-3.5493,-3.5493,-3.5493,-3.5493,-3.5493,-3.5493,-3.6315,-3.6719,-3.6738,-3.7747,-3.8218,-2.3656,0.0,0.0,0.0,0.0,0.0,0.0,0.0,0.0,0.0,0.0,0.0,0.0,0.0,0.0,0.0,0.0,0.0,0.0,0.0,0.0,0.0,0.0,0.0,0.0,0.0,0.0,0.0,-1.9715,-1.9132,-1.9132,-1.8263,-1.7504,-1.6951,-1.6951,-1.6951,-1.6951,-1.6951,-1.7146,-1.7544,-1.8066,-1.8535,-1.893,-1.9442,-1.969,-1.969,-1.969,-1.969,-1.9762,-2.087,-2.1311,-2.1424,-2.2725,-2.3545,-2.4036,-2.4259,-2.5002,-2.5896,-2.5895,-2.625,-2.6691,-2.6691,-2.7024,-2.7397,-2.7192,-2.9009,-3.0915,-2.979,-3.1129,-3.3058,-3.3643,-3.3807,-3.3807,-3.3807,-3.3807,-3.3807,-3.3807,-3.3807,-3.3807,-3.3807,-3.3961,-3.4074,-3.4074,-3.4284,-3.4483,-3.4551,-3.4551,-3.4612,-3.4674,-3.4813,-3.4848,-3.4697,-3.5184,-3.5499,-3.5499,-3.5504,-3.6521,-3.8959,-3.6843,-3.5493,-3.5493,-3.5493,-3.5493,-3.5493,-3.5493,-3.5493,-3.5493,-3.6406,-3.6843,-3.6862,-3.782,-3.7927,-2.4522,-2.3921,-2.314,0.0,0.0,0.0,0.0,-1.9851,0.0,0.0,0.0,0.0,0.0,0.0,0.0,0.0,0.0,0.0,0.0,0.0,0.0,0.0,0.0,0.0,0.0,0.0,0.0,0.0,-1.9267,-1.8458,-1.8263,-1.7626,-1.7034,-1.6522,-1.6522,-1.6522,-1.6522,-1.6522,-1.668,-1.6993,-1.7747,-1.8263,-1.8574,-1.9369,-1.969,-1.969,-1.969,-1.9782,-2.0,-2.0698,-2.0991,-2.1135,-2.2308,-2.3021,-2.3444,-2.3752,-2.4391,-2.5246,-2.5839,-2.6129,-2.6334,-2.6855,-2.7353,-2.7757,-2.7672,-2.9318,-3.1124,-3.0785,-3.2174,-3.3799,-3.3798,-3.3807,-3.3807,-3.3807,-3.3807,-3.3807,-3.3807,-3.3807,-3.3842,-3.3954,-3.4074,-3.4246,-3.4379,-3.4572,-3.4734,-3.4851,-3.487,-3.4908,-3.5016,-3.5174,-3.5216,-3.5047,-3.5321,-3.5493,-3.5493,-3.5493,-3.6329,-3.829,-3.6579,-3.5512,-3.5493,-3.5493,-3.5493,-3.5493,-3.5493,-3.5545,-3.5584,-3.6098,-3.6944,-3.808,-3.9015,-3.9182,-2.5794,-2.5191,-2.45,0.0,0.0,0.0,-1.9927,-2.0126,0.0,0.0,0.0,0.0,0.0,0.0,0.0,0.0,0.0,0.0,0.0,0.0,0.0,0.0,0.0,0.0,0.0,0.0,-1.8647,-1.9829,-1.8651,-1.7693,-1.7133,-1.705,-1.6811,-1.6337,-1.638,-1.638,-1.638,-1.6466,-1.6522,-1.6522,-1.7585,-1.8106,-1.8145,-1.9207,-1.969,-1.969,-1.9747,-1.9965,-2.0348,-2.0846,-2.1055,-2.1214,-2.2722,-2.3274,-2.3359,-2.4002,-2.4313,-2.4573,-2.5883,-2.6038,-2.5851,-2.6999,-2.783,-2.8369,-2.8253,-2.9422,-3.0993,-3.2088,-3.3054,-3.3797,-3.3815,-3.3797,-3.3797,-3.3788,-3.366,-3.3587,-3.3805,-3.3768,-3.3843,-3.4204,-3.4288,-3.4357,-3.4694,-3.4754,-3.487,-3.5105,-3.5138,-3.5223,-3.5479,-3.5493,-3.5493,-3.5493,-3.5493,-3.5493,-3.5493,-3.5498,-3.5498,-3.5493,-3.5518,-3.5518,-3.5512,-3.5534,-3.556,-3.556,-3.5559,-3.5622,-3.5738,-3.5795,-3.7203,-3.9893,-4.066,-4.1032,0.0,0.0,0.0,0.0,0.0,0.0,-2.2029,-2.139,-2.0803,0.0,0.0,0.0,0.0,0.0,0.0,0.0,0.0,0.0,0.0,0.0,0.0,0.0,0.0,0.0,0.0,0.0,-1.9089,-1.9829,-1.7921,-1.6519,-1.5971,-1.5487,-1.5141,-1.5062,-1.5511,-1.5776,-1.5776,-1.6238,-1.6522,-1.6522,-1.7585,-1.8106,-1.8145,-1.9207,-1.969,-1.9711,-2.0035,-2.0212,-2.0348,-2.1165,-2.1491,-2.1538,-2.2228,-2.2513,-2.2547,-2.2682,-2.3088,-2.3642,-2.3943,-2.494,-2.6113,-2.6355,-2.7341,-2.8413,-2.8358,-2.9414,-3.1047,-3.2932,-3.3654,-3.3795,-3.381,-3.3799,-3.3788,-3.3778,-3.2797,-3.2268,-3.3796,-3.3603,-3.3504,-3.468,-3.4735,-3.4675,-3.4981,-3.5207,-3.5369,-3.5398,-3.5432,-3.5446,-3.5493,-3.5493,-3.5493,-3.5493,-3.5493,-3.5493,-3.5493,-3.5493,-3.5493,-3.5493,-3.5589,-3.5661,-3.5661,-3.5814,-3.5904,-3.5904,-3.5898,-3.5911,-3.593,-3.6747,-3.8433,-4.0912,-4.1072,-4.0791,0.0,0.0,0.0,-2.5392,0.0,0.0,0.0,-2.1853,0.0,0.0,0.0,0.0,0.0,0.0,0.0,0.0,0.0,0.0,0.0,0.0,0.0,0.0,0.0,0.0,0.0,0.0,-1.8296,-1.7794,-1.667,-1.574,-1.5186,-1.488,-1.4698,-1.4698,-1.5276,-1.5611,-1.5614,-1.6219,-1.6522,-1.6522,-1.7585,-1.8106,-1.8145,-1.9207,-1.969,-1.9711,-2.0124,-2.0449,-2.0682,-2.1337,-2.1718,-2.1957,-2.2209,-2.231,-2.231,-2.231,-2.2547,-2.2902,-2.3274,-2.4389,-2.5756,-2.6307,-2.7371,-2.8439,-2.8646,-2.9576,-3.0717,-3.1256,-3.198,-3.2594,-3.2599,-3.2587,-3.2403,-3.1594,-3.1771,-3.2358,-3.3297,-3.3343,-3.3443,-3.4293,-3.4334,-3.4467,-3.5181,-3.5417,-3.5493,-3.5493,-3.5493,-3.5493,-3.5493,-3.5493,-3.5493,-3.5493,-3.5493,-3.5526,-3.5565,-3.5584,-3.5603,-3.5603,-3.5661,-3.5738,-3.5853,-3.5941,-3.6001,-3.6001,-3.6008,-3.5999,-3.5995,-3.6501,-3.7834,-3.9902,-4.0351,-4.0547,0.0,0.0,0.0,0.0,0.0,-2.4985,0.0,0.0,0.0,0.0,0.0,0.0,0.0,0.0,0.0,0.0,0.0,0.0,0.0,0.0,0.0,0.0,0.0,0.0,0.0,0.0,-1.73,-1.572,-1.5499,-1.5141,-1.456,-1.4433,-1.434,-1.434,-1.505,-1.5412,-1.5427,-1.6156,-1.6522,-1.6522,-1.761,-1.8109,-1.8129,-1.9192,-1.969,-1.9711,-2.0124,-2.055,-2.1023,-2.143,-2.1899,-2.231,-2.231,-2.231,-2.231,-2.231,-2.231,-2.2395,-2.2987,-2.3979,-2.5125,-2.6043,-2.7228,-2.8366,-2.885,-2.9586,-3.0123,-2.9234,-2.996,-3.0944,-3.0937,-3.0944,-3.0681,-2.9649,-3.0817,-3.2284,-3.2673,-3.2879,-3.3109,-3.3538,-3.3643,-3.3976,-3.5056,-3.5391,-3.5493,-3.5493,-3.5372,-3.5315,-3.5488,-3.5218,-3.5141,-3.5455,-3.5372,-3.5372,-3.5584,-3.5669,-3.5707,-3.5707,-3.572,-3.5815,-3.5982,-3.5982,-3.6005,-3.5996,-3.5993,-3.5993,-3.5996,-3.6211,-3.7051,-3.8457,-3.9375,-4.0137,0.0,0.0,0.0,0.0,-2.6052,0.0,0.0,0.0,0.0,0.0,0.0,0.0,0.0,0.0,0.0,0.0,0.0,0.0,0.0,0.0,0.0,0.0,0.0,0.0,0.0,0.0,0.0,-1.5664,-1.5096,-1.456,-1.3909,-1.3382,-1.3113,-1.3113,-1.4201,-1.48,-1.4784,-1.5949,-1.6522,-1.6522,-1.7574,-1.8112,-1.8156,-1.9207,-1.969,-1.9711,-2.0124,-2.055,-2.1023,-2.143,-2.1899,-2.231,-2.231,-2.231,-2.231,-2.231,-2.231,-2.2327,-2.2412,-2.3325,-2.4491,-2.464,-2.6117,-2.8017,-2.8773,-2.9108,-2.914,-2.903,-2.9122,-2.9287,-2.9289,-2.9276,-2.954,-3.0613,-3.0373,-3.0374,-3.2139,-3.201,-3.1836,-3.2807,-3.3,-3.3288,-3.4199,-3.4988,-3.5493,-3.5493,-3.4834,-3.4622,-3.5411,-3.416,-3.3795,-3.5334,-3.4853,-3.4737,-3.5526,-3.5669,-3.5694,-3.5694,-3.5805,-3.5892,-3.5911,-3.5975,-3.5993,-3.5996,-3.5993,-3.5993,-3.5996,-3.7012,-3.7617,-3.7832,-3.8945,-3.9258,0.0,0.0,0.0,0.0,0.0,0.0,0.0,0.0,-2.3608,0.0,0.0,0.0,0.0,0.0,0.0,0.0,0.0,0.0,0.0,0.0,0.0,0.0,0.0,0.0,0.0,0.0,0.0,0.0,0.0,-1.3888,-1.3334,-1.2638,-1.2452,-1.2881,-1.4061,-1.4698,-1.4721,-1.592,-1.6522,-1.6522,-1.7583,-1.8096,-1.8152,-1.9214,-1.969,-1.9726,-2.0132,-2.0565,-2.1021,-2.1448,-2.1899,-2.231,-2.231,-2.231,-2.231,-2.231,-2.231,-2.2321,-2.249,-2.3345,-2.4544,-2.5402,-2.664,-2.7938,-2.8754,-2.8984,-2.8994,-2.8994,-2.8994,-2.9058,-2.9344,-2.9314,-2.94,-3.0111,-3.0433,-3.0779,-3.1622,-3.1666,-3.1667,-3.2128,-3.2199,-3.2314,-3.2679,-3.3853,-3.4564,-3.4064,-3.4103,-3.4141,-3.4007,-3.3397,-3.3436,-3.4661,-3.457,-3.4782,-3.5699,-3.5789,-3.5821,-3.5868,-3.5934,-3.5955,-3.5955,-3.5984,-3.5996,-3.5996,-3.5996,-3.5996,-3.5996,-3.6484,-3.7226,-3.8242,-3.9023,-3.8926,-2.761,0.0,0.0,0.0,0.0,0.0,0.0,0.0,0.0,0.0,0.0,0.0,0.0,0.0,0.0,0.0,0.0,0.0,0.0,0.0,0.0,0.0,0.0,0.0,0.0,0.0,0.0,0.0,-1.4778,0.0,-1.3008,-1.244,-1.2292,-1.274,-1.3842,-1.4516,-1.4699,-1.5724,-1.6398,-1.6739,-1.7665,-1.8179,-1.8345,-1.9288,-1.969,-1.9726,-2.0014,-2.0454,-2.1036,-2.1309,-2.1764,-2.231,-2.231,-2.231,-2.231,-2.231,-2.2349,-2.2453,-2.2634,-2.3365,-2.4438,-2.5807,-2.6817,-2.7665,-2.8691,-2.8993,-2.8994,-2.8994,-2.9081,-2.927,-2.9613,-2.9584,-2.9532,-2.9729,-3.0364,-3.0944,-3.104,-3.1207,-3.1352,-3.1352,-3.1352,-3.1352,-3.1352,-3.2737,-3.3622,-3.3006,-3.3256,-3.3372,-3.2974,-3.2571,-3.2839,-3.4206,-3.4231,-3.4641,-3.5795,-3.5933,-3.5942,-3.5996,-3.5996,-3.5996,-3.5996,-3.5996,-3.5996,-3.5996,-3.5996,-3.5996,-3.5996,-3.5996,-3.7148,-3.9297,-3.873,-3.8027,0.0,0.0,0.0,-2.6068,0.0,0.0,0.0,0.0,-2.3595,0.0,0.0,0.0,0.0,0.0,-2.235,-2.1409,0.0,0.0,0.0,0.0,0.0,0.0,0.0,0.0,0.0,0.0,0.0,0.0,-1.578,0.0,-1.3249,-1.2958,-1.271,-1.2314,-1.3322,-1.4097,-1.4698,-1.531,-1.617,-1.7282,-1.783,-1.8357,-1.8884,-1.9447,-1.969,-1.969,-1.9726,-2.0224,-2.1007,-2.0991,-2.1524,-2.231,-2.231,-2.231,-2.231,-2.231,-2.2463,-2.2695,-2.2695,-2.3159,-2.3919,-2.5054,-2.5996,-2.6927,-2.8507,-2.8997,-2.8994,-2.8994,-2.9311,-2.9673,-2.9712,-2.9701,-2.9729,-2.9939,-2.998,-3.0037,-3.0362,-3.0436,-3.0436,-3.0436,-3.0436,-3.0436,-3.0436,-3.1833,-3.2929,-3.2891,-3.2256,-3.2071,-3.2885,-3.159,-3.1581,-3.4209,-3.38,-3.4019,-3.5751,-3.5967,-3.5996,-3.5996,-3.5996,-3.5996,-3.5996,-3.5996,-3.5996,-3.5996,-3.5996,-3.5996,-3.5996,-3.5996,-3.7754,-4.1035,-3.7676,-3.6094,0.0,0.0,-2.7333,-2.6275,0.0,0.0,0.0,0.0,0.0,0.0,0.0,0.0,0.0,0.0,-2.2998,-2.2101,-2.2362,-2.2316,0.0,0.0,0.0,0.0,0.0,0.0,0.0,0.0,0.0,-1.7531,-1.6211,-1.5153,0.0,-1.372,-1.32,-1.3086,-1.4205,-1.4785,-1.4693,-1.5664,-1.659,-1.7325,-1.7853,-1.8375,-1.8905,-1.9468,-1.969,-1.9711,-1.9974,-2.0446,-2.1004,-2.1289,-2.1735,-2.231,-2.231,-2.231,-2.231,-2.231,-2.2483,-2.276,-2.3194,-2.3671,-2.4072,-2.4484,-2.5165,-2.5935,-2.6659,-2.7862,-2.8997,-2.9013,-2.8535,-2.8129,-2.8431,-2.8806,-2.9022,-2.8696,-2.9442,-3.0107,-2.9648,-2.9987,-3.0398,-3.0398,-3.0398,-3.0398,-3.0398,-3.091,-3.1295,-3.1256,-3.1532,-3.1648,-3.1321,-3.0898,-3.1264,-3.2928,-3.3271,-3.4066,-3.5817,-3.5987,-3.5996,-3.5996,-3.5996,-3.5996,-3.5996,-3.5996,-3.5996,-3.5996,-3.5996,-3.5996,-3.5996,-3.5996,-3.6495,-3.7404,-3.6347,-3.6202,-2.7849,-2.7591,0.0,-2.6423,-2.5973,0.0,-2.4854,0.0,0.0,0.0,0.0,0.0,0.0,0.0,-2.3182,-2.2844,-2.2575,-2.2058,0.0,-2.0846,0.0,0.0,0.0,0.0,0.0,0.0,-1.8954,-1.8349,-1.6909,-1.5852,0.0,0.0,-1.382,-1.3916,-1.4826,-1.5304,-1.5291,-1.6074,-1.6785,-1.7407,-1.7897,-1.8477,-1.9212,-1.9549,-1.969,-1.9732,-2.012,-2.0575,-2.102,-2.1442,-2.1899,-2.231,-2.231,-2.231,-2.231,-2.2415,-2.2695,-2.3118,-2.3696,-2.4016,-2.419,-2.419,-2.474,-2.5439,-2.5607,-2.6833,-2.8159,-2.8164,-2.824,-2.8129,-2.7205,-2.7573,-2.8115,-2.7945,-2.8563,-2.9264,-2.9498,-2.9998,-3.0402,-3.041,-3.0398,-3.0417,-3.0467,-3.0487,-3.0487,-3.0448,-3.0975,-3.1148,-3.0583,-3.0621,-3.1116,-3.2221,-3.2979,-3.4101,-3.5859,-3.5996,-3.5991,-3.5992,-3.5963,-3.5927,-3.594,-3.5901,-3.6066,-3.6426,-3.6145,-3.6004,-3.6007,-3.5887,-3.5733,-3.5585,-3.6113,-3.6689]}]]